Wetterdaten: Donnerstag, 01.11.2018
Datum Zeit Temp. A. Feuchte A. Luftdruck Regen Wind Richtung Richtung Sonnenschein ET UV Solar Taupunkt Windchill Windböen
01.11.2018 00:00 9,0 °C 68 % 1014,4 hPa 0,0 mm 3,4 km/h (1 Bft) S-SO 161 ° 0 min 0,000 mm 0,0 UV-I 0 W/m² 3,4 °C 9,0 °C 8,0 km/h (2 Bft)
01.11.2018 00:01 8,9 °C 69 % 1014,4 hPa 0,0 mm 1,5 km/h (1 Bft) NW 308 ° 0 min 0,000 mm 0,0 UV-I 0 W/m² 3,5 °C 8,9 °C 4,8 km/h (1 Bft)
01.11.2018 00:03 8,9 °C 69 % 1014,4 hPa 0,0 mm 0,0 km/h (0 Bft) NW 309 ° 0 min 0,000 mm 0,0 UV-I 0 W/m² 3,5 °C 8,9 °C 0,0 km/h (0 Bft)
01.11.2018 00:04 9,0 °C 69 % 1014,4 hPa 0,0 mm 0,3 km/h (0 Bft) NW 309 ° 0 min 0,000 mm 0,0 UV-I 0 W/m² 3,6 °C 9,0 °C 1,6 km/h (1 Bft)
01.11.2018 00:05 9,0 °C 68 % 1014,4 hPa 0,0 mm 2,4 km/h (1 Bft) NW 309 ° 0 min 0,000 mm 0,0 UV-I 0 W/m² 3,4 °C 9,0 °C 4,8 km/h (1 Bft)
01.11.2018 00:06 9,0 °C 68 % 1014,4 hPa 0,0 mm 2,3 km/h (1 Bft) NW 309 ° 0 min 0,000 mm 0,0 UV-I 0 W/m² 3,4 °C 9,0 °C 3,2 km/h (1 Bft)
01.11.2018 00:07 8,9 °C 68 % 1014,4 hPa 0,0 mm 3,3 km/h (1 Bft) N-NW 348 ° 0 min 0,000 mm 0,0 UV-I 0 W/m² 3,3 °C 8,9 °C 6,4 km/h (2 Bft)
01.11.2018 00:08 8,9 °C 68 % 1014,4 hPa 0,0 mm 1,9 km/h (1 Bft) N-NW 348 ° 0 min 0,000 mm 0,0 UV-I 0 W/m² 3,3 °C 8,9 °C 3,2 km/h (1 Bft)
01.11.2018 00:09 8,9 °C 68 % 1014,5 hPa 0,0 mm 2,5 km/h (1 Bft) N-NO 28 ° 0 min 0,000 mm 0,0 UV-I 0 W/m² 3,3 °C 8,9 °C 3,2 km/h (1 Bft)
01.11.2018 00:10 8,9 °C 68 % 1014,4 hPa 0,0 mm 1,7 km/h (1 Bft) N 355 ° 0 min 0,000 mm 0,0 UV-I 0 W/m² 3,3 °C 8,9 °C 4,8 km/h (1 Bft)
01.11.2018 00:11 8,9 °C 68 % 1014,4 hPa 0,0 mm 0,7 km/h (0 Bft) N 355 ° 0 min 0,000 mm 0,0 UV-I 0 W/m² 3,3 °C 8,9 °C 3,2 km/h (1 Bft)
01.11.2018 00:12 8,9 °C 68 % 1014,3 hPa 0,0 mm 1,0 km/h (0 Bft) N 355 ° 0 min 0,000 mm 0,0 UV-I 0 W/m² 3,3 °C 8,9 °C 1,6 km/h (1 Bft)
01.11.2018 00:13 8,9 °C 68 % 1014,4 hPa 0,0 mm 1,3 km/h (1 Bft) N 355 ° 0 min 0,000 mm 0,0 UV-I 0 W/m² 3,3 °C 8,9 °C 4,8 km/h (1 Bft)
01.11.2018 00:14 8,8 °C 68 % 1014,3 hPa 0,0 mm 1,9 km/h (1 Bft) N-NW 338 ° 0 min 0,000 mm 0,0 UV-I 0 W/m² 3,2 °C 8,8 °C 4,8 km/h (1 Bft)
01.11.2018 00:15 8,8 °C 68 % 1014,3 hPa 0,0 mm 5,5 km/h (1 Bft) NO 40 ° 0 min 0,000 mm 0,0 UV-I 0 W/m² 3,2 °C 8,2 °C 9,7 km/h (2 Bft)
01.11.2018 00:16 8,8 °C 68 % 1014,3 hPa 0,0 mm 3,0 km/h (1 Bft) S 180 ° 0 min 0,000 mm 0,0 UV-I 0 W/m² 3,2 °C 8,8 °C 6,4 km/h (2 Bft)
01.11.2018 00:17 8,8 °C 68 % 1014,3 hPa 0,0 mm 6,4 km/h (2 Bft) O-NO 69 ° 0 min 0,000 mm 0,0 UV-I 0 W/m² 3,2 °C 8,0 °C 12,9 km/h (3 Bft)
01.11.2018 00:18 8,8 °C 68 % 1014,2 hPa 0,0 mm 4,1 km/h (1 Bft) NW 322 ° 0 min 0,000 mm 0,0 UV-I 0 W/m² 3,2 °C 8,8 °C 8,0 km/h (2 Bft)
01.11.2018 00:19 8,9 °C 67 % 1014,2 hPa 0,0 mm 3,8 km/h (1 Bft) NW 317 ° 0 min 0,000 mm 0,0 UV-I 0 W/m² 3,1 °C 8,9 °C 8,0 km/h (2 Bft)
01.11.2018 00:20 9,1 °C 67 % 1014,3 hPa 0,0 mm 2,2 km/h (1 Bft) NW 323 ° 0 min 0,000 mm 0,0 UV-I 0 W/m² 3,3 °C 9,1 °C 4,8 km/h (1 Bft)
01.11.2018 00:21 9,1 °C 67 % 1014,4 hPa 0,0 mm 1,3 km/h (1 Bft) N 350 ° 0 min 0,000 mm 0,0 UV-I 0 W/m² 3,3 °C 9,1 °C 3,2 km/h (1 Bft)
01.11.2018 00:22 9,2 °C 67 % 1014,4 hPa 0,0 mm 2,9 km/h (1 Bft) N 5 ° 0 min 0,000 mm 0,0 UV-I 0 W/m² 3,4 °C 9,2 °C 6,4 km/h (2 Bft)
01.11.2018 00:23 9,2 °C 68 % 1014,4 hPa 0,0 mm 0,9 km/h (0 Bft) SO 140 ° 0 min 0,000 mm 0,0 UV-I 0 W/m² 3,6 °C 9,2 °C 3,2 km/h (1 Bft)
01.11.2018 00:24 9,2 °C 67 % 1014,3 hPa 0,0 mm 0,8 km/h (0 Bft) N-NW 336 ° 0 min 0,000 mm 0,0 UV-I 0 W/m² 3,4 °C 9,2 °C 4,8 km/h (1 Bft)
01.11.2018 00:25 9,1 °C 66 % 1014,3 hPa 0,0 mm 6,4 km/h (2 Bft) SW 236 ° 0 min 0,000 mm 0,0 UV-I 0 W/m² 3,1 °C 8,3 °C 9,7 km/h (2 Bft)
01.11.2018 00:26 9,2 °C 67 % 1014,3 hPa 0,0 mm 4,6 km/h (1 Bft) O 101 ° 0 min 0,000 mm 0,0 UV-I 0 W/m² 3,4 °C 9,0 °C 9,7 km/h (2 Bft)
01.11.2018 00:27 9,2 °C 68 % 1014,4 hPa 0,0 mm 2,2 km/h (1 Bft) NO 37 ° 0 min 0,000 mm 0,0 UV-I 0 W/m² 3,6 °C 9,2 °C 3,2 km/h (1 Bft)
01.11.2018 00:28 9,2 °C 68 % 1014,4 hPa 0,0 mm 3,0 km/h (1 Bft) W 275 ° 0 min 0,000 mm 0,0 UV-I 0 W/m² 3,6 °C 9,2 °C 4,8 km/h (1 Bft)
01.11.2018 00:29 9,2 °C 67 % 1014,4 hPa 0,0 mm 1,4 km/h (1 Bft) W 277 ° 0 min 0,000 mm 0,0 UV-I 0 W/m² 3,4 °C 9,2 °C 3,2 km/h (1 Bft)
01.11.2018 00:30 9,2 °C 68 % 1014,4 hPa 0,0 mm 3,8 km/h (1 Bft) O-SO 123 ° 0 min 0,000 mm 0,0 UV-I 0 W/m² 3,6 °C 9,2 °C 4,8 km/h (1 Bft)
01.11.2018 00:31 9,1 °C 68 % 1014,4 hPa 0,0 mm 2,8 km/h (1 Bft) W-NW 294 ° 0 min 0,000 mm 0,0 UV-I 0 W/m² 3,5 °C 9,1 °C 4,8 km/h (1 Bft)
01.11.2018 00:32 9,1 °C 68 % 1014,3 hPa 0,0 mm 4,6 km/h (1 Bft) S 171 ° 0 min 0,000 mm 0,0 UV-I 0 W/m² 3,5 °C 8,9 °C 8,0 km/h (2 Bft)
01.11.2018 00:33 9,0 °C 69 % 1014,5 hPa 0,0 mm 2,1 km/h (1 Bft) W-SW 252 ° 0 min 0,000 mm 0,0 UV-I 0 W/m² 3,6 °C 9,0 °C 4,8 km/h (1 Bft)
01.11.2018 00:34 8,9 °C 69 % 1014,5 hPa 0,0 mm 0,0 km/h (0 Bft) W-SW 252 ° 0 min 0,000 mm 0,0 UV-I 0 W/m² 3,5 °C 8,9 °C 0,0 km/h (0 Bft)
01.11.2018 00:35 8,9 °C 69 % 1014,5 hPa 0,0 mm 2,9 km/h (1 Bft) N-NW 335 ° 0 min 0,000 mm 0,0 UV-I 0 W/m² 3,5 °C 8,9 °C 6,4 km/h (2 Bft)
01.11.2018 00:36 8,9 °C 69 % 1014,5 hPa 0,0 mm 3,5 km/h (1 Bft) N-NW 339 ° 0 min 0,000 mm 0,0 UV-I 0 W/m² 3,5 °C 8,9 °C 9,7 km/h (2 Bft)
01.11.2018 00:37 8,9 °C 68 % 1014,5 hPa 0,0 mm 4,5 km/h (1 Bft) W-NW 283 ° 0 min 0,000 mm 0,0 UV-I 0 W/m² 3,3 °C 8,9 °C 6,4 km/h (2 Bft)
01.11.2018 00:38 8,8 °C 68 % 1014,5 hPa 0,0 mm 4,7 km/h (1 Bft) W-SW 248 ° 0 min 0,000 mm 0,0 UV-I 0 W/m² 3,2 °C 8,5 °C 9,7 km/h (2 Bft)
01.11.2018 00:39 8,8 °C 68 % 1014,6 hPa 0,0 mm 1,1 km/h (1 Bft) W 268 ° 0 min 0,000 mm 0,0 UV-I 0 W/m² 3,2 °C 8,8 °C 3,2 km/h (1 Bft)
01.11.2018 00:40 8,8 °C 68 % 1014,5 hPa 0,0 mm 0,7 km/h (0 Bft) N 355 ° 0 min 0,000 mm 0,0 UV-I 0 W/m² 3,2 °C 8,8 °C 3,2 km/h (1 Bft)
01.11.2018 00:41 8,8 °C 69 % 1014,4 hPa 0,0 mm 1,4 km/h (1 Bft) W 277 ° 0 min 0,000 mm 0,0 UV-I 0 W/m² 3,4 °C 8,8 °C 3,2 km/h (1 Bft)
01.11.2018 00:42 8,7 °C 69 % 1014,4 hPa 0,0 mm 1,0 km/h (0 Bft) W 277 ° 0 min 0,000 mm 0,0 UV-I 0 W/m² 3,3 °C 8,7 °C 1,6 km/h (1 Bft)
01.11.2018 00:43 8,7 °C 69 % 1014,5 hPa 0,0 mm 0,0 km/h (0 Bft) W 277 ° 0 min 0,000 mm 0,0 UV-I 0 W/m² 3,3 °C 8,7 °C 0,0 km/h (0 Bft)
01.11.2018 00:44 8,7 °C 70 % 1014,5 hPa 0,0 mm 1,7 km/h (1 Bft) N-NO 30 ° 0 min 0,000 mm 0,0 UV-I 0 W/m² 3,5 °C 8,7 °C 4,8 km/h (1 Bft)
01.11.2018 00:45 8,7 °C 70 % 1014,5 hPa 0,0 mm 2,0 km/h (1 Bft) N-NO 31 ° 0 min 0,000 mm 0,0 UV-I 0 W/m² 3,5 °C 8,7 °C 4,8 km/h (1 Bft)
01.11.2018 00:46 8,7 °C 71 % 1014,5 hPa 0,0 mm 2,1 km/h (1 Bft) N-NO 29 ° 0 min 0,000 mm 0,0 UV-I 0 W/m² 3,7 °C 8,7 °C 4,8 km/h (1 Bft)
01.11.2018 00:47 8,7 °C 70 % 1014,6 hPa 0,0 mm 1,0 km/h (0 Bft) N-NO 26 ° 0 min 0,000 mm 0,0 UV-I 0 W/m² 3,5 °C 8,7 °C 3,2 km/h (1 Bft)
01.11.2018 00:48 8,8 °C 70 % 1014,5 hPa 0,0 mm 0,0 km/h (0 Bft) N-NO 26 ° 0 min 0,000 mm 0,0 UV-I 0 W/m² 3,6 °C 8,8 °C 0,0 km/h (0 Bft)
01.11.2018 00:49 8,7 °C 70 % 1014,6 hPa 0,0 mm 0,6 km/h (0 Bft) NO 51 ° 0 min 0,000 mm 0,0 UV-I 0 W/m² 3,5 °C 8,7 °C 1,6 km/h (1 Bft)
01.11.2018 00:50 8,8 °C 69 % 1014,5 hPa 0,0 mm 1,1 km/h (1 Bft) N-NW 344 ° 0 min 0,000 mm 0,0 UV-I 0 W/m² 3,4 °C 8,8 °C 3,2 km/h (1 Bft)
01.11.2018 00:51 8,8 °C 70 % 1014,6 hPa 0,0 mm 1,5 km/h (1 Bft) N-NW 344 ° 0 min 0,000 mm 0,0 UV-I 0 W/m² 3,6 °C 8,8 °C 3,2 km/h (1 Bft)
01.11.2018 00:52 8,8 °C 69 % 1014,6 hPa 0,0 mm 1,8 km/h (1 Bft) N 5 ° 0 min 0,000 mm 0,0 UV-I 0 W/m² 3,4 °C 8,8 °C 3,2 km/h (1 Bft)
01.11.2018 00:53 8,8 °C 70 % 1014,6 hPa 0,0 mm 1,1 km/h (1 Bft) O 100 ° 0 min 0,000 mm 0,0 UV-I 0 W/m² 3,6 °C 8,8 °C 3,2 km/h (1 Bft)
01.11.2018 00:54 8,8 °C 69 % 1014,6 hPa 0,0 mm 1,5 km/h (1 Bft) O-NO 62 ° 0 min 0,000 mm 0,0 UV-I 0 W/m² 3,4 °C 8,8 °C 3,2 km/h (1 Bft)
01.11.2018 00:55 8,7 °C 70 % 1014,5 hPa 0,0 mm 0,0 km/h (0 Bft) O-NO 62 ° 0 min 0,000 mm 0,0 UV-I 0 W/m² 3,5 °C 8,7 °C 0,0 km/h (0 Bft)
01.11.2018 00:56 8,6 °C 71 % 1014,6 hPa 0,0 mm 0,0 km/h (0 Bft) O-NO 62 ° 0 min 0,000 mm 0,0 UV-I 0 W/m² 3,6 °C 8,6 °C 0,0 km/h (0 Bft)
01.11.2018 00:57 8,5 °C 71 % 1014,5 hPa 0,0 mm 0,7 km/h (0 Bft) O-NO 62 ° 0 min 0,000 mm 0,0 UV-I 0 W/m² 3,5 °C 8,5 °C 3,2 km/h (1 Bft)
01.11.2018 00:58 8,5 °C 71 % 1014,4 hPa 0,0 mm 0,5 km/h (0 Bft) O-NO 62 ° 0 min 0,000 mm 0,0 UV-I 0 W/m² 3,5 °C 8,5 °C 1,6 km/h (1 Bft)
01.11.2018 00:59 8,4 °C 71 % 1014,4 hPa 0,0 mm 0,0 km/h (0 Bft) O-NO 62 ° 0 min 0,000 mm 0,0 UV-I 0 W/m² 3,5 °C 8,4 °C 0,0 km/h (0 Bft)
01.11.2018 01:00 8,5 °C 70 % 1014,5 hPa 0,0 mm 2,1 km/h (1 Bft) W 263 ° 0 min 0,000 mm 0,0 UV-I 0 W/m² 3,3 °C 8,5 °C 9,7 km/h (2 Bft)
01.11.2018 01:01 8,6 °C 68 % 1014,5 hPa 0,0 mm 6,8 km/h (2 Bft) SW 233 ° 0 min 0,025 mm 0,0 UV-I 0 W/m² 3,0 °C 7,6 °C 8,0 km/h (2 Bft)
01.11.2018 01:02 8,8 °C 68 % 1014,5 hPa 0,0 mm 4,4 km/h (1 Bft) SW 218 ° 0 min 0,000 mm 0,0 UV-I 0 W/m² 3,2 °C 8,8 °C 11,3 km/h (2 Bft)
01.11.2018 01:03 8,8 °C 69 % 1014,5 hPa 0,0 mm 1,5 km/h (1 Bft) W-SW 255 ° 0 min 0,000 mm 0,0 UV-I 0 W/m² 3,4 °C 8,8 °C 3,2 km/h (1 Bft)
01.11.2018 01:04 8,9 °C 68 % 1014,5 hPa 0,0 mm 5,9 km/h (2 Bft) W-SW 238 ° 0 min 0,000 mm 0,0 UV-I 0 W/m² 3,3 °C 8,2 °C 9,7 km/h (2 Bft)
01.11.2018 01:05 9,0 °C 68 % 1014,5 hPa 0,0 mm 5,4 km/h (1 Bft) S-SW 193 ° 0 min 0,000 mm 0,0 UV-I 0 W/m² 3,4 °C 8,5 °C 11,3 km/h (2 Bft)
01.11.2018 01:06 9,1 °C 66 % 1014,5 hPa 0,0 mm 9,0 km/h (2 Bft) W 269 ° 0 min 0,000 mm 0,0 UV-I 0 W/m² 3,1 °C 7,7 °C 14,5 km/h (3 Bft)
01.11.2018 01:07 9,2 °C 66 % 1014,5 hPa 0,0 mm 8,1 km/h (2 Bft) W 265 ° 0 min 0,000 mm 0,0 UV-I 0 W/m² 3,2 °C 8,0 °C 12,9 km/h (3 Bft)
01.11.2018 01:08 9,3 °C 66 % 1014,5 hPa 0,0 mm 3,0 km/h (1 Bft) SW 226 ° 0 min 0,000 mm 0,0 UV-I 0 W/m² 3,3 °C 9,3 °C 9,7 km/h (2 Bft)
01.11.2018 01:09 9,4 °C 67 % 1014,4 hPa 0,0 mm 3,4 km/h (1 Bft) S 191 ° 0 min 0,000 mm 0,0 UV-I 0 W/m² 3,6 °C 9,4 °C 6,4 km/h (2 Bft)
01.11.2018 01:10 9,3 °C 67 % 1014,4 hPa 0,0 mm 1,7 km/h (1 Bft) W-SW 241 ° 0 min 0,000 mm 0,0 UV-I 0 W/m² 3,5 °C 9,3 °C 4,8 km/h (1 Bft)
01.11.2018 01:11 9,4 °C 66 % 1014,4 hPa 0,0 mm 3,8 km/h (1 Bft) W-SW 246 ° 0 min 0,000 mm 0,0 UV-I 0 W/m² 3,4 °C 9,4 °C 12,9 km/h (3 Bft)
01.11.2018 01:12 9,4 °C 66 % 1014,4 hPa 0,0 mm 5,4 km/h (1 Bft) W-SW 247 ° 0 min 0,000 mm 0,0 UV-I 0 W/m² 3,4 °C 9,0 °C 12,9 km/h (3 Bft)
01.11.2018 01:13 9,4 °C 66 % 1014,4 hPa 0,0 mm 1,9 km/h (1 Bft) W-SW 239 ° 0 min 0,000 mm 0,0 UV-I 0 W/m² 3,4 °C 9,4 °C 8,0 km/h (2 Bft)
01.11.2018 01:14 9,6 °C 65 % 1014,5 hPa 0,0 mm 6,9 km/h (2 Bft) S 185 ° 0 min 0,000 mm 0,0 UV-I 0 W/m² 3,4 °C 8,8 °C 12,9 km/h (3 Bft)
01.11.2018 01:15 9,6 °C 65 % 1014,5 hPa 0,0 mm 4,8 km/h (1 Bft) SW 233 ° 0 min 0,000 mm 0,0 UV-I 0 W/m² 3,4 °C 9,4 °C 9,7 km/h (2 Bft)
01.11.2018 01:16 9,7 °C 65 % 1014,5 hPa 0,0 mm 3,1 km/h (1 Bft) SW 235 ° 0 min 0,000 mm 0,0 UV-I 0 W/m² 3,4 °C 9,7 °C 6,4 km/h (2 Bft)
01.11.2018 01:17 9,7 °C 65 % 1014,5 hPa 0,0 mm 1,8 km/h (1 Bft) O-NO 67 ° 0 min 0,000 mm 0,0 UV-I 0 W/m² 3,4 °C 9,7 °C 4,8 km/h (1 Bft)
01.11.2018 01:18 9,7 °C 65 % 1014,5 hPa 0,0 mm 5,0 km/h (1 Bft) W 269 ° 0 min 0,000 mm 0,0 UV-I 0 W/m² 3,4 °C 9,4 °C 9,7 km/h (2 Bft)
01.11.2018 01:19 9,6 °C 67 % 1014,4 hPa 0,0 mm 2,1 km/h (1 Bft) W 268 ° 0 min 0,000 mm 0,0 UV-I 0 W/m² 3,8 °C 9,6 °C 4,8 km/h (1 Bft)
01.11.2018 01:20 9,6 °C 65 % 1014,4 hPa 0,0 mm 1,8 km/h (1 Bft) W 265 ° 0 min 0,000 mm 0,0 UV-I 0 W/m² 3,4 °C 9,6 °C 4,8 km/h (1 Bft)
01.11.2018 01:21 9,6 °C 65 % 1014,4 hPa 0,0 mm 4,6 km/h (1 Bft) W-SW 257 ° 0 min 0,000 mm 0,0 UV-I 0 W/m² 3,4 °C 9,4 °C 9,7 km/h (2 Bft)
01.11.2018 01:22 9,6 °C 65 % 1014,4 hPa 0,0 mm 3,8 km/h (1 Bft) S-SW 213 ° 0 min 0,000 mm 0,0 UV-I 0 W/m² 3,4 °C 9,6 °C 6,4 km/h (2 Bft)
01.11.2018 01:23 9,6 °C 65 % 1014,4 hPa 0,0 mm 4,6 km/h (1 Bft) W 275 ° 0 min 0,000 mm 0,0 UV-I 0 W/m² 3,4 °C 9,4 °C 8,0 km/h (2 Bft)
01.11.2018 01:24 9,6 °C 65 % 1014,4 hPa 0,0 mm 4,8 km/h (1 Bft) W 271 ° 0 min 0,000 mm 0,0 UV-I 0 W/m² 3,4 °C 9,4 °C 8,0 km/h (2 Bft)
01.11.2018 01:25 9,7 °C 64 % 1014,4 hPa 0,0 mm 4,3 km/h (1 Bft) W-SW 254 ° 0 min 0,000 mm 0,0 UV-I 0 W/m² 3,2 °C 9,7 °C 9,7 km/h (2 Bft)
01.11.2018 01:26 9,6 °C 65 % 1014,3 hPa 0,0 mm 2,7 km/h (1 Bft) S-SW 213 ° 0 min 0,000 mm 0,0 UV-I 0 W/m² 3,4 °C 9,6 °C 4,8 km/h (1 Bft)
01.11.2018 01:27 9,6 °C 66 % 1014,2 hPa 0,0 mm 1,3 km/h (1 Bft) SW 214 ° 0 min 0,000 mm 0,0 UV-I 0 W/m² 3,6 °C 9,6 °C 1,6 km/h (1 Bft)
01.11.2018 01:28 9,4 °C 65 % 1014,3 hPa 0,0 mm 2,7 km/h (1 Bft) W-SW 257 ° 0 min 0,000 mm 0,0 UV-I 0 W/m² 3,2 °C 9,4 °C 3,2 km/h (1 Bft)
01.11.2018 01:29 9,3 °C 67 % 1014,3 hPa 0,0 mm 1,7 km/h (1 Bft) W-SW 237 ° 0 min 0,000 mm 0,0 UV-I 0 W/m² 3,5 °C 9,3 °C 3,2 km/h (1 Bft)
01.11.2018 01:30 9,2 °C 68 % 1014,3 hPa 0,0 mm 0,7 km/h (0 Bft) W-SW 237 ° 0 min 0,000 mm 0,0 UV-I 0 W/m² 3,6 °C 9,2 °C 3,2 km/h (1 Bft)
01.11.2018 01:31 9,1 °C 69 % 1014,4 hPa 0,0 mm 0,7 km/h (0 Bft) W-NW 300 ° 0 min 0,000 mm 0,0 UV-I 0 W/m² 3,7 °C 9,1 °C 3,2 km/h (1 Bft)
01.11.2018 01:32 8,9 °C 69 % 1014,4 hPa 0,0 mm 2,0 km/h (1 Bft) S-SO 166 ° 0 min 0,000 mm 0,0 UV-I 0 W/m² 3,5 °C 8,9 °C 4,8 km/h (1 Bft)
01.11.2018 01:33 8,8 °C 69 % 1014,4 hPa 0,0 mm 2,3 km/h (1 Bft) SW 217 ° 0 min 0,000 mm 0,0 UV-I 0 W/m² 3,4 °C 8,8 °C 6,4 km/h (2 Bft)
01.11.2018 01:34 8,7 °C 69 % 1014,3 hPa 0,0 mm 1,7 km/h (1 Bft) S-SO 164 ° 0 min 0,000 mm 0,0 UV-I 0 W/m² 3,3 °C 8,7 °C 6,4 km/h (2 Bft)
01.11.2018 01:35 8,7 °C 69 % 1014,3 hPa 0,0 mm 0,3 km/h (0 Bft) S-SO 164 ° 0 min 0,000 mm 0,0 UV-I 0 W/m² 3,3 °C 8,7 °C 1,6 km/h (1 Bft)
01.11.2018 01:36 8,7 °C 70 % 1014,2 hPa 0,0 mm 0,0 km/h (0 Bft) S-SO 164 ° 0 min 0,000 mm 0,0 UV-I 0 W/m² 3,5 °C 8,7 °C 0,0 km/h (0 Bft)
01.11.2018 01:37 8,7 °C 70 % 1014,3 hPa 0,0 mm 0,3 km/h (0 Bft) S-SO 164 ° 0 min 0,000 mm 0,0 UV-I 0 W/m² 3,5 °C 8,7 °C 1,6 km/h (1 Bft)
01.11.2018 01:38 8,7 °C 70 % 1014,2 hPa 0,0 mm 0,0 km/h (0 Bft) S-SO 164 ° 0 min 0,000 mm 0,0 UV-I 0 W/m² 3,5 °C 8,7 °C 0,0 km/h (0 Bft)
01.11.2018 01:39 8,6 °C 70 % 1014,2 hPa 0,0 mm 0,0 km/h (0 Bft) S-SO 164 ° 0 min 0,000 mm 0,0 UV-I 0 W/m² 3,4 °C 8,6 °C 0,0 km/h (0 Bft)
01.11.2018 01:40 8,7 °C 70 % 1014,2 hPa 0,0 mm 0,0 km/h (0 Bft) S-SO 164 ° 0 min 0,000 mm 0,0 UV-I 0 W/m² 3,5 °C 8,7 °C 0,0 km/h (0 Bft)
01.11.2018 01:41 8,7 °C 70 % 1014,2 hPa 0,0 mm 0,2 km/h (0 Bft) S-SO 164 ° 0 min 0,000 mm 0,0 UV-I 0 W/m² 3,5 °C 8,7 °C 1,6 km/h (1 Bft)
01.11.2018 01:42 8,7 °C 70 % 1014,2 hPa 0,0 mm 0,9 km/h (0 Bft) N 9 ° 0 min 0,000 mm 0,0 UV-I 0 W/m² 3,5 °C 8,7 °C 4,8 km/h (1 Bft)
01.11.2018 01:43 8,6 °C 71 % 1014,2 hPa 0,0 mm 2,5 km/h (1 Bft) W-NW 285 ° 0 min 0,000 mm 0,0 UV-I 0 W/m² 3,6 °C 8,6 °C 6,4 km/h (2 Bft)
01.11.2018 01:44 8,6 °C 70 % 1014,2 hPa 0,0 mm 3,0 km/h (1 Bft) NW 309 ° 0 min 0,000 mm 0,0 UV-I 0 W/m² 3,4 °C 8,6 °C 6,4 km/h (2 Bft)
01.11.2018 01:45 8,6 °C 69 % 1014,2 hPa 0,0 mm 0,3 km/h (0 Bft) NW 310 ° 0 min 0,000 mm 0,0 UV-I 0 W/m² 3,2 °C 8,6 °C 1,6 km/h (1 Bft)
01.11.2018 01:46 8,6 °C 70 % 1014,1 hPa 0,0 mm 0,6 km/h (0 Bft) NW 311 ° 0 min 0,000 mm 0,0 UV-I 0 W/m² 3,4 °C 8,6 °C 1,6 km/h (1 Bft)
01.11.2018 01:47 8,6 °C 69 % 1014,1 hPa 0,0 mm 4,7 km/h (1 Bft) N 5 ° 0 min 0,000 mm 0,0 UV-I 0 W/m² 3,2 °C 8,3 °C 8,0 km/h (2 Bft)
01.11.2018 01:48 8,6 °C 69 % 1014,0 hPa 0,0 mm 2,5 km/h (1 Bft) W-SW 238 ° 0 min 0,000 mm 0,0 UV-I 0 W/m² 3,2 °C 8,6 °C 4,8 km/h (1 Bft)
01.11.2018 01:49 8,6 °C 69 % 1014,0 hPa 0,0 mm 0,6 km/h (0 Bft) W-SW 238 ° 0 min 0,000 mm 0,0 UV-I 0 W/m² 3,2 °C 8,6 °C 3,2 km/h (1 Bft)
01.11.2018 01:50 8,7 °C 69 % 1013,9 hPa 0,0 mm 0,0 km/h (0 Bft) W-SW 243 ° 0 min 0,000 mm 0,0 UV-I 0 W/m² 3,3 °C 8,7 °C 0,0 km/h (0 Bft)
01.11.2018 01:51 8,7 °C 69 % 1013,9 hPa 0,0 mm 1,9 km/h (1 Bft) N 349 ° 0 min 0,000 mm 0,0 UV-I 0 W/m² 3,3 °C 8,7 °C 3,2 km/h (1 Bft)
01.11.2018 01:52 8,6 °C 70 % 1014,0 hPa 0,0 mm 2,2 km/h (1 Bft) W-NW 296 ° 0 min 0,000 mm 0,0 UV-I 0 W/m² 3,4 °C 8,6 °C 6,4 km/h (2 Bft)
01.11.2018 01:53 8,6 °C 69 % 1013,9 hPa 0,0 mm 3,0 km/h (1 Bft) S 184 ° 0 min 0,000 mm 0,0 UV-I 0 W/m² 3,2 °C 8,6 °C 4,8 km/h (1 Bft)
01.11.2018 01:54 8,6 °C 69 % 1013,9 hPa 0,0 mm 0,4 km/h (0 Bft) S-SW 193 ° 0 min 0,000 mm 0,0 UV-I 0 W/m² 3,2 °C 8,6 °C 1,6 km/h (1 Bft)
01.11.2018 01:55 8,6 °C 69 % 1013,9 hPa 0,0 mm 4,0 km/h (1 Bft) W-SW 239 ° 0 min 0,000 mm 0,0 UV-I 0 W/m² 3,2 °C 8,6 °C 9,7 km/h (2 Bft)
01.11.2018 01:56 8,7 °C 68 % 1013,8 hPa 0,0 mm 6,9 km/h (2 Bft) W-SW 257 ° 0 min 0,000 mm 0,0 UV-I 0 W/m² 3,1 °C 7,7 °C 11,3 km/h (2 Bft)
01.11.2018 01:57 8,8 °C 68 % 1013,8 hPa 0,0 mm 4,3 km/h (1 Bft) S 186 ° 0 min 0,000 mm 0,0 UV-I 0 W/m² 3,2 °C 8,8 °C 11,3 km/h (2 Bft)
01.11.2018 01:58 8,9 °C 68 % 1013,7 hPa 0,0 mm 1,9 km/h (1 Bft) W 271 ° 0 min 0,000 mm 0,0 UV-I 0 W/m² 3,3 °C 8,9 °C 3,2 km/h (1 Bft)
01.11.2018 01:59 8,9 °C 69 % 1013,7 hPa 0,0 mm 4,2 km/h (1 Bft) S-SO 155 ° 0 min 0,000 mm 0,0 UV-I 0 W/m² 3,5 °C 8,9 °C 6,4 km/h (2 Bft)
01.11.2018 02:00 8,9 °C 70 % 1013,7 hPa 0,0 mm 1,1 km/h (1 Bft) S-SO 156 ° 0 min 0,000 mm 0,0 UV-I 0 W/m² 3,7 °C 8,9 °C 3,2 km/h (1 Bft)
01.11.2018 02:01 8,9 °C 69 % 1013,7 hPa 0,0 mm 3,1 km/h (1 Bft) O-SO 113 ° 0 min 0,026 mm 0,0 UV-I 0 W/m² 3,5 °C 8,9 °C 4,8 km/h (1 Bft)
01.11.2018 02:02 9,0 °C 69 % 1013,7 hPa 0,0 mm 1,8 km/h (1 Bft) NW 309 ° 0 min 0,000 mm 0,0 UV-I 0 W/m² 3,6 °C 9,0 °C 4,8 km/h (1 Bft)
01.11.2018 02:03 9,0 °C 69 % 1013,6 hPa 0,0 mm 0,5 km/h (0 Bft) W-NW 294 ° 0 min 0,000 mm 0,0 UV-I 0 W/m² 3,6 °C 9,0 °C 1,6 km/h (1 Bft)
01.11.2018 02:04 9,0 °C 68 % 1013,7 hPa 0,0 mm 0,1 km/h (0 Bft) W-NW 294 ° 0 min 0,000 mm 0,0 UV-I 0 W/m² 3,4 °C 9,0 °C 1,6 km/h (1 Bft)
01.11.2018 02:05 9,1 °C 69 % 1013,6 hPa 0,0 mm 0,3 km/h (0 Bft) W-NW 294 ° 0 min 0,000 mm 0,0 UV-I 0 W/m² 3,7 °C 9,1 °C 1,6 km/h (1 Bft)
01.11.2018 02:06 9,0 °C 69 % 1013,6 hPa 0,0 mm 0,9 km/h (0 Bft) S-SW 207 ° 0 min 0,000 mm 0,0 UV-I 0 W/m² 3,6 °C 9,0 °C 3,2 km/h (1 Bft)
01.11.2018 02:07 8,9 °C 69 % 1013,6 hPa 0,0 mm 0,5 km/h (0 Bft) S-SW 207 ° 0 min 0,000 mm 0,0 UV-I 0 W/m² 3,5 °C 8,9 °C 3,2 km/h (1 Bft)
01.11.2018 02:08 8,9 °C 69 % 1013,6 hPa 0,0 mm 0,3 km/h (0 Bft) S-SW 207 ° 0 min 0,000 mm 0,0 UV-I 0 W/m² 3,5 °C 8,9 °C 1,6 km/h (1 Bft)
01.11.2018 02:09 8,9 °C 68 % 1013,7 hPa 0,0 mm 1,5 km/h (1 Bft) N-NW 339 ° 0 min 0,000 mm 0,0 UV-I 0 W/m² 3,3 °C 8,9 °C 4,8 km/h (1 Bft)
01.11.2018 02:10 8,9 °C 69 % 1013,6 hPa 0,0 mm 0,2 km/h (0 Bft) N-NW 339 ° 0 min 0,000 mm 0,0 UV-I 0 W/m² 3,5 °C 8,9 °C 1,6 km/h (1 Bft)
01.11.2018 02:11 8,9 °C 70 % 1013,6 hPa 0,0 mm 0,3 km/h (0 Bft) N-NW 339 ° 0 min 0,000 mm 0,0 UV-I 0 W/m² 3,7 °C 8,9 °C 1,6 km/h (1 Bft)
01.11.2018 02:12 8,9 °C 70 % 1013,6 hPa 0,0 mm 0,0 km/h (0 Bft) N-NW 339 ° 0 min 0,000 mm 0,0 UV-I 0 W/m² 3,7 °C 8,9 °C 0,0 km/h (0 Bft)
01.11.2018 02:13 8,8 °C 71 % 1013,7 hPa 0,0 mm 1,5 km/h (1 Bft) NO 51 ° 0 min 0,000 mm 0,0 UV-I 0 W/m² 3,8 °C 8,8 °C 6,4 km/h (2 Bft)
01.11.2018 02:14 8,8 °C 70 % 1013,6 hPa 0,0 mm 2,8 km/h (1 Bft) N-NO 29 ° 0 min 0,000 mm 0,0 UV-I 0 W/m² 3,6 °C 8,8 °C 6,4 km/h (2 Bft)
01.11.2018 02:15 8,7 °C 70 % 1013,7 hPa 0,0 mm 0,0 km/h (0 Bft) N-NO 29 ° 0 min 0,000 mm 0,0 UV-I 0 W/m² 3,5 °C 8,7 °C 0,0 km/h (0 Bft)
01.11.2018 02:16 8,7 °C 70 % 1013,7 hPa 0,0 mm 0,0 km/h (0 Bft) N-NO 29 ° 0 min 0,000 mm 0,0 UV-I 0 W/m² 3,5 °C 8,7 °C 0,0 km/h (0 Bft)
01.11.2018 02:17 8,8 °C 69 % 1013,6 hPa 0,0 mm 0,0 km/h (0 Bft) N-NO 29 ° 0 min 0,000 mm 0,0 UV-I 0 W/m² 3,4 °C 8,8 °C 0,0 km/h (0 Bft)
01.11.2018 02:18 8,7 °C 69 % 1013,6 hPa 0,0 mm 1,6 km/h (1 Bft) SW 220 ° 0 min 0,000 mm 0,0 UV-I 0 W/m² 3,3 °C 8,7 °C 4,8 km/h (1 Bft)
01.11.2018 02:19 8,7 °C 69 % 1013,6 hPa 0,0 mm 0,3 km/h (0 Bft) SW 221 ° 0 min 0,000 mm 0,0 UV-I 0 W/m² 3,3 °C 8,7 °C 1,6 km/h (1 Bft)
01.11.2018 02:20 8,7 °C 70 % 1013,6 hPa 0,0 mm 0,1 km/h (0 Bft) SW 221 ° 0 min 0,000 mm 0,0 UV-I 0 W/m² 3,5 °C 8,7 °C 1,6 km/h (1 Bft)
01.11.2018 02:21 8,7 °C 70 % 1013,6 hPa 0,0 mm 0,0 km/h (0 Bft) SW 221 ° 0 min 0,000 mm 0,0 UV-I 0 W/m² 3,5 °C 8,7 °C 0,0 km/h (0 Bft)
01.11.2018 02:22 8,7 °C 70 % 1013,5 hPa 0,0 mm 0,1 km/h (0 Bft) SW 220 ° 0 min 0,000 mm 0,0 UV-I 0 W/m² 3,5 °C 8,7 °C 1,6 km/h (1 Bft)
01.11.2018 02:23 8,6 °C 71 % 1013,5 hPa 0,0 mm 0,2 km/h (0 Bft) W-SW 242 ° 0 min 0,000 mm 0,0 UV-I 0 W/m² 3,6 °C 8,6 °C 1,6 km/h (1 Bft)
01.11.2018 02:24 8,5 °C 71 % 1013,6 hPa 0,0 mm 0,1 km/h (0 Bft) W-SW 242 ° 0 min 0,000 mm 0,0 UV-I 0 W/m² 3,5 °C 8,5 °C 1,6 km/h (1 Bft)
01.11.2018 02:25 8,4 °C 71 % 1013,6 hPa 0,0 mm 0,3 km/h (0 Bft) N-NO 26 ° 0 min 0,000 mm 0,0 UV-I 0 W/m² 3,5 °C 8,4 °C 1,6 km/h (1 Bft)
01.11.2018 02:26 8,4 °C 71 % 1013,7 hPa 0,0 mm 1,5 km/h (1 Bft) N-NW 327 ° 0 min 0,000 mm 0,0 UV-I 0 W/m² 3,5 °C 8,4 °C 8,0 km/h (2 Bft)
01.11.2018 02:27 8,4 °C 71 % 1013,7 hPa 0,0 mm 4,4 km/h (1 Bft) N-NW 327 ° 0 min 0,000 mm 0,0 UV-I 0 W/m² 3,5 °C 8,4 °C 8,0 km/h (2 Bft)
01.11.2018 02:28 8,4 °C 71 % 1013,8 hPa 0,0 mm 2,6 km/h (1 Bft) O-SO 120 ° 0 min 0,000 mm 0,0 UV-I 0 W/m² 3,5 °C 8,4 °C 4,8 km/h (1 Bft)
01.11.2018 02:29 8,4 °C 71 % 1013,8 hPa 0,0 mm 2,1 km/h (1 Bft) N-NO 24 ° 0 min 0,000 mm 0,0 UV-I 0 W/m² 3,5 °C 8,4 °C 6,4 km/h (2 Bft)
01.11.2018 02:30 8,3 °C 71 % 1013,7 hPa 0,0 mm 4,7 km/h (1 Bft) W-SW 240 ° 0 min 0,000 mm 0,0 UV-I 0 W/m² 3,4 °C 7,9 °C 11,3 km/h (2 Bft)
01.11.2018 02:31 8,4 °C 69 % 1013,7 hPa 0,0 mm 8,3 km/h (2 Bft) W-SW 252 ° 0 min 0,000 mm 0,0 UV-I 0 W/m² 3,0 °C 7,1 °C 12,9 km/h (3 Bft)
01.11.2018 02:32 8,7 °C 68 % 1013,7 hPa 0,0 mm 8,6 km/h (2 Bft) W 266 ° 0 min 0,000 mm 0,0 UV-I 0 W/m² 3,1 °C 7,4 °C 14,5 km/h (3 Bft)
01.11.2018 02:33 8,9 °C 67 % 1013,7 hPa 0,0 mm 9,4 km/h (2 Bft) W-NW 285 ° 0 min 0,000 mm 0,0 UV-I 0 W/m² 3,1 °C 7,4 °C 17,7 km/h (3 Bft)
01.11.2018 02:34 9,2 °C 65 % 1013,6 hPa 0,0 mm 6,5 km/h (2 Bft) W-SW 254 ° 0 min 0,000 mm 0,0 UV-I 0 W/m² 3,0 °C 8,4 °C 9,7 km/h (2 Bft)
01.11.2018 02:35 9,4 °C 65 % 1013,7 hPa 0,0 mm 5,3 km/h (1 Bft) W 267 ° 0 min 0,000 mm 0,0 UV-I 0 W/m² 3,2 °C 9,0 °C 11,3 km/h (2 Bft)
01.11.2018 02:36 9,6 °C 64 % 1013,7 hPa 0,0 mm 7,4 km/h (2 Bft) S-SW 212 ° 0 min 0,000 mm 0,0 UV-I 0 W/m² 3,1 °C 8,7 °C 11,3 km/h (2 Bft)
01.11.2018 02:37 9,7 °C 64 % 1013,7 hPa 0,0 mm 7,5 km/h (2 Bft) SW 226 ° 0 min 0,000 mm 0,0 UV-I 0 W/m² 3,2 °C 8,8 °C 12,9 km/h (3 Bft)
01.11.2018 02:38 9,9 °C 63 % 1013,7 hPa 0,0 mm 3,0 km/h (1 Bft) W-SW 256 ° 0 min 0,000 mm 0,0 UV-I 0 W/m² 3,2 °C 9,9 °C 6,4 km/h (2 Bft)
01.11.2018 02:39 9,9 °C 64 % 1013,7 hPa 0,0 mm 1,0 km/h (0 Bft) W-SW 256 ° 0 min 0,000 mm 0,0 UV-I 0 W/m² 3,4 °C 9,9 °C 3,2 km/h (1 Bft)
01.11.2018 02:40 9,9 °C 64 % 1013,7 hPa 0,0 mm 1,3 km/h (1 Bft) SW 236 ° 0 min 0,000 mm 0,0 UV-I 0 W/m² 3,4 °C 9,9 °C 3,2 km/h (1 Bft)
01.11.2018 02:41 9,9 °C 64 % 1013,7 hPa 0,0 mm 2,2 km/h (1 Bft) SW 228 ° 0 min 0,000 mm 0,0 UV-I 0 W/m² 3,4 °C 9,9 °C 4,8 km/h (1 Bft)
01.11.2018 02:42 9,8 °C 65 % 1013,6 hPa 0,0 mm 0,0 km/h (0 Bft) SW 228 ° 0 min 0,000 mm 0,0 UV-I 0 W/m² 3,5 °C 9,8 °C 0,0 km/h (0 Bft)
01.11.2018 02:43 9,7 °C 66 % 1013,6 hPa 0,0 mm 0,0 km/h (0 Bft) SW 228 ° 0 min 0,000 mm 0,0 UV-I 0 W/m² 3,7 °C 9,7 °C 0,0 km/h (0 Bft)
01.11.2018 02:44 9,6 °C 67 % 1013,5 hPa 0,0 mm 0,0 km/h (0 Bft) SW 228 ° 0 min 0,000 mm 0,0 UV-I 0 W/m² 3,8 °C 9,6 °C 0,0 km/h (0 Bft)
01.11.2018 02:45 9,4 °C 67 % 1013,5 hPa 0,0 mm 1,3 km/h (1 Bft) SO 129 ° 0 min 0,000 mm 0,0 UV-I 0 W/m² 3,6 °C 9,4 °C 3,2 km/h (1 Bft)
01.11.2018 02:46 9,3 °C 66 % 1013,5 hPa 0,0 mm 0,7 km/h (0 Bft) SO 129 ° 0 min 0,000 mm 0,0 UV-I 0 W/m² 3,3 °C 9,3 °C 3,2 km/h (1 Bft)
01.11.2018 02:47 9,3 °C 66 % 1013,4 hPa 0,0 mm 0,0 km/h (0 Bft) SO 125 ° 0 min 0,000 mm 0,0 UV-I 0 W/m² 3,3 °C 9,3 °C 0,0 km/h (0 Bft)
01.11.2018 02:48 9,2 °C 68 % 1013,4 hPa 0,0 mm 0,1 km/h (0 Bft) SO 125 ° 0 min 0,000 mm 0,0 UV-I 0 W/m² 3,6 °C 9,2 °C 1,6 km/h (1 Bft)
01.11.2018 02:49 9,1 °C 68 % 1013,3 hPa 0,0 mm 0,3 km/h (0 Bft) S-SW 210 ° 0 min 0,000 mm 0,0 UV-I 0 W/m² 3,5 °C 9,1 °C 1,6 km/h (1 Bft)
01.11.2018 02:50 9,1 °C 67 % 1013,3 hPa 0,0 mm 2,1 km/h (1 Bft) W-SW 251 ° 0 min 0,000 mm 0,0 UV-I 0 W/m² 3,3 °C 9,1 °C 4,8 km/h (1 Bft)
01.11.2018 02:51 9,0 °C 67 % 1013,2 hPa 0,0 mm 0,7 km/h (0 Bft) W-SW 251 ° 0 min 0,000 mm 0,0 UV-I 0 W/m² 3,2 °C 9,0 °C 3,2 km/h (1 Bft)
01.11.2018 02:52 8,9 °C 69 % 1013,3 hPa 0,0 mm 0,1 km/h (0 Bft) W-SW 251 ° 0 min 0,000 mm 0,0 UV-I 0 W/m² 3,5 °C 8,9 °C 1,6 km/h (1 Bft)
01.11.2018 02:53 8,8 °C 69 % 1013,3 hPa 0,0 mm 0,0 km/h (0 Bft) W-SW 251 ° 0 min 0,000 mm 0,0 UV-I 0 W/m² 3,4 °C 8,8 °C 0,0 km/h (0 Bft)
01.11.2018 02:54 8,8 °C 68 % 1013,4 hPa 0,0 mm 0,0 km/h (0 Bft) W-SW 251 ° 0 min 0,000 mm 0,0 UV-I 0 W/m² 3,2 °C 8,8 °C 0,0 km/h (0 Bft)
01.11.2018 02:55 8,8 °C 69 % 1013,1 hPa 0,0 mm 0,9 km/h (0 Bft) W 278 ° 0 min 0,000 mm 0,0 UV-I 0 W/m² 3,4 °C 8,8 °C 3,2 km/h (1 Bft)
01.11.2018 02:56 8,8 °C 69 % 1013,1 hPa 0,0 mm 1,1 km/h (1 Bft) W 278 ° 0 min 0,000 mm 0,0 UV-I 0 W/m² 3,4 °C 8,8 °C 3,2 km/h (1 Bft)
01.11.2018 02:57 8,7 °C 69 % 1013,0 hPa 0,0 mm 0,7 km/h (0 Bft) W 278 ° 0 min 0,000 mm 0,0 UV-I 0 W/m² 3,3 °C 8,7 °C 1,6 km/h (1 Bft)
01.11.2018 02:58 8,7 °C 69 % 1013,0 hPa 0,0 mm 0,5 km/h (0 Bft) S-SW 196 ° 0 min 0,000 mm 0,0 UV-I 0 W/m² 3,3 °C 8,7 °C 3,2 km/h (1 Bft)
01.11.2018 02:59 8,6 °C 69 % 1013,0 hPa 0,0 mm 1,1 km/h (1 Bft) N-NW 336 ° 0 min 0,000 mm 0,0 UV-I 0 W/m² 3,2 °C 8,6 °C 3,2 km/h (1 Bft)
01.11.2018 03:00 8,6 °C 69 % 1013,1 hPa 0,0 mm 4,2 km/h (1 Bft) SW 235 ° 0 min 0,025 mm 0,0 UV-I 0 W/m² 3,2 °C 8,6 °C 8,0 km/h (2 Bft)
01.11.2018 03:01 8,6 °C 68 % 1013,1 hPa 0,0 mm 3,4 km/h (1 Bft) SW 220 ° 0 min 0,000 mm 0,0 UV-I 0 W/m² 3,0 °C 8,6 °C 6,4 km/h (2 Bft)
01.11.2018 03:02 8,8 °C 67 % 1013,0 hPa 0,0 mm 4,7 km/h (1 Bft) S-SW 207 ° 0 min 0,000 mm 0,0 UV-I 0 W/m² 3,0 °C 8,5 °C 11,3 km/h (2 Bft)
01.11.2018 03:03 8,9 °C 66 % 1013,0 hPa 0,0 mm 2,9 km/h (1 Bft) S 191 ° 0 min 0,000 mm 0,0 UV-I 0 W/m² 2,9 °C 8,9 °C 6,4 km/h (2 Bft)
01.11.2018 03:04 9,1 °C 65 % 1013,0 hPa 0,0 mm 7,0 km/h (2 Bft) SW 214 ° 0 min 0,000 mm 0,0 UV-I 0 W/m² 2,9 °C 8,2 °C 11,3 km/h (2 Bft)
01.11.2018 03:05 9,3 °C 67 % 1013,1 hPa 0,0 mm 3,5 km/h (1 Bft) S-SW 194 ° 0 min 0,000 mm 0,0 UV-I 0 W/m² 3,5 °C 9,3 °C 6,4 km/h (2 Bft)
01.11.2018 03:06 9,3 °C 67 % 1013,1 hPa 0,0 mm 0,7 km/h (0 Bft) SW 224 ° 0 min 0,000 mm 0,0 UV-I 0 W/m² 3,5 °C 9,3 °C 3,2 km/h (1 Bft)
01.11.2018 03:07 9,4 °C 66 % 1013,0 hPa 0,0 mm 1,5 km/h (1 Bft) SW 224 ° 0 min 0,000 mm 0,0 UV-I 0 W/m² 3,4 °C 9,4 °C 4,8 km/h (1 Bft)
01.11.2018 03:08 9,4 °C 66 % 1013,0 hPa 0,0 mm 0,2 km/h (0 Bft) SW 225 ° 0 min 0,000 mm 0,0 UV-I 0 W/m² 3,4 °C 9,4 °C 1,6 km/h (1 Bft)
01.11.2018 03:09 9,3 °C 68 % 1013,0 hPa 0,0 mm 1,3 km/h (1 Bft) N 9 ° 0 min 0,000 mm 0,0 UV-I 0 W/m² 3,7 °C 9,3 °C 3,2 km/h (1 Bft)
01.11.2018 03:10 9,2 °C 69 % 1013,0 hPa 0,0 mm 4,7 km/h (1 Bft) SO 136 ° 0 min 0,000 mm 0,0 UV-I 0 W/m² 3,8 °C 8,9 °C 12,9 km/h (3 Bft)
01.11.2018 03:11 9,1 °C 68 % 1012,9 hPa 0,0 mm 1,7 km/h (1 Bft) S-SO 150 ° 0 min 0,000 mm 0,0 UV-I 0 W/m² 3,5 °C 9,1 °C 6,4 km/h (2 Bft)
01.11.2018 03:12 9,0 °C 68 % 1012,8 hPa 0,0 mm 1,8 km/h (1 Bft) N-NW 331 ° 0 min 0,000 mm 0,0 UV-I 0 W/m² 3,4 °C 9,0 °C 6,4 km/h (2 Bft)
01.11.2018 03:13 9,1 °C 67 % 1012,8 hPa 0,0 mm 2,4 km/h (1 Bft) NW 315 ° 0 min 0,000 mm 0,0 UV-I 0 W/m² 3,3 °C 9,1 °C 4,8 km/h (1 Bft)
01.11.2018 03:14 9,0 °C 67 % 1012,7 hPa 0,0 mm 0,9 km/h (0 Bft) NW 314 ° 0 min 0,000 mm 0,0 UV-I 0 W/m² 3,2 °C 9,0 °C 3,2 km/h (1 Bft)
01.11.2018 03:15 9,0 °C 68 % 1012,7 hPa 0,0 mm 1,0 km/h (0 Bft) NW 317 ° 0 min 0,000 mm 0,0 UV-I 0 W/m² 3,4 °C 9,0 °C 3,2 km/h (1 Bft)
01.11.2018 03:16 8,9 °C 68 % 1012,6 hPa 0,0 mm 0,5 km/h (0 Bft) NW 317 ° 0 min 0,000 mm 0,0 UV-I 0 W/m² 3,3 °C 8,9 °C 3,2 km/h (1 Bft)
01.11.2018 03:17 8,9 °C 68 % 1012,7 hPa 0,0 mm 2,5 km/h (1 Bft) N-NW 338 ° 0 min 0,000 mm 0,0 UV-I 0 W/m² 3,3 °C 8,9 °C 4,8 km/h (1 Bft)
01.11.2018 03:18 8,9 °C 68 % 1012,7 hPa 0,0 mm 1,2 km/h (1 Bft) NO 44 ° 0 min 0,000 mm 0,0 UV-I 0 W/m² 3,3 °C 8,9 °C 3,2 km/h (1 Bft)
01.11.2018 03:19 8,9 °C 67 % 1012,7 hPa 0,0 mm 0,4 km/h (0 Bft) O-NO 74 ° 0 min 0,000 mm 0,0 UV-I 0 W/m² 3,1 °C 8,9 °C 1,6 km/h (1 Bft)
01.11.2018 03:20 8,9 °C 68 % 1012,7 hPa 0,0 mm 0,8 km/h (0 Bft) N-NW 346 ° 0 min 0,000 mm 0,0 UV-I 0 W/m² 3,3 °C 8,9 °C 1,6 km/h (1 Bft)
01.11.2018 03:21 8,9 °C 67 % 1012,6 hPa 0,0 mm 3,4 km/h (1 Bft) W-NW 300 ° 0 min 0,000 mm 0,0 UV-I 0 W/m² 3,1 °C 8,9 °C 8,0 km/h (2 Bft)
01.11.2018 03:22 9,1 °C 65 % 1012,6 hPa 0,0 mm 0,9 km/h (0 Bft) N 355 ° 0 min 0,000 mm 0,0 UV-I 0 W/m² 2,9 °C 9,1 °C 4,8 km/h (1 Bft)
01.11.2018 03:23 9,1 °C 66 % 1012,6 hPa 0,0 mm 1,1 km/h (1 Bft) N 355 ° 0 min 0,000 mm 0,0 UV-I 0 W/m² 3,1 °C 9,1 °C 3,2 km/h (1 Bft)
01.11.2018 03:24 9,2 °C 65 % 1012,5 hPa 0,0 mm 2,6 km/h (1 Bft) N-NW 348 ° 0 min 0,000 mm 0,0 UV-I 0 W/m² 3,0 °C 9,2 °C 3,2 km/h (1 Bft)
01.11.2018 03:25 9,3 °C 65 % 1012,7 hPa 0,0 mm 3,5 km/h (1 Bft) NW 325 ° 0 min 0,000 mm 0,0 UV-I 0 W/m² 3,1 °C 9,3 °C 6,4 km/h (2 Bft)
01.11.2018 03:26 9,3 °C 65 % 1012,6 hPa 0,0 mm 2,3 km/h (1 Bft) N-NW 336 ° 0 min 0,000 mm 0,0 UV-I 0 W/m² 3,1 °C 9,3 °C 6,4 km/h (2 Bft)
01.11.2018 03:27 9,3 °C 67 % 1012,7 hPa 0,0 mm 3,1 km/h (1 Bft) W-NW 297 ° 0 min 0,000 mm 0,0 UV-I 0 W/m² 3,5 °C 9,3 °C 4,8 km/h (1 Bft)
01.11.2018 03:28 9,3 °C 66 % 1012,7 hPa 0,0 mm 2,4 km/h (1 Bft) W-NW 299 ° 0 min 0,000 mm 0,0 UV-I 0 W/m² 3,3 °C 9,3 °C 4,8 km/h (1 Bft)
01.11.2018 03:29 9,3 °C 67 % 1012,7 hPa 0,0 mm 1,7 km/h (1 Bft) O 84 ° 0 min 0,000 mm 0,0 UV-I 0 W/m² 3,5 °C 9,3 °C 4,8 km/h (1 Bft)
01.11.2018 03:30 9,2 °C 66 % 1012,7 hPa 0,0 mm 0,8 km/h (0 Bft) O 84 ° 0 min 0,000 mm 0,0 UV-I 0 W/m² 3,2 °C 9,2 °C 3,2 km/h (1 Bft)
01.11.2018 03:31 9,2 °C 66 % 1012,8 hPa 0,0 mm 2,2 km/h (1 Bft) NW 321 ° 0 min 0,000 mm 0,0 UV-I 0 W/m² 3,2 °C 9,2 °C 6,4 km/h (2 Bft)
01.11.2018 03:32 9,2 °C 66 % 1012,7 hPa 0,0 mm 4,9 km/h (1 Bft) S-SW 198 ° 0 min 0,000 mm 0,0 UV-I 0 W/m² 3,2 °C 8,9 °C 11,3 km/h (2 Bft)
01.11.2018 03:33 9,2 °C 66 % 1012,7 hPa 0,0 mm 2,1 km/h (1 Bft) W-NW 298 ° 0 min 0,000 mm 0,0 UV-I 0 W/m² 3,2 °C 9,2 °C 6,4 km/h (2 Bft)
01.11.2018 03:34 9,2 °C 66 % 1012,7 hPa 0,0 mm 4,6 km/h (1 Bft) N-NW 336 ° 0 min 0,000 mm 0,0 UV-I 0 W/m² 3,2 °C 9,0 °C 6,4 km/h (2 Bft)
01.11.2018 03:35 9,2 °C 66 % 1012,7 hPa 0,0 mm 5,2 km/h (1 Bft) NW 311 ° 0 min 0,000 mm 0,0 UV-I 0 W/m² 3,2 °C 8,8 °C 6,4 km/h (2 Bft)
01.11.2018 03:36 9,2 °C 66 % 1012,7 hPa 0,0 mm 2,5 km/h (1 Bft) N 355 ° 0 min 0,000 mm 0,0 UV-I 0 W/m² 3,2 °C 9,2 °C 6,4 km/h (2 Bft)
01.11.2018 03:37 9,2 °C 66 % 1012,7 hPa 0,0 mm 4,6 km/h (1 Bft) N-NO 17 ° 0 min 0,000 mm 0,0 UV-I 0 W/m² 3,2 °C 9,0 °C 8,0 km/h (2 Bft)
01.11.2018 03:38 9,1 °C 66 % 1012,6 hPa 0,0 mm 4,6 km/h (1 Bft) N-NW 333 ° 0 min 0,000 mm 0,0 UV-I 0 W/m² 3,1 °C 8,9 °C 6,4 km/h (2 Bft)
01.11.2018 03:39 9,0 °C 67 % 1012,6 hPa 0,0 mm 2,4 km/h (1 Bft) N-NW 331 ° 0 min 0,000 mm 0,0 UV-I 0 W/m² 3,2 °C 9,0 °C 4,8 km/h (1 Bft)
01.11.2018 03:40 8,9 °C 67 % 1012,6 hPa 0,0 mm 3,7 km/h (1 Bft) NW 323 ° 0 min 0,000 mm 0,0 UV-I 0 W/m² 3,1 °C 8,9 °C 4,8 km/h (1 Bft)
01.11.2018 03:41 8,9 °C 68 % 1012,6 hPa 0,0 mm 3,6 km/h (1 Bft) NW 320 ° 0 min 0,000 mm 0,0 UV-I 0 W/m² 3,3 °C 8,9 °C 6,4 km/h (2 Bft)
01.11.2018 03:42 8,9 °C 68 % 1012,6 hPa 0,0 mm 1,1 km/h (1 Bft) NW 321 ° 0 min 0,000 mm 0,0 UV-I 0 W/m² 3,3 °C 8,9 °C 3,2 km/h (1 Bft)
01.11.2018 03:43 8,9 °C 67 % 1012,5 hPa 0,0 mm 0,9 km/h (0 Bft) NW 320 ° 0 min 0,000 mm 0,0 UV-I 0 W/m² 3,1 °C 8,9 °C 3,2 km/h (1 Bft)
01.11.2018 03:44 9,0 °C 67 % 1012,5 hPa 0,0 mm 0,3 km/h (0 Bft) NW 320 ° 0 min 0,000 mm 0,0 UV-I 0 W/m² 3,2 °C 9,0 °C 1,6 km/h (1 Bft)
01.11.2018 03:45 9,1 °C 68 % 1012,5 hPa 0,0 mm 1,1 km/h (1 Bft) NW 311 ° 0 min 0,000 mm 0,0 UV-I 0 W/m² 3,5 °C 9,1 °C 3,2 km/h (1 Bft)
01.11.2018 03:46 9,1 °C 68 % 1012,6 hPa 0,0 mm 3,9 km/h (1 Bft) S 182 ° 0 min 0,000 mm 0,0 UV-I 0 W/m² 3,5 °C 9,1 °C 9,7 km/h (2 Bft)
01.11.2018 03:47 9,0 °C 67 % 1012,6 hPa 0,0 mm 0,4 km/h (0 Bft) W 277 ° 0 min 0,000 mm 0,0 UV-I 0 W/m² 3,2 °C 9,0 °C 1,6 km/h (1 Bft)
01.11.2018 03:48 9,0 °C 67 % 1012,6 hPa 0,0 mm 5,5 km/h (1 Bft) W 271 ° 0 min 0,000 mm 0,0 UV-I 0 W/m² 3,2 °C 8,5 °C 11,3 km/h (2 Bft)
01.11.2018 03:49 9,0 °C 67 % 1012,6 hPa 0,0 mm 3,4 km/h (1 Bft) W 276 ° 0 min 0,000 mm 0,0 UV-I 0 W/m² 3,2 °C 9,0 °C 9,7 km/h (2 Bft)
01.11.2018 03:50 8,9 °C 68 % 1012,6 hPa 0,0 mm 6,0 km/h (2 Bft) W-SW 250 ° 0 min 0,000 mm 0,0 UV-I 0 W/m² 3,3 °C 8,2 °C 11,3 km/h (2 Bft)
01.11.2018 03:51 8,9 °C 69 % 1012,6 hPa 0,0 mm 2,4 km/h (1 Bft) NW 312 ° 0 min 0,000 mm 0,0 UV-I 0 W/m² 3,5 °C 8,9 °C 4,8 km/h (1 Bft)
01.11.2018 03:52 8,9 °C 68 % 1012,6 hPa 0,0 mm 4,1 km/h (1 Bft) W-NW 293 ° 0 min 0,000 mm 0,0 UV-I 0 W/m² 3,3 °C 8,9 °C 6,4 km/h (2 Bft)
01.11.2018 03:53 8,8 °C 69 % 1012,6 hPa 0,0 mm 2,3 km/h (1 Bft) W 265 ° 0 min 0,000 mm 0,0 UV-I 0 W/m² 3,4 °C 8,8 °C 3,2 km/h (1 Bft)
01.11.2018 03:54 8,9 °C 69 % 1012,4 hPa 0,0 mm 0,4 km/h (0 Bft) W 267 ° 0 min 0,000 mm 0,0 UV-I 0 W/m² 3,5 °C 8,9 °C 1,6 km/h (1 Bft)
01.11.2018 03:55 8,9 °C 69 % 1012,4 hPa 0,0 mm 0,5 km/h (0 Bft) W 268 ° 0 min 0,000 mm 0,0 UV-I 0 W/m² 3,5 °C 8,9 °C 1,6 km/h (1 Bft)
01.11.2018 03:56 8,9 °C 69 % 1012,4 hPa 0,0 mm 0,1 km/h (0 Bft) W 269 ° 0 min 0,000 mm 0,0 UV-I 0 W/m² 3,5 °C 8,9 °C 1,6 km/h (1 Bft)
01.11.2018 03:57 8,9 °C 69 % 1012,3 hPa 0,0 mm 1,7 km/h (1 Bft) NW 308 ° 0 min 0,000 mm 0,0 UV-I 0 W/m² 3,5 °C 8,9 °C 3,2 km/h (1 Bft)
01.11.2018 03:58 8,9 °C 69 % 1012,2 hPa 0,0 mm 4,0 km/h (1 Bft) W 277 ° 0 min 0,000 mm 0,0 UV-I 0 W/m² 3,5 °C 8,9 °C 6,4 km/h (2 Bft)
01.11.2018 03:59 8,9 °C 68 % 1012,1 hPa 0,0 mm 1,9 km/h (1 Bft) W 278 ° 0 min 0,000 mm 0,0 UV-I 0 W/m² 3,3 °C 8,9 °C 4,8 km/h (1 Bft)
01.11.2018 04:00 8,9 °C 68 % 1012,0 hPa 0,0 mm 1,1 km/h (1 Bft) W 280 ° 0 min 0,026 mm 0,0 UV-I 0 W/m² 3,3 °C 8,9 °C 3,2 km/h (1 Bft)
01.11.2018 04:01 8,8 °C 69 % 1012,0 hPa 0,0 mm 0,3 km/h (0 Bft) W 280 ° 0 min 0,000 mm 0,0 UV-I 0 W/m² 3,4 °C 8,8 °C 1,6 km/h (1 Bft)
01.11.2018 04:02 8,8 °C 69 % 1012,0 hPa 0,0 mm 1,9 km/h (1 Bft) O 99 ° 0 min 0,000 mm 0,0 UV-I 0 W/m² 3,4 °C 8,8 °C 6,4 km/h (2 Bft)
01.11.2018 04:03 8,8 °C 69 % 1011,9 hPa 0,0 mm 0,5 km/h (0 Bft) N-NO 31 ° 0 min 0,000 mm 0,0 UV-I 0 W/m² 3,4 °C 8,8 °C 3,2 km/h (1 Bft)
01.11.2018 04:04 8,8 °C 68 % 1011,8 hPa 0,0 mm 1,0 km/h (0 Bft) N 355 ° 0 min 0,000 mm 0,0 UV-I 0 W/m² 3,2 °C 8,8 °C 3,2 km/h (1 Bft)
01.11.2018 04:05 8,8 °C 68 % 1011,8 hPa 0,0 mm 1,9 km/h (1 Bft) W-NW 292 ° 0 min 0,000 mm 0,0 UV-I 0 W/m² 3,2 °C 8,8 °C 4,8 km/h (1 Bft)
01.11.2018 04:06 8,8 °C 68 % 1011,7 hPa 0,0 mm 2,5 km/h (1 Bft) W-NW 300 ° 0 min 0,000 mm 0,0 UV-I 0 W/m² 3,2 °C 8,8 °C 4,8 km/h (1 Bft)
01.11.2018 04:07 8,9 °C 68 % 1011,8 hPa 0,0 mm 0,0 km/h (0 Bft) W-NW 286 ° 0 min 0,000 mm 0,0 UV-I 0 W/m² 3,3 °C 8,9 °C 0,0 km/h (0 Bft)
01.11.2018 04:08 8,9 °C 69 % 1011,8 hPa 0,0 mm 2,5 km/h (1 Bft) W-SW 245 ° 0 min 0,000 mm 0,0 UV-I 0 W/m² 3,5 °C 8,9 °C 6,4 km/h (2 Bft)
01.11.2018 04:09 8,9 °C 68 % 1011,6 hPa 0,0 mm 2,5 km/h (1 Bft) W-NW 290 ° 0 min 0,000 mm 0,0 UV-I 0 W/m² 3,3 °C 8,9 °C 4,8 km/h (1 Bft)
01.11.2018 04:10 8,9 °C 68 % 1011,6 hPa 0,0 mm 1,8 km/h (1 Bft) W-NW 298 ° 0 min 0,000 mm 0,0 UV-I 0 W/m² 3,3 °C 8,9 °C 6,4 km/h (2 Bft)
01.11.2018 04:11 8,9 °C 68 % 1011,5 hPa 0,0 mm 4,2 km/h (1 Bft) W-NW 289 ° 0 min 0,000 mm 0,0 UV-I 0 W/m² 3,3 °C 8,9 °C 9,7 km/h (2 Bft)
01.11.2018 04:12 8,9 °C 69 % 1011,4 hPa 0,0 mm 2,0 km/h (1 Bft) N-NW 338 ° 0 min 0,000 mm 0,0 UV-I 0 W/m² 3,5 °C 8,9 °C 4,8 km/h (1 Bft)
01.11.2018 04:13 9,0 °C 69 % 1011,4 hPa 0,0 mm 0,4 km/h (0 Bft) N-NW 339 ° 0 min 0,000 mm 0,0 UV-I 0 W/m² 3,6 °C 9,0 °C 3,2 km/h (1 Bft)
01.11.2018 04:14 9,0 °C 69 % 1011,4 hPa 0,0 mm 0,7 km/h (0 Bft) N-NW 338 ° 0 min 0,000 mm 0,0 UV-I 0 W/m² 3,6 °C 9,0 °C 3,2 km/h (1 Bft)
01.11.2018 04:15 9,0 °C 69 % 1011,4 hPa 0,0 mm 3,7 km/h (1 Bft) N 5 ° 0 min 0,000 mm 0,0 UV-I 0 W/m² 3,6 °C 9,0 °C 8,0 km/h (2 Bft)
01.11.2018 04:16 9,0 °C 67 % 1011,3 hPa 0,0 mm 5,7 km/h (1 Bft) W 265 ° 0 min 0,000 mm 0,0 UV-I 0 W/m² 3,2 °C 8,4 °C 8,0 km/h (2 Bft)
01.11.2018 04:17 9,1 °C 66 % 1011,3 hPa 0,0 mm 2,6 km/h (1 Bft) NW 323 ° 0 min 0,000 mm 0,0 UV-I 0 W/m² 3,1 °C 9,1 °C 6,4 km/h (2 Bft)
01.11.2018 04:18 9,3 °C 67 % 1011,3 hPa 0,0 mm 4,6 km/h (1 Bft) N-NW 338 ° 0 min 0,000 mm 0,0 UV-I 0 W/m² 3,5 °C 9,1 °C 9,7 km/h (2 Bft)
01.11.2018 04:19 9,3 °C 66 % 1011,3 hPa 0,0 mm 3,4 km/h (1 Bft) W-NW 288 ° 0 min 0,000 mm 0,0 UV-I 0 W/m² 3,3 °C 9,3 °C 8,0 km/h (2 Bft)
01.11.2018 04:20 9,3 °C 66 % 1011,3 hPa 0,0 mm 4,4 km/h (1 Bft) SW 215 ° 0 min 0,000 mm 0,0 UV-I 0 W/m² 3,3 °C 9,3 °C 9,7 km/h (2 Bft)
01.11.2018 04:21 9,3 °C 67 % 1011,3 hPa 0,0 mm 1,2 km/h (1 Bft) W 271 ° 0 min 0,000 mm 0,0 UV-I 0 W/m² 3,5 °C 9,3 °C 3,2 km/h (1 Bft)
01.11.2018 04:22 9,3 °C 67 % 1011,4 hPa 0,0 mm 2,5 km/h (1 Bft) O-SO 103 ° 0 min 0,000 mm 0,0 UV-I 0 W/m² 3,5 °C 9,3 °C 9,7 km/h (2 Bft)
01.11.2018 04:23 9,3 °C 67 % 1011,3 hPa 0,0 mm 3,2 km/h (1 Bft) N-NO 15 ° 0 min 0,000 mm 0,0 UV-I 0 W/m² 3,5 °C 9,3 °C 8,0 km/h (2 Bft)
01.11.2018 04:24 9,4 °C 66 % 1011,4 hPa 0,0 mm 2,9 km/h (1 Bft) NW 313 ° 0 min 0,000 mm 0,0 UV-I 0 W/m² 3,4 °C 9,4 °C 6,4 km/h (2 Bft)
01.11.2018 04:25 9,4 °C 66 % 1011,4 hPa 0,0 mm 4,4 km/h (1 Bft) N-NO 25 ° 0 min 0,000 mm 0,0 UV-I 0 W/m² 3,4 °C 9,4 °C 9,7 km/h (2 Bft)
01.11.2018 04:26 9,4 °C 66 % 1011,4 hPa 0,0 mm 3,4 km/h (1 Bft) N-NW 348 ° 0 min 0,000 mm 0,0 UV-I 0 W/m² 3,4 °C 9,4 °C 6,4 km/h (2 Bft)
01.11.2018 04:27 9,4 °C 66 % 1011,5 hPa 0,0 mm 4,7 km/h (1 Bft) N-NW 335 ° 0 min 0,000 mm 0,0 UV-I 0 W/m² 3,4 °C 9,2 °C 6,4 km/h (2 Bft)
01.11.2018 04:28 9,4 °C 66 % 1011,5 hPa 0,0 mm 1,4 km/h (1 Bft) NW 304 ° 0 min 0,000 mm 0,0 UV-I 0 W/m² 3,4 °C 9,4 °C 3,2 km/h (1 Bft)
01.11.2018 04:29 9,4 °C 66 % 1011,5 hPa 0,0 mm 1,6 km/h (1 Bft) NW 305 ° 0 min 0,000 mm 0,0 UV-I 0 W/m² 3,4 °C 9,4 °C 3,2 km/h (1 Bft)
01.11.2018 04:30 9,4 °C 67 % 1011,5 hPa 0,0 mm 2,5 km/h (1 Bft) W-SW 252 ° 0 min 0,000 mm 0,0 UV-I 0 W/m² 3,6 °C 9,4 °C 4,8 km/h (1 Bft)
01.11.2018 04:31 9,5 °C 66 % 1011,5 hPa 0,0 mm 2,7 km/h (1 Bft) N 351 ° 0 min 0,000 mm 0,0 UV-I 0 W/m² 3,5 °C 9,5 °C 8,0 km/h (2 Bft)
01.11.2018 04:32 9,6 °C 65 % 1011,5 hPa 0,0 mm 5,1 km/h (1 Bft) W-SW 251 ° 0 min 0,000 mm 0,0 UV-I 0 W/m² 3,4 °C 9,3 °C 8,0 km/h (2 Bft)
01.11.2018 04:33 9,6 °C 66 % 1011,6 hPa 0,0 mm 1,6 km/h (1 Bft) W-SW 252 ° 0 min 0,000 mm 0,0 UV-I 0 W/m² 3,6 °C 9,6 °C 4,8 km/h (1 Bft)
01.11.2018 04:34 9,5 °C 67 % 1011,6 hPa 0,0 mm 2,7 km/h (1 Bft) N-NW 348 ° 0 min 0,000 mm 0,0 UV-I 0 W/m² 3,7 °C 9,5 °C 4,8 km/h (1 Bft)
01.11.2018 04:35 9,4 °C 67 % 1011,6 hPa 0,0 mm 1,8 km/h (1 Bft) N-NO 17 ° 0 min 0,000 mm 0,0 UV-I 0 W/m² 3,6 °C 9,4 °C 6,4 km/h (2 Bft)
01.11.2018 04:36 9,3 °C 68 % 1011,6 hPa 0,0 mm 0,6 km/h (0 Bft) N-NO 17 ° 0 min 0,000 mm 0,0 UV-I 0 W/m² 3,7 °C 9,3 °C 1,6 km/h (1 Bft)
01.11.2018 04:37 9,2 °C 68 % 1011,6 hPa 0,0 mm 0,6 km/h (0 Bft) N-NO 17 ° 0 min 0,000 mm 0,0 UV-I 0 W/m² 3,6 °C 9,2 °C 1,6 km/h (1 Bft)
01.11.2018 04:38 9,2 °C 68 % 1011,6 hPa 0,0 mm 2,9 km/h (1 Bft) N 355 ° 0 min 0,000 mm 0,0 UV-I 0 W/m² 3,6 °C 9,2 °C 4,8 km/h (1 Bft)
01.11.2018 04:39 9,1 °C 68 % 1011,6 hPa 0,0 mm 2,2 km/h (1 Bft) N 355 ° 0 min 0,000 mm 0,0 UV-I 0 W/m² 3,5 °C 9,1 °C 3,2 km/h (1 Bft)
01.11.2018 04:40 9,1 °C 67 % 1011,6 hPa 0,0 mm 2,5 km/h (1 Bft) N-NW 340 ° 0 min 0,000 mm 0,0 UV-I 0 W/m² 3,3 °C 9,1 °C 4,8 km/h (1 Bft)
01.11.2018 04:41 9,1 °C 68 % 1011,6 hPa 0,0 mm 2,8 km/h (1 Bft) W-NW 296 ° 0 min 0,000 mm 0,0 UV-I 0 W/m² 3,5 °C 9,1 °C 6,4 km/h (2 Bft)
01.11.2018 04:42 9,1 °C 69 % 1011,6 hPa 0,0 mm 0,3 km/h (0 Bft) W-NW 296 ° 0 min 0,000 mm 0,0 UV-I 0 W/m² 3,7 °C 9,1 °C 1,6 km/h (1 Bft)
01.11.2018 04:43 9,1 °C 69 % 1011,6 hPa 0,0 mm 1,6 km/h (1 Bft) W 277 ° 0 min 0,000 mm 0,0 UV-I 0 W/m² 3,7 °C 9,1 °C 6,4 km/h (2 Bft)
01.11.2018 04:44 9,0 °C 69 % 1011,6 hPa 0,0 mm 3,0 km/h (1 Bft) NW 317 ° 0 min 0,000 mm 0,0 UV-I 0 W/m² 3,6 °C 9,0 °C 4,8 km/h (1 Bft)
01.11.2018 04:45 9,1 °C 68 % 1011,6 hPa 0,0 mm 0,5 km/h (0 Bft) NW 317 ° 0 min 0,000 mm 0,0 UV-I 0 W/m² 3,5 °C 9,1 °C 3,2 km/h (1 Bft)
01.11.2018 04:46 9,1 °C 69 % 1011,6 hPa 0,0 mm 0,4 km/h (0 Bft) NW 317 ° 0 min 0,000 mm 0,0 UV-I 0 W/m² 3,7 °C 9,1 °C 1,6 km/h (1 Bft)
01.11.2018 04:47 9,1 °C 69 % 1011,5 hPa 0,0 mm 1,3 km/h (1 Bft) NW 305 ° 0 min 0,000 mm 0,0 UV-I 0 W/m² 3,7 °C 9,1 °C 4,8 km/h (1 Bft)
01.11.2018 04:48 9,1 °C 68 % 1011,5 hPa 0,0 mm 3,7 km/h (1 Bft) W-SW 244 ° 0 min 0,000 mm 0,0 UV-I 0 W/m² 3,5 °C 9,1 °C 6,4 km/h (2 Bft)
01.11.2018 04:49 9,1 °C 68 % 1011,5 hPa 0,0 mm 0,1 km/h (0 Bft) W-SW 248 ° 0 min 0,000 mm 0,0 UV-I 0 W/m² 3,5 °C 9,1 °C 1,6 km/h (1 Bft)
01.11.2018 04:50 9,1 °C 69 % 1011,5 hPa 0,0 mm 0,1 km/h (0 Bft) W-SW 248 ° 0 min 0,000 mm 0,0 UV-I 0 W/m² 3,7 °C 9,1 °C 1,6 km/h (1 Bft)
01.11.2018 04:51 9,1 °C 68 % 1011,5 hPa 0,0 mm 0,0 km/h (0 Bft) W-SW 248 ° 0 min 0,000 mm 0,0 UV-I 0 W/m² 3,5 °C 9,1 °C 0,0 km/h (0 Bft)
01.11.2018 04:52 9,1 °C 69 % 1011,4 hPa 0,0 mm 0,7 km/h (0 Bft) W-SW 248 ° 0 min 0,000 mm 0,0 UV-I 0 W/m² 3,7 °C 9,1 °C 1,6 km/h (1 Bft)
01.11.2018 04:53 9,1 °C 69 % 1011,5 hPa 0,0 mm 0,1 km/h (0 Bft) W-SW 248 ° 0 min 0,000 mm 0,0 UV-I 0 W/m² 3,7 °C 9,1 °C 1,6 km/h (1 Bft)
01.11.2018 04:54 8,9 °C 69 % 1011,5 hPa 0,0 mm 0,7 km/h (0 Bft) W-SW 248 ° 0 min 0,000 mm 0,0 UV-I 0 W/m² 3,5 °C 8,9 °C 3,2 km/h (1 Bft)
01.11.2018 04:55 8,9 °C 69 % 1011,5 hPa 0,0 mm 0,5 km/h (0 Bft) W-SW 248 ° 0 min 0,000 mm 0,0 UV-I 0 W/m² 3,5 °C 8,9 °C 3,2 km/h (1 Bft)
01.11.2018 04:56 8,8 °C 69 % 1011,5 hPa 0,0 mm 0,1 km/h (0 Bft) W-SW 248 ° 0 min 0,000 mm 0,0 UV-I 0 W/m² 3,4 °C 8,8 °C 1,6 km/h (1 Bft)
01.11.2018 04:57 8,8 °C 69 % 1011,5 hPa 0,0 mm 2,1 km/h (1 Bft) W-SW 249 ° 0 min 0,000 mm 0,0 UV-I 0 W/m² 3,4 °C 8,8 °C 4,8 km/h (1 Bft)
01.11.2018 04:58 8,9 °C 68 % 1011,4 hPa 0,0 mm 0,0 km/h (0 Bft) W-SW 249 ° 0 min 0,000 mm 0,0 UV-I 0 W/m² 3,3 °C 8,9 °C 0,0 km/h (0 Bft)
01.11.2018 04:59 8,9 °C 69 % 1011,4 hPa 0,0 mm 0,0 km/h (0 Bft) W-SW 249 ° 0 min 0,000 mm 0,0 UV-I 0 W/m² 3,5 °C 8,9 °C 0,0 km/h (0 Bft)
01.11.2018 05:00 8,9 °C 71 % 1011,5 hPa 0,0 mm 0,0 km/h (0 Bft) W-SW 249 ° 0 min 0,025 mm 0,0 UV-I 0 W/m² 3,9 °C 8,9 °C 0,0 km/h (0 Bft)
01.11.2018 05:01 8,8 °C 70 % 1011,3 hPa 0,0 mm 1,0 km/h (0 Bft) O 94 ° 0 min 0,000 mm 0,0 UV-I 0 W/m² 3,6 °C 8,8 °C 3,2 km/h (1 Bft)
01.11.2018 05:02 8,8 °C 69 % 1011,3 hPa 0,0 mm 1,5 km/h (1 Bft) N 355 ° 0 min 0,000 mm 0,0 UV-I 0 W/m² 3,4 °C 8,8 °C 3,2 km/h (1 Bft)
01.11.2018 05:03 8,8 °C 70 % 1011,3 hPa 0,0 mm 2,2 km/h (1 Bft) N-NW 339 ° 0 min 0,000 mm 0,0 UV-I 0 W/m² 3,6 °C 8,8 °C 4,8 km/h (1 Bft)
01.11.2018 05:04 8,8 °C 70 % 1011,3 hPa 0,0 mm 0,4 km/h (0 Bft) N-NW 339 ° 0 min 0,000 mm 0,0 UV-I 0 W/m² 3,6 °C 8,8 °C 1,6 km/h (1 Bft)
01.11.2018 05:05 8,8 °C 70 % 1011,3 hPa 0,0 mm 0,3 km/h (0 Bft) N-NW 340 ° 0 min 0,000 mm 0,0 UV-I 0 W/m² 3,6 °C 8,8 °C 1,6 km/h (1 Bft)
01.11.2018 05:06 8,8 °C 70 % 1011,3 hPa 0,0 mm 2,0 km/h (1 Bft) O-SO 111 ° 0 min 0,000 mm 0,0 UV-I 0 W/m² 3,6 °C 8,8 °C 4,8 km/h (1 Bft)
01.11.2018 05:07 8,8 °C 71 % 1011,2 hPa 0,0 mm 1,9 km/h (1 Bft) N 355 ° 0 min 0,000 mm 0,0 UV-I 0 W/m² 3,8 °C 8,8 °C 6,4 km/h (2 Bft)
01.11.2018 05:08 8,8 °C 69 % 1011,2 hPa 0,0 mm 1,0 km/h (0 Bft) N 355 ° 0 min 0,000 mm 0,0 UV-I 0 W/m² 3,4 °C 8,8 °C 3,2 km/h (1 Bft)
01.11.2018 05:09 8,8 °C 69 % 1011,2 hPa 0,0 mm 2,8 km/h (1 Bft) N 355 ° 0 min 0,000 mm 0,0 UV-I 0 W/m² 3,4 °C 8,8 °C 6,4 km/h (2 Bft)
01.11.2018 05:10 8,8 °C 70 % 1011,2 hPa 0,0 mm 0,4 km/h (0 Bft) N 355 ° 0 min 0,000 mm 0,0 UV-I 0 W/m² 3,6 °C 8,8 °C 1,6 km/h (1 Bft)
01.11.2018 05:11 8,8 °C 69 % 1011,1 hPa 0,0 mm 0,1 km/h (0 Bft) N 355 ° 0 min 0,000 mm 0,0 UV-I 0 W/m² 3,4 °C 8,8 °C 1,6 km/h (1 Bft)
01.11.2018 05:12 8,8 °C 71 % 1011,1 hPa 0,0 mm 0,0 km/h (0 Bft) N 355 ° 0 min 0,000 mm 0,0 UV-I 0 W/m² 3,8 °C 8,8 °C 0,0 km/h (0 Bft)
01.11.2018 05:13 8,8 °C 71 % 1011,0 hPa 0,0 mm 1,3 km/h (1 Bft) N-NW 348 ° 0 min 0,000 mm 0,0 UV-I 0 W/m² 3,8 °C 8,8 °C 3,2 km/h (1 Bft)
01.11.2018 05:14 8,8 °C 70 % 1011,0 hPa 0,0 mm 2,8 km/h (1 Bft) N-NW 348 ° 0 min 0,000 mm 0,0 UV-I 0 W/m² 3,6 °C 8,8 °C 4,8 km/h (1 Bft)
01.11.2018 05:15 8,8 °C 69 % 1010,9 hPa 0,0 mm 0,9 km/h (0 Bft) N-NW 348 ° 0 min 0,000 mm 0,0 UV-I 0 W/m² 3,4 °C 8,8 °C 3,2 km/h (1 Bft)
01.11.2018 05:16 8,9 °C 68 % 1010,9 hPa 0,0 mm 2,4 km/h (1 Bft) N-NW 348 ° 0 min 0,000 mm 0,0 UV-I 0 W/m² 3,3 °C 8,9 °C 3,2 km/h (1 Bft)
01.11.2018 05:17 9,1 °C 69 % 1010,9 hPa 0,0 mm 0,1 km/h (0 Bft) N-NW 348 ° 0 min 0,000 mm 0,0 UV-I 0 W/m² 3,7 °C 9,1 °C 1,6 km/h (1 Bft)
01.11.2018 05:18 9,1 °C 68 % 1010,9 hPa 0,0 mm 1,1 km/h (1 Bft) W 281 ° 0 min 0,000 mm 0,0 UV-I 0 W/m² 3,5 °C 9,1 °C 3,2 km/h (1 Bft)
01.11.2018 05:19 9,2 °C 67 % 1010,9 hPa 0,0 mm 5,1 km/h (1 Bft) W-SW 244 ° 0 min 0,000 mm 0,0 UV-I 0 W/m² 3,4 °C 8,8 °C 9,7 km/h (2 Bft)
01.11.2018 05:20 9,3 °C 67 % 1010,8 hPa 0,0 mm 4,1 km/h (1 Bft) S-SW 212 ° 0 min 0,000 mm 0,0 UV-I 0 W/m² 3,5 °C 9,3 °C 6,4 km/h (2 Bft)
01.11.2018 05:21 9,3 °C 67 % 1010,9 hPa 0,0 mm 2,5 km/h (1 Bft) SW 219 ° 0 min 0,000 mm 0,0 UV-I 0 W/m² 3,5 °C 9,3 °C 4,8 km/h (1 Bft)
01.11.2018 05:22 9,4 °C 67 % 1010,7 hPa 0,0 mm 1,8 km/h (1 Bft) S-SW 212 ° 0 min 0,000 mm 0,0 UV-I 0 W/m² 3,6 °C 9,4 °C 6,4 km/h (2 Bft)
01.11.2018 05:23 9,5 °C 66 % 1010,7 hPa 0,0 mm 4,4 km/h (1 Bft) W-SW 257 ° 0 min 0,000 mm 0,0 UV-I 0 W/m² 3,5 °C 9,5 °C 6,4 km/h (2 Bft)
01.11.2018 05:24 9,6 °C 66 % 1010,7 hPa 0,0 mm 1,7 km/h (1 Bft) NW 311 ° 0 min 0,000 mm 0,0 UV-I 0 W/m² 3,6 °C 9,6 °C 3,2 km/h (1 Bft)
01.11.2018 05:25 9,6 °C 67 % 1010,6 hPa 0,0 mm 1,1 km/h (1 Bft) NW 311 ° 0 min 0,000 mm 0,0 UV-I 0 W/m² 3,8 °C 9,6 °C 3,2 km/h (1 Bft)
01.11.2018 05:26 9,6 °C 67 % 1010,7 hPa 0,0 mm 0,0 km/h (0 Bft) NW 311 ° 0 min 0,000 mm 0,0 UV-I 0 W/m² 3,8 °C 9,6 °C 0,0 km/h (0 Bft)
01.11.2018 05:27 9,6 °C 67 % 1010,7 hPa 0,0 mm 1,0 km/h (0 Bft) N-NW 342 ° 0 min 0,000 mm 0,0 UV-I 0 W/m² 3,8 °C 9,6 °C 3,2 km/h (1 Bft)
01.11.2018 05:28 9,5 °C 68 % 1010,8 hPa 0,0 mm 0,0 km/h (0 Bft) N-NW 342 ° 0 min 0,000 mm 0,0 UV-I 0 W/m² 3,9 °C 9,5 °C 0,0 km/h (0 Bft)
01.11.2018 05:29 9,4 °C 68 % 1010,8 hPa 0,0 mm 0,0 km/h (0 Bft) N-NW 342 ° 0 min 0,000 mm 0,0 UV-I 0 W/m² 3,8 °C 9,4 °C 0,0 km/h (0 Bft)
01.11.2018 05:30 9,4 °C 69 % 1010,8 hPa 0,0 mm 1,5 km/h (1 Bft) NW 314 ° 0 min 0,000 mm 0,0 UV-I 0 W/m² 4,0 °C 9,4 °C 3,2 km/h (1 Bft)
01.11.2018 05:31 9,3 °C 67 % 1010,8 hPa 0,0 mm 0,1 km/h (0 Bft) NW 314 ° 0 min 0,000 mm 0,0 UV-I 0 W/m² 3,5 °C 9,3 °C 1,6 km/h (1 Bft)
01.11.2018 05:32 9,3 °C 67 % 1010,8 hPa 0,0 mm 1,6 km/h (1 Bft) NO 45 ° 0 min 0,000 mm 0,0 UV-I 0 W/m² 3,5 °C 9,3 °C 4,8 km/h (1 Bft)
01.11.2018 05:33 9,3 °C 68 % 1010,7 hPa 0,0 mm 0,0 km/h (0 Bft) NO 45 ° 0 min 0,000 mm 0,0 UV-I 0 W/m² 3,7 °C 9,3 °C 0,0 km/h (0 Bft)
01.11.2018 05:34 9,3 °C 68 % 1010,8 hPa 0,0 mm 1,1 km/h (1 Bft) W 271 ° 0 min 0,000 mm 0,0 UV-I 0 W/m² 3,7 °C 9,3 °C 3,2 km/h (1 Bft)
01.11.2018 05:35 9,3 °C 69 % 1010,8 hPa 0,0 mm 2,4 km/h (1 Bft) NW 323 ° 0 min 0,000 mm 0,0 UV-I 0 W/m² 3,9 °C 9,3 °C 4,8 km/h (1 Bft)
01.11.2018 05:36 9,3 °C 68 % 1010,9 hPa 0,0 mm 1,0 km/h (0 Bft) N 360 ° 0 min 0,000 mm 0,0 UV-I 0 W/m² 3,7 °C 9,3 °C 3,2 km/h (1 Bft)
01.11.2018 05:37 9,3 °C 68 % 1010,8 hPa 0,0 mm 1,2 km/h (1 Bft) N-NW 340 ° 0 min 0,000 mm 0,0 UV-I 0 W/m² 3,7 °C 9,3 °C 4,8 km/h (1 Bft)
01.11.2018 05:38 9,2 °C 68 % 1010,8 hPa 0,0 mm 0,4 km/h (0 Bft) N-NW 340 ° 0 min 0,000 mm 0,0 UV-I 0 W/m² 3,6 °C 9,2 °C 3,2 km/h (1 Bft)
01.11.2018 05:39 9,2 °C 68 % 1010,7 hPa 0,0 mm 0,9 km/h (0 Bft) N-NW 340 ° 0 min 0,000 mm 0,0 UV-I 0 W/m² 3,6 °C 9,2 °C 3,2 km/h (1 Bft)
01.11.2018 05:40 9,2 °C 68 % 1010,7 hPa 0,0 mm 0,0 km/h (0 Bft) N-NW 340 ° 0 min 0,000 mm 0,0 UV-I 0 W/m² 3,6 °C 9,2 °C 0,0 km/h (0 Bft)
01.11.2018 05:41 9,2 °C 68 % 1010,7 hPa 0,0 mm 0,5 km/h (0 Bft) N 5 ° 0 min 0,000 mm 0,0 UV-I 0 W/m² 3,6 °C 9,2 °C 1,6 km/h (1 Bft)
01.11.2018 05:42 9,2 °C 68 % 1010,6 hPa 0,0 mm 0,1 km/h (0 Bft) N 5 ° 0 min 0,000 mm 0,0 UV-I 0 W/m² 3,6 °C 9,2 °C 1,6 km/h (1 Bft)
01.11.2018 05:43 9,2 °C 69 % 1010,7 hPa 0,0 mm 0,0 km/h (0 Bft) N 5 ° 0 min 0,000 mm 0,0 UV-I 0 W/m² 3,8 °C 9,2 °C 0,0 km/h (0 Bft)
01.11.2018 05:44 9,2 °C 68 % 1010,6 hPa 0,0 mm 1,5 km/h (1 Bft) N 5 ° 0 min 0,000 mm 0,0 UV-I 0 W/m² 3,6 °C 9,2 °C 3,2 km/h (1 Bft)
01.11.2018 05:45 9,2 °C 68 % 1010,6 hPa 0,0 mm 2,5 km/h (1 Bft) SW 220 ° 0 min 0,000 mm 0,0 UV-I 0 W/m² 3,6 °C 9,2 °C 4,8 km/h (1 Bft)
01.11.2018 05:46 9,2 °C 67 % 1010,6 hPa 0,0 mm 1,8 km/h (1 Bft) O-NO 67 ° 0 min 0,000 mm 0,0 UV-I 0 W/m² 3,4 °C 9,2 °C 4,8 km/h (1 Bft)
01.11.2018 05:47 9,2 °C 67 % 1010,6 hPa 0,0 mm 1,3 km/h (1 Bft) O-NO 61 ° 0 min 0,000 mm 0,0 UV-I 0 W/m² 3,4 °C 9,2 °C 4,8 km/h (1 Bft)
01.11.2018 05:48 9,2 °C 68 % 1010,6 hPa 0,0 mm 0,4 km/h (0 Bft) O-NO 61 ° 0 min 0,000 mm 0,0 UV-I 0 W/m² 3,6 °C 9,2 °C 1,6 km/h (1 Bft)
01.11.2018 05:49 9,2 °C 69 % 1010,6 hPa 0,0 mm 0,7 km/h (0 Bft) NO 49 ° 0 min 0,000 mm 0,0 UV-I 0 W/m² 3,8 °C 9,2 °C 3,2 km/h (1 Bft)
01.11.2018 05:50 9,1 °C 70 % 1010,5 hPa 0,0 mm 1,4 km/h (1 Bft) NO 44 ° 0 min 0,000 mm 0,0 UV-I 0 W/m² 3,9 °C 9,1 °C 4,8 km/h (1 Bft)
01.11.2018 05:51 9,1 °C 69 % 1010,5 hPa 0,0 mm 0,3 km/h (0 Bft) NO 44 ° 0 min 0,000 mm 0,0 UV-I 0 W/m² 3,7 °C 9,1 °C 1,6 km/h (1 Bft)
01.11.2018 05:52 9,2 °C 68 % 1010,5 hPa 0,0 mm 1,0 km/h (0 Bft) NO 44 ° 0 min 0,000 mm 0,0 UV-I 0 W/m² 3,6 °C 9,2 °C 3,2 km/h (1 Bft)
01.11.2018 05:53 9,2 °C 70 % 1010,5 hPa 0,0 mm 2,1 km/h (1 Bft) NO 50 ° 0 min 0,000 mm 0,0 UV-I 0 W/m² 4,0 °C 9,2 °C 3,2 km/h (1 Bft)
01.11.2018 05:54 9,1 °C 70 % 1010,4 hPa 0,0 mm 3,0 km/h (1 Bft) NO 54 ° 0 min 0,000 mm 0,0 UV-I 0 W/m² 3,9 °C 9,1 °C 6,4 km/h (2 Bft)
01.11.2018 05:55 9,1 °C 69 % 1010,4 hPa 0,0 mm 3,3 km/h (1 Bft) N-NO 23 ° 0 min 0,000 mm 0,0 UV-I 0 W/m² 3,7 °C 9,1 °C 4,8 km/h (1 Bft)
01.11.2018 05:56 9,1 °C 69 % 1010,4 hPa 0,0 mm 1,1 km/h (1 Bft) O 91 ° 0 min 0,000 mm 0,0 UV-I 0 W/m² 3,7 °C 9,1 °C 3,2 km/h (1 Bft)
01.11.2018 05:57 9,2 °C 68 % 1010,4 hPa 0,0 mm 1,8 km/h (1 Bft) O-NO 68 ° 0 min 0,000 mm 0,0 UV-I 0 W/m² 3,6 °C 9,2 °C 3,2 km/h (1 Bft)
01.11.2018 05:58 9,2 °C 67 % 1010,3 hPa 0,0 mm 2,1 km/h (1 Bft) N-NW 331 ° 0 min 0,000 mm 0,0 UV-I 0 W/m² 3,4 °C 9,2 °C 6,4 km/h (2 Bft)
01.11.2018 05:59 9,3 °C 66 % 1010,2 hPa 0,0 mm 0,1 km/h (0 Bft) N-NW 331 ° 0 min 0,000 mm 0,0 UV-I 0 W/m² 3,3 °C 9,3 °C 1,6 km/h (1 Bft)
01.11.2018 06:00 9,3 °C 66 % 1010,1 hPa 0,0 mm 0,0 km/h (0 Bft) N-NW 331 ° 0 min 0,025 mm 0,0 UV-I 0 W/m² 3,3 °C 9,3 °C 0,0 km/h (0 Bft)
01.11.2018 06:01 9,4 °C 67 % 1010,1 hPa 0,0 mm 1,1 km/h (1 Bft) N-NW 332 ° 0 min 0,000 mm 0,0 UV-I 0 W/m² 3,6 °C 9,4 °C 3,2 km/h (1 Bft)
01.11.2018 06:02 9,3 °C 68 % 1010,1 hPa 0,0 mm 0,2 km/h (0 Bft) N-NW 334 ° 0 min 0,000 mm 0,0 UV-I 0 W/m² 3,7 °C 9,3 °C 1,6 km/h (1 Bft)
01.11.2018 06:03 9,3 °C 68 % 1010,0 hPa 0,0 mm 0,7 km/h (0 Bft) N-NW 334 ° 0 min 0,000 mm 0,0 UV-I 0 W/m² 3,7 °C 9,3 °C 3,2 km/h (1 Bft)
01.11.2018 06:04 9,2 °C 68 % 1009,9 hPa 0,0 mm 0,9 km/h (0 Bft) N-NW 334 ° 0 min 0,000 mm 0,0 UV-I 0 W/m² 3,6 °C 9,2 °C 1,6 km/h (1 Bft)
01.11.2018 06:05 9,3 °C 67 % 1009,9 hPa 0,0 mm 0,1 km/h (0 Bft) N-NW 334 ° 0 min 0,000 mm 0,0 UV-I 0 W/m² 3,5 °C 9,3 °C 1,6 km/h (1 Bft)
01.11.2018 06:06 9,3 °C 67 % 1009,8 hPa 0,0 mm 0,0 km/h (0 Bft) N-NW 334 ° 0 min 0,000 mm 0,0 UV-I 0 W/m² 3,5 °C 9,3 °C 0,0 km/h (0 Bft)
01.11.2018 06:07 9,2 °C 67 % 1009,7 hPa 0,0 mm 1,5 km/h (1 Bft) N-NW 333 ° 0 min 0,000 mm 0,0 UV-I 0 W/m² 3,4 °C 9,2 °C 3,2 km/h (1 Bft)
01.11.2018 06:08 9,3 °C 66 % 1009,7 hPa 0,0 mm 0,1 km/h (0 Bft) N-NW 333 ° 0 min 0,000 mm 0,0 UV-I 0 W/m² 3,3 °C 9,3 °C 1,6 km/h (1 Bft)
01.11.2018 06:09 9,3 °C 66 % 1009,6 hPa 0,0 mm 0,1 km/h (0 Bft) N-NW 333 ° 0 min 0,000 mm 0,0 UV-I 0 W/m² 3,3 °C 9,3 °C 1,6 km/h (1 Bft)
01.11.2018 06:10 9,3 °C 66 % 1009,6 hPa 0,0 mm 2,6 km/h (1 Bft) W-NW 292 ° 0 min 0,000 mm 0,0 UV-I 0 W/m² 3,3 °C 9,3 °C 4,8 km/h (1 Bft)
01.11.2018 06:11 9,2 °C 66 % 1009,5 hPa 0,0 mm 3,2 km/h (1 Bft) SW 230 ° 0 min 0,000 mm 0,0 UV-I 0 W/m² 3,2 °C 9,2 °C 9,7 km/h (2 Bft)
01.11.2018 06:12 9,3 °C 66 % 1009,5 hPa 0,0 mm 1,1 km/h (1 Bft) SW 221 ° 0 min 0,000 mm 0,0 UV-I 0 W/m² 3,3 °C 9,3 °C 3,2 km/h (1 Bft)
01.11.2018 06:13 9,3 °C 67 % 1009,4 hPa 0,0 mm 1,9 km/h (1 Bft) W 259 ° 0 min 0,000 mm 0,0 UV-I 0 W/m² 3,5 °C 9,3 °C 6,4 km/h (2 Bft)
01.11.2018 06:14 9,2 °C 68 % 1009,4 hPa 0,0 mm 1,8 km/h (1 Bft) W-SW 257 ° 0 min 0,000 mm 0,0 UV-I 0 W/m² 3,6 °C 9,2 °C 4,8 km/h (1 Bft)
01.11.2018 06:15 9,2 °C 68 % 1009,4 hPa 0,0 mm 0,7 km/h (0 Bft) O-SO 120 ° 0 min 0,000 mm 0,0 UV-I 0 W/m² 3,6 °C 9,2 °C 3,2 km/h (1 Bft)
01.11.2018 06:16 9,2 °C 69 % 1009,4 hPa 0,0 mm 0,5 km/h (0 Bft) O-SO 120 ° 0 min 0,000 mm 0,0 UV-I 0 W/m² 3,8 °C 9,2 °C 3,2 km/h (1 Bft)
01.11.2018 06:17 9,1 °C 69 % 1009,3 hPa 0,0 mm 0,0 km/h (0 Bft) O-SO 120 ° 0 min 0,000 mm 0,0 UV-I 0 W/m² 3,7 °C 9,1 °C 0,0 km/h (0 Bft)
01.11.2018 06:18 9,0 °C 69 % 1009,4 hPa 0,0 mm 2,4 km/h (1 Bft) N 9 ° 0 min 0,000 mm 0,0 UV-I 0 W/m² 3,6 °C 9,0 °C 8,0 km/h (2 Bft)
01.11.2018 06:19 9,0 °C 69 % 1009,4 hPa 0,0 mm 0,0 km/h (0 Bft) N 9 ° 0 min 0,000 mm 0,0 UV-I 0 W/m² 3,6 °C 9,0 °C 0,0 km/h (0 Bft)
01.11.2018 06:20 9,0 °C 69 % 1009,5 hPa 0,0 mm 2,0 km/h (1 Bft) N 360 ° 0 min 0,000 mm 0,0 UV-I 0 W/m² 3,6 °C 9,0 °C 3,2 km/h (1 Bft)
01.11.2018 06:21 9,0 °C 69 % 1009,5 hPa 0,0 mm 1,1 km/h (1 Bft) N 360 ° 0 min 0,000 mm 0,0 UV-I 0 W/m² 3,6 °C 9,0 °C 3,2 km/h (1 Bft)
01.11.2018 06:22 9,1 °C 69 % 1009,5 hPa 0,0 mm 0,0 km/h (0 Bft) N 360 ° 0 min 0,000 mm 0,0 UV-I 0 W/m² 3,7 °C 9,1 °C 0,0 km/h (0 Bft)
01.11.2018 06:23 9,1 °C 69 % 1009,5 hPa 0,0 mm 0,8 km/h (0 Bft) N 360 ° 0 min 0,000 mm 0,0 UV-I 0 W/m² 3,7 °C 9,1 °C 3,2 km/h (1 Bft)
01.11.2018 06:24 9,1 °C 68 % 1009,5 hPa 0,0 mm 0,8 km/h (0 Bft) N 360 ° 0 min 0,000 mm 0,0 UV-I 0 W/m² 3,5 °C 9,1 °C 3,2 km/h (1 Bft)
01.11.2018 06:25 9,1 °C 68 % 1009,5 hPa 0,0 mm 1,7 km/h (1 Bft) NO 34 ° 0 min 0,000 mm 0,0 UV-I 0 W/m² 3,5 °C 9,1 °C 3,2 km/h (1 Bft)
01.11.2018 06:26 9,2 °C 69 % 1009,4 hPa 0,0 mm 0,1 km/h (0 Bft) NO 34 ° 0 min 0,000 mm 0,0 UV-I 0 W/m² 3,8 °C 9,2 °C 1,6 km/h (1 Bft)
01.11.2018 06:27 9,2 °C 68 % 1009,4 hPa 0,0 mm 0,0 km/h (0 Bft) NO 34 ° 0 min 0,000 mm 0,0 UV-I 0 W/m² 3,6 °C 9,2 °C 0,0 km/h (0 Bft)
01.11.2018 06:28 9,3 °C 67 % 1009,4 hPa 0,0 mm 0,1 km/h (0 Bft) O-NO 74 ° 0 min 0,000 mm 0,0 UV-I 0 W/m² 3,5 °C 9,3 °C 1,6 km/h (1 Bft)
01.11.2018 06:29 9,4 °C 67 % 1009,6 hPa 0,0 mm 3,7 km/h (1 Bft) O-NO 59 ° 0 min 0,000 mm 0,0 UV-I 0 W/m² 3,6 °C 9,4 °C 6,4 km/h (2 Bft)
01.11.2018 06:30 9,3 °C 68 % 1009,6 hPa 0,0 mm 2,6 km/h (1 Bft) NW 313 ° 0 min 0,000 mm 0,0 UV-I 0 W/m² 3,7 °C 9,3 °C 8,0 km/h (2 Bft)
01.11.2018 06:31 9,3 °C 68 % 1009,6 hPa 0,0 mm 1,3 km/h (1 Bft) N-NO 13 ° 0 min 0,000 mm 0,0 UV-I 0 W/m² 3,7 °C 9,3 °C 3,2 km/h (1 Bft)
01.11.2018 06:32 9,3 °C 69 % 1009,6 hPa 0,0 mm 2,5 km/h (1 Bft) NO 40 ° 0 min 0,000 mm 0,0 UV-I 0 W/m² 3,9 °C 9,3 °C 4,8 km/h (1 Bft)
01.11.2018 06:33 9,3 °C 68 % 1009,7 hPa 0,0 mm 0,0 km/h (0 Bft) NO 40 ° 0 min 0,000 mm 0,0 UV-I 0 W/m² 3,7 °C 9,3 °C 0,0 km/h (0 Bft)
01.11.2018 06:34 9,3 °C 68 % 1009,7 hPa 0,0 mm 1,2 km/h (1 Bft) NO 40 ° 0 min 0,000 mm 0,0 UV-I 0 W/m² 3,7 °C 9,3 °C 3,2 km/h (1 Bft)
01.11.2018 06:35 9,3 °C 67 % 1009,6 hPa 0,0 mm 6,9 km/h (2 Bft) W-NW 300 ° 0 min 0,000 mm 0,0 UV-I 0 W/m² 3,5 °C 8,4 °C 12,9 km/h (3 Bft)
01.11.2018 06:36 9,4 °C 66 % 1009,5 hPa 0,0 mm 4,2 km/h (1 Bft) N 5 ° 0 min 0,000 mm 0,0 UV-I 0 W/m² 3,4 °C 9,4 °C 9,7 km/h (2 Bft)
01.11.2018 06:37 9,4 °C 68 % 1009,5 hPa 0,0 mm 3,4 km/h (1 Bft) NO 38 ° 0 min 0,000 mm 0,0 UV-I 0 W/m² 3,8 °C 9,4 °C 9,7 km/h (2 Bft)
01.11.2018 06:38 9,4 °C 67 % 1009,3 hPa 0,0 mm 3,8 km/h (1 Bft) N 5 ° 0 min 0,000 mm 0,0 UV-I 0 W/m² 3,6 °C 9,4 °C 4,8 km/h (1 Bft)
01.11.2018 06:39 9,4 °C 68 % 1009,1 hPa 0,0 mm 1,1 km/h (1 Bft) O-SO 118 ° 0 min 0,000 mm 0,0 UV-I 0 W/m² 3,8 °C 9,4 °C 3,2 km/h (1 Bft)
01.11.2018 06:40 9,4 °C 68 % 1009,1 hPa 0,0 mm 1,0 km/h (0 Bft) NO 53 ° 0 min 0,000 mm 0,0 UV-I 0 W/m² 3,8 °C 9,4 °C 3,2 km/h (1 Bft)
01.11.2018 06:41 9,4 °C 69 % 1009,1 hPa 0,0 mm 0,1 km/h (0 Bft) NO 53 ° 0 min 0,000 mm 0,0 UV-I 0 W/m² 4,0 °C 9,4 °C 1,6 km/h (1 Bft)
01.11.2018 06:42 9,3 °C 68 % 1009,1 hPa 0,0 mm 0,1 km/h (0 Bft) NO 53 ° 0 min 0,000 mm 0,0 UV-I 0 W/m² 3,7 °C 9,3 °C 1,6 km/h (1 Bft)
01.11.2018 06:43 9,3 °C 68 % 1009,1 hPa 0,0 mm 1,1 km/h (1 Bft) W-NW 302 ° 0 min 0,000 mm 0,0 UV-I 0 W/m² 3,7 °C 9,3 °C 3,2 km/h (1 Bft)
01.11.2018 06:44 9,3 °C 68 % 1009,1 hPa 0,0 mm 0,5 km/h (0 Bft) W-NW 302 ° 0 min 0,000 mm 0,0 UV-I 0 W/m² 3,7 °C 9,3 °C 1,6 km/h (1 Bft)
01.11.2018 06:45 9,4 °C 67 % 1009,2 hPa 0,0 mm 0,0 km/h (0 Bft) W-NW 301 ° 0 min 0,000 mm 0,0 UV-I 0 W/m² 3,6 °C 9,4 °C 0,0 km/h (0 Bft)
01.11.2018 06:46 9,3 °C 69 % 1009,2 hPa 0,0 mm 0,0 km/h (0 Bft) W-NW 302 ° 0 min 0,000 mm 0,0 UV-I 0 W/m² 3,9 °C 9,3 °C 0,0 km/h (0 Bft)
01.11.2018 06:47 9,3 °C 69 % 1009,2 hPa 0,0 mm 1,3 km/h (1 Bft) NW 304 ° 0 min 0,000 mm 0,0 UV-I 0 W/m² 3,9 °C 9,3 °C 3,2 km/h (1 Bft)
01.11.2018 06:48 9,3 °C 68 % 1009,2 hPa 0,0 mm 0,0 km/h (0 Bft) NW 304 ° 0 min 0,000 mm 0,0 UV-I 0 W/m² 3,7 °C 9,3 °C 0,0 km/h (0 Bft)
01.11.2018 06:49 9,3 °C 68 % 1009,2 hPa 0,0 mm 0,0 km/h (0 Bft) NW 304 ° 0 min 0,000 mm 0,0 UV-I 0 W/m² 3,7 °C 9,3 °C 0,0 km/h (0 Bft)
01.11.2018 06:50 9,3 °C 67 % 1009,3 hPa 0,0 mm 1,9 km/h (1 Bft) N-NW 348 ° 0 min 0,000 mm 0,0 UV-I 0 W/m² 3,5 °C 9,3 °C 3,2 km/h (1 Bft)
01.11.2018 06:51 9,3 °C 67 % 1009,3 hPa 0,0 mm 0,0 km/h (0 Bft) N-NW 348 ° 0 min 0,000 mm 0,0 UV-I 0 W/m² 3,5 °C 9,3 °C 0,0 km/h (0 Bft)
01.11.2018 06:52 9,3 °C 68 % 1009,4 hPa 0,0 mm 0,0 km/h (0 Bft) N-NW 348 ° 0 min 0,000 mm 0,0 UV-I 0 W/m² 3,7 °C 9,3 °C 0,0 km/h (0 Bft)
01.11.2018 06:53 9,3 °C 67 % 1009,5 hPa 0,0 mm 0,0 km/h (0 Bft) N-NW 348 ° 0 min 0,000 mm 0,0 UV-I 0 W/m² 3,5 °C 9,3 °C 0,0 km/h (0 Bft)
01.11.2018 06:54 9,3 °C 67 % 1009,5 hPa 0,0 mm 0,0 km/h (0 Bft) N-NW 348 ° 0 min 0,000 mm 0,0 UV-I 0 W/m² 3,5 °C 9,3 °C 0,0 km/h (0 Bft)
01.11.2018 06:55 9,3 °C 67 % 1009,3 hPa 0,0 mm 0,0 km/h (0 Bft) N-NW 348 ° 0 min 0,000 mm 0,0 UV-I 0 W/m² 3,5 °C 9,3 °C 0,0 km/h (0 Bft)
01.11.2018 06:56 9,3 °C 68 % 1009,3 hPa 0,0 mm 0,7 km/h (0 Bft) O 88 ° 0 min 0,000 mm 0,0 UV-I 0 W/m² 3,7 °C 9,3 °C 3,2 km/h (1 Bft)
01.11.2018 06:57 9,3 °C 69 % 1009,3 hPa 0,0 mm 2,4 km/h (1 Bft) NO 36 ° 0 min 0,000 mm 0,0 UV-I 0 W/m² 3,9 °C 9,3 °C 3,2 km/h (1 Bft)
01.11.2018 06:58 9,3 °C 68 % 1009,3 hPa 0,0 mm 1,5 km/h (1 Bft) NO 49 ° 0 min 0,000 mm 0,0 UV-I 0 W/m² 3,7 °C 9,3 °C 3,2 km/h (1 Bft)
01.11.2018 06:59 9,2 °C 68 % 1009,3 hPa 0,0 mm 3,7 km/h (1 Bft) S-SO 151 ° 0 min 0,000 mm 0,0 UV-I 0 W/m² 3,6 °C 9,2 °C 8,0 km/h (2 Bft)
01.11.2018 07:00 9,2 °C 68 % 1009,3 hPa 0,0 mm 0,0 km/h (0 Bft) S-SO 151 ° 0 min 0,000 mm 0,0 UV-I 0 W/m² 3,6 °C 9,2 °C 0,0 km/h (0 Bft)
01.11.2018 07:01 9,3 °C 67 % 1009,3 hPa 0,0 mm 0,2 km/h (0 Bft) S-SO 151 ° 0 min 0,000 mm 0,0 UV-I 0 W/m² 3,5 °C 9,3 °C 1,6 km/h (1 Bft)
01.11.2018 07:02 9,4 °C 67 % 1009,3 hPa 0,0 mm 0,1 km/h (0 Bft) S-SO 151 ° 0 min 0,000 mm 0,0 UV-I 0 W/m² 3,6 °C 9,4 °C 1,6 km/h (1 Bft)
01.11.2018 07:03 9,4 °C 66 % 1009,3 hPa 0,0 mm 1,9 km/h (1 Bft) N-NW 332 ° 0 min 0,000 mm 0,0 UV-I 0 W/m² 3,4 °C 9,4 °C 4,8 km/h (1 Bft)
01.11.2018 07:04 9,4 °C 67 % 1009,3 hPa 0,0 mm 0,7 km/h (0 Bft) N-NW 337 ° 0 min 0,000 mm 0,0 UV-I 0 W/m² 3,6 °C 9,4 °C 1,6 km/h (1 Bft)
01.11.2018 07:05 9,4 °C 67 % 1009,3 hPa 0,0 mm 0,4 km/h (0 Bft) N-NW 339 ° 0 min 0,000 mm 0,0 UV-I 0 W/m² 3,6 °C 9,4 °C 1,6 km/h (1 Bft)
01.11.2018 07:06 9,3 °C 68 % 1009,3 hPa 0,0 mm 0,2 km/h (0 Bft) N-NW 339 ° 0 min 0,000 mm 0,0 UV-I 0 W/m² 3,7 °C 9,3 °C 1,6 km/h (1 Bft)
01.11.2018 07:07 9,3 °C 68 % 1009,3 hPa 0,0 mm 0,6 km/h (0 Bft) N-NW 339 ° 0 min 0,000 mm 0,0 UV-I 0 W/m² 3,7 °C 9,3 °C 1,6 km/h (1 Bft)
01.11.2018 07:08 9,2 °C 69 % 1009,4 hPa 0,0 mm 0,0 km/h (0 Bft) N-NW 339 ° 0 min 0,000 mm 0,0 UV-I 0 W/m² 3,8 °C 9,2 °C 0,0 km/h (0 Bft)
01.11.2018 07:09 9,2 °C 68 % 1009,5 hPa 0,0 mm 0,3 km/h (0 Bft) N-NW 339 ° 0 min 0,000 mm 0,0 UV-I 0 W/m² 3,6 °C 9,2 °C 1,6 km/h (1 Bft)
01.11.2018 07:10 9,2 °C 68 % 1009,5 hPa 0,0 mm 0,0 km/h (0 Bft) N-NW 339 ° 0 min 0,000 mm 0,0 UV-I 0 W/m² 3,6 °C 9,2 °C 0,0 km/h (0 Bft)
01.11.2018 07:11 9,3 °C 67 % 1009,5 hPa 0,0 mm 0,0 km/h (0 Bft) N-NW 339 ° 0 min 0,000 mm 0,0 UV-I 0 W/m² 3,5 °C 9,3 °C 0,0 km/h (0 Bft)
01.11.2018 07:12 9,3 °C 68 % 1009,5 hPa 0,0 mm 0,0 km/h (0 Bft) N-NW 339 ° 0 min 0,000 mm 0,0 UV-I 0 W/m² 3,7 °C 9,3 °C 0,0 km/h (0 Bft)
01.11.2018 07:13 9,2 °C 69 % 1009,5 hPa 0,0 mm 0,0 km/h (0 Bft) N-NW 339 ° 0 min 0,000 mm 0,0 UV-I 5 W/m² 3,8 °C 9,2 °C 0,0 km/h (0 Bft)
01.11.2018 07:14 9,2 °C 69 % 1009,6 hPa 0,0 mm 1,3 km/h (1 Bft) W 261 ° 0 min 0,000 mm 0,0 UV-I 5 W/m² 3,8 °C 9,2 °C 9,7 km/h (2 Bft)
01.11.2018 07:15 9,1 °C 69 % 1009,4 hPa 0,0 mm 2,9 km/h (1 Bft) S-SW 193 ° 0 min 0,000 mm 0,0 UV-I 5 W/m² 3,7 °C 9,1 °C 6,4 km/h (2 Bft)
01.11.2018 07:16 9,2 °C 69 % 1009,4 hPa 0,0 mm 1,5 km/h (1 Bft) S-SW 192 ° 0 min 0,000 mm 0,0 UV-I 5 W/m² 3,8 °C 9,2 °C 3,2 km/h (1 Bft)
01.11.2018 07:17 9,2 °C 68 % 1009,3 hPa 0,0 mm 0,1 km/h (0 Bft) S-SW 192 ° 0 min 0,000 mm 0,0 UV-I 7 W/m² 3,6 °C 9,2 °C 1,6 km/h (1 Bft)
01.11.2018 07:18 9,2 °C 68 % 1009,3 hPa 0,0 mm 0,0 km/h (0 Bft) S-SW 192 ° 0 min 0,000 mm 0,0 UV-I 7 W/m² 3,6 °C 9,2 °C 0,0 km/h (0 Bft)
01.11.2018 07:19 9,2 °C 68 % 1009,1 hPa 0,0 mm 0,0 km/h (0 Bft) S-SW 192 ° 0 min 0,000 mm 0,0 UV-I 9 W/m² 3,6 °C 9,2 °C 0,0 km/h (0 Bft)
01.11.2018 07:20 9,2 °C 68 % 1009,1 hPa 0,0 mm 0,2 km/h (0 Bft) S-SW 192 ° 0 min 0,000 mm 0,0 UV-I 9 W/m² 3,6 °C 9,2 °C 1,6 km/h (1 Bft)
01.11.2018 07:21 9,2 °C 69 % 1009,1 hPa 0,0 mm 0,0 km/h (0 Bft) S-SW 192 ° 0 min 0,000 mm 0,0 UV-I 11 W/m² 3,8 °C 9,2 °C 0,0 km/h (0 Bft)
01.11.2018 07:22 9,1 °C 69 % 1009,1 hPa 0,0 mm 0,8 km/h (0 Bft) S-SW 196 ° 0 min 0,000 mm 0,0 UV-I 11 W/m² 3,7 °C 9,1 °C 1,6 km/h (1 Bft)
01.11.2018 07:23 9,1 °C 68 % 1009,0 hPa 0,0 mm 0,0 km/h (0 Bft) S-SW 196 ° 0 min 0,000 mm 0,0 UV-I 11 W/m² 3,5 °C 9,1 °C 0,0 km/h (0 Bft)
01.11.2018 07:24 9,2 °C 68 % 1009,0 hPa 0,0 mm 0,0 km/h (0 Bft) S-SW 196 ° 0 min 0,000 mm 0,0 UV-I 12 W/m² 3,6 °C 9,2 °C 0,0 km/h (0 Bft)
01.11.2018 07:25 9,2 °C 68 % 1009,0 hPa 0,0 mm 0,0 km/h (0 Bft) S-SW 196 ° 0 min 0,000 mm 0,0 UV-I 12 W/m² 3,6 °C 9,2 °C 0,0 km/h (0 Bft)
01.11.2018 07:26 9,2 °C 69 % 1009,1 hPa 0,0 mm 0,0 km/h (0 Bft) S-SW 196 ° 0 min 0,000 mm 0,0 UV-I 12 W/m² 3,8 °C 9,2 °C 0,0 km/h (0 Bft)
01.11.2018 07:27 9,2 °C 70 % 1009,1 hPa 0,0 mm 0,0 km/h (0 Bft) S-SW 196 ° 0 min 0,000 mm 0,0 UV-I 14 W/m² 4,0 °C 9,2 °C 0,0 km/h (0 Bft)
01.11.2018 07:28 9,1 °C 71 % 1009,1 hPa 0,0 mm 1,4 km/h (1 Bft) O-NO 60 ° 0 min 0,000 mm 0,0 UV-I 14 W/m² 4,1 °C 9,1 °C 3,2 km/h (1 Bft)
01.11.2018 07:29 9,1 °C 70 % 1009,1 hPa 0,0 mm 1,1 km/h (1 Bft) O-NO 60 ° 0 min 0,000 mm 0,0 UV-I 14 W/m² 3,9 °C 9,1 °C 3,2 km/h (1 Bft)
01.11.2018 07:30 9,1 °C 70 % 1009,1 hPa 0,0 mm 1,7 km/h (1 Bft) N-NO 28 ° 0 min 0,000 mm 0,0 UV-I 14 W/m² 3,9 °C 9,1 °C 6,4 km/h (2 Bft)
01.11.2018 07:31 9,1 °C 68 % 1009,2 hPa 0,0 mm 0,0 km/h (0 Bft) N-NO 28 ° 0 min 0,000 mm 0,0 UV-I 14 W/m² 3,5 °C 9,1 °C 0,0 km/h (0 Bft)
01.11.2018 07:32 9,2 °C 67 % 1009,1 hPa 0,0 mm 2,4 km/h (1 Bft) N-NO 20 ° 0 min 0,000 mm 0,0 UV-I 14 W/m² 3,4 °C 9,2 °C 3,2 km/h (1 Bft)
01.11.2018 07:33 9,3 °C 66 % 1009,1 hPa 0,0 mm 3,6 km/h (1 Bft) NW 308 ° 0 min 0,000 mm 0,0 UV-I 14 W/m² 3,3 °C 9,3 °C 4,8 km/h (1 Bft)
01.11.2018 07:34 9,5 °C 65 % 1009,1 hPa 0,0 mm 2,7 km/h (1 Bft) NW 304 ° 0 min 0,000 mm 0,0 UV-I 14 W/m² 3,3 °C 9,5 °C 4,8 km/h (1 Bft)
01.11.2018 07:35 9,6 °C 65 % 1009,1 hPa 0,0 mm 3,8 km/h (1 Bft) W-NW 285 ° 0 min 0,000 mm 0,0 UV-I 14 W/m² 3,4 °C 9,6 °C 4,8 km/h (1 Bft)
01.11.2018 07:36 9,7 °C 65 % 1009,1 hPa 0,0 mm 2,2 km/h (1 Bft) W-NW 285 ° 0 min 0,000 mm 0,0 UV-I 14 W/m² 3,4 °C 9,7 °C 3,2 km/h (1 Bft)
01.11.2018 07:37 9,8 °C 65 % 1009,1 hPa 0,0 mm 0,8 km/h (0 Bft) W-NW 285 ° 0 min 0,000 mm 0,0 UV-I 14 W/m² 3,5 °C 9,8 °C 3,2 km/h (1 Bft)
01.11.2018 07:38 9,8 °C 64 % 1009,0 hPa 0,0 mm 0,3 km/h (0 Bft) W-NW 285 ° 0 min 0,000 mm 0,0 UV-I 14 W/m² 3,3 °C 9,8 °C 1,6 km/h (1 Bft)
01.11.2018 07:39 9,9 °C 63 % 1009,0 hPa 0,0 mm 0,0 km/h (0 Bft) W-NW 285 ° 0 min 0,000 mm 0,0 UV-I 16 W/m² 3,2 °C 9,9 °C 0,0 km/h (0 Bft)
01.11.2018 07:40 10,0 °C 63 % 1009,0 hPa 0,0 mm 1,3 km/h (1 Bft) W-NW 285 ° 0 min 0,000 mm 0,0 UV-I 16 W/m² 3,3 °C 10,0 °C 3,2 km/h (1 Bft)
01.11.2018 07:41 10,1 °C 64 % 1009,0 hPa 0,0 mm 0,3 km/h (0 Bft) W-NW 285 ° 0 min 0,000 mm 0,0 UV-I 18 W/m² 3,6 °C 10,1 °C 1,6 km/h (1 Bft)
01.11.2018 07:42 10,1 °C 64 % 1009,0 hPa 0,0 mm 0,0 km/h (0 Bft) W-NW 285 ° 0 min 0,000 mm 0,0 UV-I 18 W/m² 3,6 °C 10,1 °C 0,0 km/h (0 Bft)
01.11.2018 07:43 10,1 °C 65 % 1009,0 hPa 0,0 mm 0,0 km/h (0 Bft) W-NW 285 ° 0 min 0,000 mm 0,0 UV-I 18 W/m² 3,8 °C 10,1 °C 0,0 km/h (0 Bft)
01.11.2018 07:44 10,1 °C 64 % 1009,1 hPa 0,0 mm 0,3 km/h (0 Bft) W-NW 285 ° 0 min 0,000 mm 0,0 UV-I 18 W/m² 3,6 °C 10,1 °C 1,6 km/h (1 Bft)
01.11.2018 07:45 10,0 °C 68 % 1009,1 hPa 0,0 mm 0,0 km/h (0 Bft) W-NW 285 ° 0 min 0,000 mm 0,0 UV-I 18 W/m² 4,4 °C 10,0 °C 0,0 km/h (0 Bft)
01.11.2018 07:46 9,8 °C 68 % 1009,1 hPa 0,0 mm 0,0 km/h (0 Bft) W-NW 285 ° 0 min 0,000 mm 0,0 UV-I 19 W/m² 4,2 °C 9,8 °C 0,0 km/h (0 Bft)
01.11.2018 07:47 9,7 °C 68 % 1009,2 hPa 0,0 mm 0,0 km/h (0 Bft) W-NW 285 ° 0 min 0,000 mm 0,0 UV-I 19 W/m² 4,1 °C 9,7 °C 0,0 km/h (0 Bft)
01.11.2018 07:48 9,6 °C 68 % 1009,3 hPa 0,0 mm 0,0 km/h (0 Bft) W-NW 285 ° 0 min 0,000 mm 0,0 UV-I 21 W/m² 4,0 °C 9,6 °C 0,0 km/h (0 Bft)
01.11.2018 07:49 9,3 °C 69 % 1009,3 hPa 0,0 mm 0,0 km/h (0 Bft) W-NW 285 ° 0 min 0,000 mm 0,0 UV-I 21 W/m² 3,9 °C 9,3 °C 0,0 km/h (0 Bft)
01.11.2018 07:50 9,2 °C 69 % 1009,4 hPa 0,0 mm 0,4 km/h (0 Bft) W-NW 285 ° 0 min 0,000 mm 0,0 UV-I 23 W/m² 3,8 °C 9,2 °C 1,6 km/h (1 Bft)
01.11.2018 07:51 9,1 °C 70 % 1009,4 hPa 0,0 mm 1,7 km/h (1 Bft) W-NW 285 ° 0 min 0,000 mm 0,0 UV-I 23 W/m² 3,9 °C 9,1 °C 3,2 km/h (1 Bft)
01.11.2018 07:52 9,0 °C 70 % 1009,4 hPa 0,0 mm 2,8 km/h (1 Bft) W-NW 286 ° 0 min 0,000 mm 0,0 UV-I 25 W/m² 3,8 °C 9,0 °C 4,8 km/h (1 Bft)
01.11.2018 07:53 8,9 °C 70 % 1009,5 hPa 0,0 mm 0,6 km/h (0 Bft) W-NW 286 ° 0 min 0,000 mm 0,0 UV-I 26 W/m² 3,7 °C 8,9 °C 3,2 km/h (1 Bft)
01.11.2018 07:54 8,8 °C 71 % 1009,5 hPa 0,0 mm 0,2 km/h (0 Bft) W-NW 286 ° 0 min 0,000 mm 0,0 UV-I 26 W/m² 3,8 °C 8,8 °C 1,6 km/h (1 Bft)
01.11.2018 07:55 8,7 °C 72 % 1009,6 hPa 0,0 mm 0,0 km/h (0 Bft) N-NO 17 ° 0 min 0,000 mm 0,0 UV-I 26 W/m² 3,9 °C 8,7 °C 0,0 km/h (0 Bft)
01.11.2018 07:56 8,7 °C 72 % 1009,7 hPa 0,0 mm 0,0 km/h (0 Bft) N-NO 17 ° 0 min 0,000 mm 0,0 UV-I 26 W/m² 3,9 °C 8,7 °C 0,0 km/h (0 Bft)
01.11.2018 07:57 8,7 °C 71 % 1009,7 hPa 0,0 mm 0,0 km/h (0 Bft) N-NO 17 ° 0 min 0,000 mm 0,0 UV-I 28 W/m² 3,7 °C 8,7 °C 0,0 km/h (0 Bft)
01.11.2018 07:58 8,6 °C 72 % 1009,8 hPa 0,0 mm 0,0 km/h (0 Bft) N-NO 17 ° 0 min 0,000 mm 0,0 UV-I 30 W/m² 3,8 °C 8,6 °C 0,0 km/h (0 Bft)
01.11.2018 07:59 8,7 °C 71 % 1009,8 hPa 0,0 mm 0,0 km/h (0 Bft) N-NO 17 ° 0 min 0,000 mm 0,0 UV-I 30 W/m² 3,7 °C 8,7 °C 0,0 km/h (0 Bft)
01.11.2018 08:00 8,7 °C 71 % 1009,8 hPa 0,0 mm 0,0 km/h (0 Bft) N-NO 17 ° 0 min 0,000 mm 0,0 UV-I 32 W/m² 3,7 °C 8,7 °C 0,0 km/h (0 Bft)
01.11.2018 08:01 8,7 °C 72 % 1009,7 hPa 0,0 mm 0,2 km/h (0 Bft) N-NO 17 ° 0 min 0,026 mm 0,0 UV-I 32 W/m² 3,9 °C 8,7 °C 1,6 km/h (1 Bft)
01.11.2018 08:02 8,7 °C 71 % 1009,8 hPa 0,0 mm 0,5 km/h (0 Bft) NO 42 ° 0 min 0,000 mm 0,0 UV-I 32 W/m² 3,7 °C 8,7 °C 1,6 km/h (1 Bft)
01.11.2018 08:03 8,7 °C 71 % 1009,8 hPa 0,0 mm 0,1 km/h (0 Bft) NO 42 ° 0 min 0,000 mm 0,0 UV-I 32 W/m² 3,7 °C 8,7 °C 1,6 km/h (1 Bft)
01.11.2018 08:04 8,8 °C 70 % 1009,8 hPa 0,0 mm 1,1 km/h (1 Bft) NO 42 ° 0 min 0,000 mm 0,0 UV-I 32 W/m² 3,6 °C 8,8 °C 3,2 km/h (1 Bft)
01.11.2018 08:05 8,9 °C 69 % 1009,9 hPa 0,0 mm 0,3 km/h (0 Bft) NO 42 ° 0 min 0,000 mm 0,0 UV-I 32 W/m² 3,5 °C 8,9 °C 1,6 km/h (1 Bft)
01.11.2018 08:06 8,9 °C 71 % 1010,0 hPa 0,0 mm 0,6 km/h (0 Bft) NO 42 ° 0 min 0,000 mm 0,0 UV-I 32 W/m² 3,9 °C 8,9 °C 1,6 km/h (1 Bft)
01.11.2018 08:07 8,9 °C 71 % 1010,0 hPa 0,0 mm 0,2 km/h (0 Bft) NO 42 ° 0 min 0,000 mm 0,0 UV-I 32 W/m² 3,9 °C 8,9 °C 1,6 km/h (1 Bft)
01.11.2018 08:08 8,9 °C 71 % 1010,0 hPa 0,0 mm 0,9 km/h (0 Bft) NO 42 ° 0 min 0,000 mm 0,0 UV-I 33 W/m² 3,9 °C 8,9 °C 3,2 km/h (1 Bft)
01.11.2018 08:09 8,9 °C 72 % 1010,0 hPa 0,0 mm 0,5 km/h (0 Bft) NO 42 ° 0 min 0,000 mm 0,0 UV-I 33 W/m² 4,1 °C 8,9 °C 1,6 km/h (1 Bft)
01.11.2018 08:10 9,0 °C 71 % 1010,0 hPa 0,0 mm 0,1 km/h (0 Bft) NO 42 ° 0 min 0,000 mm 0,0 UV-I 33 W/m² 4,0 °C 9,0 °C 1,6 km/h (1 Bft)
01.11.2018 08:11 8,9 °C 71 % 1010,1 hPa 0,0 mm 0,0 km/h (0 Bft) NO 42 ° 0 min 0,000 mm 0,0 UV-I 33 W/m² 3,9 °C 8,9 °C 0,0 km/h (0 Bft)
01.11.2018 08:12 8,9 °C 72 % 1010,0 hPa 0,0 mm 0,0 km/h (0 Bft) NO 42 ° 0 min 0,000 mm 0,0 UV-I 35 W/m² 4,1 °C 8,9 °C 0,0 km/h (0 Bft)
01.11.2018 08:13 8,9 °C 72 % 1010,0 hPa 0,0 mm 0,0 km/h (0 Bft) NO 42 ° 0 min 0,000 mm 0,0 UV-I 35 W/m² 4,1 °C 8,9 °C 0,0 km/h (0 Bft)
01.11.2018 08:14 8,8 °C 73 % 1010,0 hPa 0,0 mm 0,0 km/h (0 Bft) NO 42 ° 0 min 0,000 mm 0,0 UV-I 37 W/m² 4,2 °C 8,8 °C 0,0 km/h (0 Bft)
01.11.2018 08:15 8,8 °C 73 % 1010,0 hPa 0,0 mm 0,0 km/h (0 Bft) NO 42 ° 0 min 0,000 mm 0,0 UV-I 37 W/m² 4,2 °C 8,8 °C 0,0 km/h (0 Bft)
01.11.2018 08:16 8,8 °C 74 % 1010,0 hPa 0,0 mm 0,0 km/h (0 Bft) NO 42 ° 0 min 0,000 mm 0,0 UV-I 39 W/m² 4,4 °C 8,8 °C 0,0 km/h (0 Bft)
01.11.2018 08:17 8,8 °C 74 % 1010,1 hPa 0,0 mm 0,0 km/h (0 Bft) NO 42 ° 0 min 0,000 mm 0,0 UV-I 30 W/m² 4,4 °C 8,8 °C 0,0 km/h (0 Bft)
01.11.2018 08:18 8,8 °C 73 % 1010,1 hPa 0,0 mm 0,0 km/h (0 Bft) NO 42 ° 0 min 0,000 mm 0,0 UV-I 42 W/m² 4,2 °C 8,8 °C 0,0 km/h (0 Bft)
01.11.2018 08:19 8,8 °C 73 % 1010,1 hPa 0,0 mm 0,0 km/h (0 Bft) NO 42 ° 0 min 0,000 mm 0,0 UV-I 42 W/m² 4,2 °C 8,8 °C 0,0 km/h (0 Bft)
01.11.2018 08:20 8,8 °C 73 % 1010,0 hPa 0,0 mm 0,2 km/h (0 Bft) NO 42 ° 0 min 0,000 mm 0,0 UV-I 42 W/m² 4,2 °C 8,8 °C 1,6 km/h (1 Bft)
01.11.2018 08:21 8,8 °C 73 % 1009,9 hPa 0,0 mm 0,5 km/h (0 Bft) NO 42 ° 0 min 0,000 mm 0,0 UV-I 42 W/m² 4,2 °C 8,8 °C 1,6 km/h (1 Bft)
01.11.2018 08:22 8,8 °C 72 % 1009,8 hPa 0,0 mm 0,0 km/h (0 Bft) NO 42 ° 0 min 0,000 mm 0,0 UV-I 44 W/m² 4,0 °C 8,8 °C 0,0 km/h (0 Bft)
01.11.2018 08:23 8,8 °C 72 % 1009,7 hPa 0,0 mm 0,0 km/h (0 Bft) NO 42 ° 0 min 0,000 mm 0,0 UV-I 44 W/m² 4,0 °C 8,8 °C 0,0 km/h (0 Bft)
01.11.2018 08:24 8,9 °C 72 % 1009,8 hPa 0,0 mm 0,0 km/h (0 Bft) NO 42 ° 0 min 0,000 mm 0,0 UV-I 44 W/m² 4,1 °C 8,9 °C 0,0 km/h (0 Bft)
01.11.2018 08:25 8,9 °C 71 % 1009,8 hPa 0,0 mm 0,0 km/h (0 Bft) NO 42 ° 0 min 0,000 mm 0,0 UV-I 44 W/m² 3,9 °C 8,9 °C 0,0 km/h (0 Bft)
01.11.2018 08:26 9,0 °C 71 % 1009,8 hPa 0,0 mm 0,0 km/h (0 Bft) NO 42 ° 0 min 0,000 mm 0,0 UV-I 46 W/m² 4,0 °C 9,0 °C 0,0 km/h (0 Bft)
01.11.2018 08:27 9,1 °C 72 % 1009,8 hPa 0,0 mm 0,0 km/h (0 Bft) NO 42 ° 0 min 0,000 mm 0,0 UV-I 46 W/m² 4,3 °C 9,1 °C 0,0 km/h (0 Bft)
01.11.2018 08:28 9,0 °C 73 % 1009,9 hPa 0,0 mm 0,0 km/h (0 Bft) NO 42 ° 0 min 0,000 mm 0,0 UV-I 46 W/m² 4,4 °C 9,0 °C 0,0 km/h (0 Bft)
01.11.2018 08:29 9,0 °C 73 % 1009,9 hPa 0,0 mm 0,0 km/h (0 Bft) NO 42 ° 0 min 0,000 mm 0,0 UV-I 46 W/m² 4,4 °C 9,0 °C 0,0 km/h (0 Bft)
01.11.2018 08:30 8,9 °C 73 % 1010,0 hPa 0,0 mm 0,0 km/h (0 Bft) NO 42 ° 0 min 0,000 mm 0,0 UV-I 46 W/m² 4,3 °C 8,9 °C 0,0 km/h (0 Bft)
01.11.2018 08:31 9,0 °C 72 % 1010,1 hPa 0,0 mm 0,0 km/h (0 Bft) NO 42 ° 0 min 0,000 mm 0,0 UV-I 46 W/m² 4,2 °C 9,0 °C 0,0 km/h (0 Bft)
01.11.2018 08:32 9,1 °C 72 % 1010,1 hPa 0,0 mm 0,0 km/h (0 Bft) NO 42 ° 0 min 0,000 mm 0,0 UV-I 47 W/m² 4,3 °C 9,1 °C 0,0 km/h (0 Bft)
01.11.2018 08:33 9,1 °C 71 % 1010,1 hPa 0,0 mm 0,0 km/h (0 Bft) NO 42 ° 0 min 0,000 mm 0,0 UV-I 47 W/m² 4,1 °C 9,1 °C 0,0 km/h (0 Bft)
01.11.2018 08:34 9,2 °C 73 % 1010,2 hPa 0,0 mm 0,0 km/h (0 Bft) NO 42 ° 0 min 0,000 mm 0,0 UV-I 49 W/m² 4,6 °C 9,2 °C 0,0 km/h (0 Bft)
01.11.2018 08:35 9,2 °C 71 % 1010,2 hPa 0,0 mm 0,0 km/h (0 Bft) NO 42 ° 0 min 0,000 mm 0,0 UV-I 49 W/m² 4,2 °C 9,2 °C 0,0 km/h (0 Bft)
01.11.2018 08:36 9,3 °C 71 % 1010,1 hPa 0,0 mm 0,8 km/h (0 Bft) NO 42 ° 0 min 0,000 mm 0,0 UV-I 49 W/m² 4,3 °C 9,3 °C 1,6 km/h (1 Bft)
01.11.2018 08:37 9,3 °C 70 % 1010,0 hPa 0,0 mm 0,0 km/h (0 Bft) NO 42 ° 0 min 0,000 mm 0,0 UV-I 51 W/m² 4,1 °C 9,3 °C 0,0 km/h (0 Bft)
01.11.2018 08:38 9,4 °C 68 % 1010,1 hPa 0,0 mm 0,7 km/h (0 Bft) NO 42 ° 0 min 0,000 mm 0,0 UV-I 51 W/m² 3,8 °C 9,4 °C 1,6 km/h (1 Bft)
01.11.2018 08:39 9,6 °C 68 % 1009,9 hPa 0,0 mm 0,0 km/h (0 Bft) NO 42 ° 0 min 0,000 mm 0,0 UV-I 53 W/m² 4,0 °C 9,6 °C 0,0 km/h (0 Bft)
01.11.2018 08:40 9,6 °C 69 % 1009,9 hPa 0,0 mm 0,0 km/h (0 Bft) NO 42 ° 0 min 0,000 mm 0,0 UV-I 54 W/m² 4,2 °C 9,6 °C 0,0 km/h (0 Bft)
01.11.2018 08:41 9,6 °C 69 % 1009,8 hPa 0,0 mm 0,0 km/h (0 Bft) NO 42 ° 0 min 0,000 mm 0,0 UV-I 54 W/m² 4,2 °C 9,6 °C 0,0 km/h (0 Bft)
01.11.2018 08:42 9,7 °C 69 % 1009,8 hPa 0,0 mm 0,0 km/h (0 Bft) NO 42 ° 0 min 0,000 mm 0,0 UV-I 56 W/m² 4,3 °C 9,7 °C 0,0 km/h (0 Bft)
01.11.2018 08:43 9,7 °C 68 % 1009,7 hPa 0,0 mm 3,5 km/h (1 Bft) W 274 ° 0 min 0,000 mm 0,0 UV-I 56 W/m² 4,1 °C 9,7 °C 4,8 km/h (1 Bft)
01.11.2018 08:44 9,7 °C 68 % 1009,6 hPa 0,0 mm 4,2 km/h (1 Bft) W 274 ° 0 min 0,000 mm 0,0 UV-I 56 W/m² 4,1 °C 9,7 °C 4,8 km/h (1 Bft)
01.11.2018 08:45 9,7 °C 68 % 1009,4 hPa 0,0 mm 3,8 km/h (1 Bft) W 273 ° 0 min 0,000 mm 0,0 UV-I 58 W/m² 4,1 °C 9,7 °C 4,8 km/h (1 Bft)
01.11.2018 08:46 9,8 °C 69 % 1009,5 hPa 0,0 mm 4,3 km/h (1 Bft) W 273 ° 0 min 0,000 mm 0,0 UV-I 60 W/m² 4,4 °C 9,8 °C 6,4 km/h (2 Bft)
01.11.2018 08:47 9,8 °C 68 % 1009,4 hPa 0,0 mm 4,0 km/h (1 Bft) W 273 ° 0 min 0,000 mm 0,0 UV-I 60 W/m² 4,2 °C 9,8 °C 4,8 km/h (1 Bft)
01.11.2018 08:48 9,8 °C 69 % 1009,3 hPa 0,0 mm 4,3 km/h (1 Bft) W 273 ° 0 min 0,000 mm 0,0 UV-I 62 W/m² 4,4 °C 9,8 °C 4,8 km/h (1 Bft)
01.11.2018 08:49 9,8 °C 69 % 1009,3 hPa 0,0 mm 4,2 km/h (1 Bft) W 273 ° 0 min 0,000 mm 0,0 UV-I 62 W/m² 4,4 °C 9,8 °C 4,8 km/h (1 Bft)
01.11.2018 08:50 9,8 °C 69 % 1009,3 hPa 0,0 mm 1,1 km/h (1 Bft) W 273 ° 0 min 0,000 mm 0,0 UV-I 62 W/m² 4,4 °C 9,8 °C 3,2 km/h (1 Bft)
01.11.2018 08:51 9,9 °C 70 % 1009,3 hPa 0,0 mm 1,3 km/h (1 Bft) W 273 ° 0 min 0,000 mm 0,0 UV-I 63 W/m² 4,7 °C 9,9 °C 3,2 km/h (1 Bft)
01.11.2018 08:52 9,9 °C 70 % 1009,3 hPa 0,0 mm 0,0 km/h (0 Bft) W 273 ° 0 min 0,000 mm 0,0 UV-I 65 W/m² 4,7 °C 9,9 °C 0,0 km/h (0 Bft)
01.11.2018 08:53 9,9 °C 70 % 1009,3 hPa 0,0 mm 0,0 km/h (0 Bft) W 273 ° 0 min 0,000 mm 0,0 UV-I 67 W/m² 4,7 °C 9,9 °C 0,0 km/h (0 Bft)
01.11.2018 08:54 9,9 °C 71 % 1009,4 hPa 0,0 mm 0,0 km/h (0 Bft) W 273 ° 0 min 0,000 mm 0,0 UV-I 69 W/m² 4,9 °C 9,9 °C 0,0 km/h (0 Bft)
01.11.2018 08:55 9,8 °C 73 % 1009,3 hPa 0,0 mm 0,0 km/h (0 Bft) W 273 ° 0 min 0,000 mm 0,0 UV-I 70 W/m² 5,2 °C 9,8 °C 0,0 km/h (0 Bft)
01.11.2018 08:56 9,7 °C 74 % 1009,3 hPa 0,0 mm 0,0 km/h (0 Bft) W 273 ° 0 min 0,000 mm 0,0 UV-I 72 W/m² 5,3 °C 9,7 °C 0,0 km/h (0 Bft)
01.11.2018 08:57 9,6 °C 72 % 1009,3 hPa 0,0 mm 0,0 km/h (0 Bft) W 273 ° 0 min 0,000 mm 0,0 UV-I 76 W/m² 4,8 °C 9,6 °C 0,0 km/h (0 Bft)
01.11.2018 08:58 9,6 °C 72 % 1009,3 hPa 0,0 mm 0,0 km/h (0 Bft) W 273 ° 0 min 0,000 mm 0,0 UV-I 77 W/m² 4,8 °C 9,6 °C 0,0 km/h (0 Bft)
01.11.2018 08:59 9,6 °C 73 % 1009,3 hPa 0,0 mm 0,0 km/h (0 Bft) W 273 ° 0 min 0,000 mm 0,5 UV-I 77 W/m² 5,0 °C 9,6 °C 0,0 km/h (0 Bft)
01.11.2018 09:00 9,6 °C 73 % 1009,3 hPa 0,0 mm 0,0 km/h (0 Bft) W 273 ° 0 min 0,025 mm 0,5 UV-I 79 W/m² 5,0 °C 9,6 °C 0,0 km/h (0 Bft)
01.11.2018 09:01 9,6 °C 71 % 1009,3 hPa 0,0 mm 0,0 km/h (0 Bft) W 273 ° 0 min 0,000 mm 0,5 UV-I 81 W/m² 4,6 °C 9,6 °C 0,0 km/h (0 Bft)
01.11.2018 09:02 9,7 °C 70 % 1009,2 hPa 0,0 mm 0,0 km/h (0 Bft) W 273 ° 0 min 0,000 mm 0,5 UV-I 83 W/m² 4,5 °C 9,7 °C 0,0 km/h (0 Bft)
01.11.2018 09:03 9,7 °C 69 % 1009,2 hPa 0,0 mm 0,0 km/h (0 Bft) W 273 ° 0 min 0,000 mm 0,5 UV-I 86 W/m² 4,3 °C 9,7 °C 0,0 km/h (0 Bft)
01.11.2018 09:04 9,7 °C 70 % 1009,2 hPa 0,0 mm 0,0 km/h (0 Bft) W 273 ° 0 min 0,000 mm 0,5 UV-I 86 W/m² 4,5 °C 9,7 °C 0,0 km/h (0 Bft)
01.11.2018 09:05 9,7 °C 71 % 1009,2 hPa 0,0 mm 2,1 km/h (1 Bft) S-SW 200 ° 0 min 0,000 mm 0,5 UV-I 86 W/m² 4,7 °C 9,7 °C 4,8 km/h (1 Bft)
01.11.2018 09:06 9,8 °C 69 % 1009,3 hPa 0,0 mm 4,7 km/h (1 Bft) S 189 ° 0 min 0,000 mm 0,5 UV-I 84 W/m² 4,4 °C 9,6 °C 6,4 km/h (2 Bft)
01.11.2018 09:07 9,8 °C 69 % 1009,2 hPa 0,0 mm 0,0 km/h (0 Bft) S 189 ° 0 min 0,000 mm 0,5 UV-I 84 W/m² 4,4 °C 9,8 °C 0,0 km/h (0 Bft)
01.11.2018 09:08 9,9 °C 70 % 1009,3 hPa 0,0 mm 3,0 km/h (1 Bft) S 169 ° 0 min 0,000 mm 0,5 UV-I 81 W/m² 4,7 °C 9,9 °C 6,4 km/h (2 Bft)
01.11.2018 09:09 9,9 °C 71 % 1009,3 hPa 0,0 mm 1,3 km/h (1 Bft) S 169 ° 0 min 0,000 mm 0,5 UV-I 79 W/m² 4,9 °C 9,9 °C 3,2 km/h (1 Bft)
01.11.2018 09:10 9,8 °C 73 % 1009,3 hPa 0,0 mm 3,2 km/h (1 Bft) O-SO 117 ° 0 min 0,000 mm 0,5 UV-I 79 W/m² 5,2 °C 9,8 °C 6,4 km/h (2 Bft)
01.11.2018 09:11 9,8 °C 74 % 1009,3 hPa 0,0 mm 3,7 km/h (1 Bft) O-SO 117 ° 0 min 0,000 mm 0,5 UV-I 77 W/m² 5,4 °C 9,8 °C 4,8 km/h (1 Bft)
01.11.2018 09:12 9,8 °C 72 % 1009,3 hPa 0,0 mm 1,7 km/h (1 Bft) O-SO 117 ° 0 min 0,000 mm 0,5 UV-I 77 W/m² 5,0 °C 9,8 °C 3,2 km/h (1 Bft)
01.11.2018 09:13 9,8 °C 72 % 1009,2 hPa 0,0 mm 1,1 km/h (1 Bft) O-SO 117 ° 0 min 0,000 mm 0,5 UV-I 76 W/m² 5,0 °C 9,8 °C 1,6 km/h (1 Bft)
01.11.2018 09:14 9,8 °C 72 % 1009,1 hPa 0,0 mm 3,0 km/h (1 Bft) O-SO 117 ° 0 min 0,000 mm 0,5 UV-I 76 W/m² 5,0 °C 9,8 °C 4,8 km/h (1 Bft)
01.11.2018 09:15 9,8 °C 71 % 1009,0 hPa 0,0 mm 2,7 km/h (1 Bft) O-SO 117 ° 0 min 0,000 mm 0,0 UV-I 72 W/m² 4,8 °C 9,8 °C 3,2 km/h (1 Bft)
01.11.2018 09:16 9,9 °C 71 % 1009,1 hPa 0,0 mm 0,7 km/h (0 Bft) O-SO 117 ° 0 min 0,000 mm 0,0 UV-I 72 W/m² 4,9 °C 9,9 °C 1,6 km/h (1 Bft)
01.11.2018 09:17 9,9 °C 71 % 1009,2 hPa 0,0 mm 0,0 km/h (0 Bft) O-SO 117 ° 0 min 0,000 mm 0,0 UV-I 72 W/m² 4,9 °C 9,9 °C 0,0 km/h (0 Bft)
01.11.2018 09:18 10,0 °C 74 % 1009,2 hPa 0,0 mm 0,0 km/h (0 Bft) O-SO 117 ° 0 min 0,000 mm 0,0 UV-I 72 W/m² 5,6 °C 10,0 °C 0,0 km/h (0 Bft)
01.11.2018 09:19 10,0 °C 73 % 1009,3 hPa 0,0 mm 0,0 km/h (0 Bft) O-SO 117 ° 0 min 0,000 mm 0,0 UV-I 74 W/m² 5,4 °C 10,0 °C 0,0 km/h (0 Bft)
01.11.2018 09:20 10,1 °C 72 % 1009,3 hPa 0,0 mm 0,0 km/h (0 Bft) O-SO 117 ° 0 min 0,000 mm 0,5 UV-I 76 W/m² 5,3 °C 10,1 °C 0,0 km/h (0 Bft)
01.11.2018 09:21 10,1 °C 72 % 1009,3 hPa 0,0 mm 0,0 km/h (0 Bft) O-SO 117 ° 0 min 0,000 mm 0,5 UV-I 81 W/m² 5,3 °C 10,1 °C 0,0 km/h (0 Bft)
01.11.2018 09:22 10,1 °C 74 % 1009,3 hPa 0,0 mm 0,0 km/h (0 Bft) O-SO 117 ° 0 min 0,000 mm 0,5 UV-I 83 W/m² 5,7 °C 10,1 °C 0,0 km/h (0 Bft)
01.11.2018 09:23 10,1 °C 73 % 1009,3 hPa 0,0 mm 0,0 km/h (0 Bft) O-SO 117 ° 0 min 0,000 mm 0,5 UV-I 86 W/m² 5,5 °C 10,1 °C 0,0 km/h (0 Bft)
01.11.2018 09:24 10,2 °C 71 % 1009,4 hPa 0,0 mm 0,1 km/h (0 Bft) O-SO 117 ° 0 min 0,000 mm 0,5 UV-I 88 W/m² 5,2 °C 10,2 °C 1,6 km/h (1 Bft)
01.11.2018 09:25 10,2 °C 71 % 1009,3 hPa 0,0 mm 0,3 km/h (0 Bft) O-SO 117 ° 0 min 0,000 mm 0,5 UV-I 90 W/m² 5,2 °C 10,2 °C 1,6 km/h (1 Bft)
01.11.2018 09:26 10,3 °C 72 % 1009,3 hPa 0,0 mm 0,1 km/h (0 Bft) O-SO 117 ° 0 min 0,000 mm 0,5 UV-I 88 W/m² 5,5 °C 10,3 °C 1,6 km/h (1 Bft)
01.11.2018 09:27 10,4 °C 72 % 1009,3 hPa 0,0 mm 1,6 km/h (1 Bft) O-SO 117 ° 0 min 0,000 mm 0,5 UV-I 86 W/m² 5,6 °C 10,4 °C 3,2 km/h (1 Bft)
01.11.2018 09:28 10,4 °C 73 % 1009,3 hPa 0,0 mm 2,2 km/h (1 Bft) O-SO 117 ° 0 min 0,000 mm 0,5 UV-I 84 W/m² 5,8 °C 10,4 °C 3,2 km/h (1 Bft)
01.11.2018 09:29 10,4 °C 72 % 1009,3 hPa 0,0 mm 1,9 km/h (1 Bft) O-SO 117 ° 0 min 0,000 mm 0,5 UV-I 83 W/m² 5,6 °C 10,4 °C 3,2 km/h (1 Bft)
01.11.2018 09:30 10,6 °C 71 % 1009,3 hPa 0,0 mm 1,3 km/h (1 Bft) O-SO 117 ° 0 min 0,000 mm 0,5 UV-I 81 W/m² 5,6 °C 10,6 °C 3,2 km/h (1 Bft)
01.11.2018 09:31 10,5 °C 75 % 1009,3 hPa 0,0 mm 3,0 km/h (1 Bft) SO 143 ° 0 min 0,000 mm 0,5 UV-I 81 W/m² 6,3 °C 10,5 °C 4,8 km/h (1 Bft)
01.11.2018 09:32 10,6 °C 71 % 1009,4 hPa 0,0 mm 3,5 km/h (1 Bft) SO 143 ° 0 min 0,000 mm 0,5 UV-I 81 W/m² 5,6 °C 10,6 °C 6,4 km/h (2 Bft)
01.11.2018 09:33 10,6 °C 72 % 1009,4 hPa 0,0 mm 0,8 km/h (0 Bft) SO 140 ° 0 min 0,000 mm 0,5 UV-I 81 W/m² 5,8 °C 10,6 °C 3,2 km/h (1 Bft)
01.11.2018 09:34 10,6 °C 71 % 1009,3 hPa 0,0 mm 1,5 km/h (1 Bft) O-SO 115 ° 0 min 0,000 mm 0,5 UV-I 79 W/m² 5,6 °C 10,6 °C 3,2 km/h (1 Bft)
01.11.2018 09:35 10,7 °C 71 % 1009,2 hPa 0,0 mm 3,7 km/h (1 Bft) O-SO 113 ° 0 min 0,000 mm 0,5 UV-I 77 W/m² 5,7 °C 10,7 °C 4,8 km/h (1 Bft)
01.11.2018 09:36 10,8 °C 71 % 1009,2 hPa 0,0 mm 6,9 km/h (2 Bft) O 101 ° 0 min 0,000 mm 0,5 UV-I 76 W/m² 5,8 °C 10,8 °C 9,7 km/h (2 Bft)
01.11.2018 09:37 10,8 °C 73 % 1009,1 hPa 0,0 mm 6,1 km/h (2 Bft) O 100 ° 0 min 0,000 mm 0,5 UV-I 76 W/m² 6,2 °C 10,8 °C 9,7 km/h (2 Bft)
01.11.2018 09:38 10,8 °C 72 % 1009,1 hPa 0,0 mm 4,9 km/h (1 Bft) O 100 ° 0 min 0,000 mm 0,5 UV-I 76 W/m² 6,0 °C 10,8 °C 6,4 km/h (2 Bft)
01.11.2018 09:39 10,8 °C 72 % 1009,0 hPa 0,0 mm 4,1 km/h (1 Bft) O 100 ° 0 min 0,000 mm 0,5 UV-I 76 W/m² 6,0 °C 10,8 °C 6,4 km/h (2 Bft)
01.11.2018 09:40 10,9 °C 71 % 1009,0 hPa 0,0 mm 4,2 km/h (1 Bft) O 100 ° 0 min 0,000 mm 0,5 UV-I 76 W/m² 5,9 °C 10,9 °C 4,8 km/h (1 Bft)
01.11.2018 09:41 10,9 °C 70 % 1009,0 hPa 0,0 mm 4,1 km/h (1 Bft) O 100 ° 0 min 0,000 mm 0,5 UV-I 76 W/m² 5,6 °C 10,9 °C 6,4 km/h (2 Bft)
01.11.2018 09:42 11,0 °C 69 % 1009,0 hPa 0,0 mm 5,1 km/h (1 Bft) O 101 ° 0 min 0,000 mm 0,5 UV-I 77 W/m² 5,5 °C 11,0 °C 6,4 km/h (2 Bft)
01.11.2018 09:43 11,1 °C 70 % 1009,0 hPa 0,0 mm 1,8 km/h (1 Bft) O 101 ° 0 min 0,000 mm 0,5 UV-I 77 W/m² 5,8 °C 11,1 °C 4,8 km/h (1 Bft)
01.11.2018 09:44 11,2 °C 70 % 1009,0 hPa 0,0 mm 2,2 km/h (1 Bft) O 101 ° 0 min 0,000 mm 0,5 UV-I 79 W/m² 5,9 °C 11,2 °C 3,2 km/h (1 Bft)
01.11.2018 09:45 11,2 °C 69 % 1009,1 hPa 0,0 mm 2,2 km/h (1 Bft) O 101 ° 0 min 0,000 mm 0,5 UV-I 83 W/m² 5,7 °C 11,2 °C 3,2 km/h (1 Bft)
01.11.2018 09:46 11,2 °C 69 % 1009,1 hPa 0,0 mm 3,6 km/h (1 Bft) O 101 ° 0 min 0,000 mm 0,5 UV-I 84 W/m² 5,7 °C 11,2 °C 4,8 km/h (1 Bft)
01.11.2018 09:47 11,3 °C 69 % 1009,0 hPa 0,0 mm 2,8 km/h (1 Bft) O 101 ° 0 min 0,000 mm 0,6 UV-I 86 W/m² 5,8 °C 11,3 °C 3,2 km/h (1 Bft)
01.11.2018 09:48 11,3 °C 70 % 1008,9 hPa 0,0 mm 2,7 km/h (1 Bft) O 101 ° 0 min 0,000 mm 0,6 UV-I 90 W/m² 6,0 °C 11,3 °C 3,2 km/h (1 Bft)
01.11.2018 09:49 11,3 °C 69 % 1008,9 hPa 0,0 mm 3,5 km/h (1 Bft) O 101 ° 0 min 0,000 mm 0,6 UV-I 91 W/m² 5,8 °C 11,3 °C 4,8 km/h (1 Bft)
01.11.2018 09:50 11,4 °C 68 % 1008,9 hPa 0,0 mm 4,0 km/h (1 Bft) O 101 ° 0 min 0,000 mm 0,6 UV-I 95 W/m² 5,7 °C 11,4 °C 4,8 km/h (1 Bft)
01.11.2018 09:51 11,4 °C 69 % 1008,9 hPa 0,0 mm 3,4 km/h (1 Bft) O 101 ° 0 min 0,000 mm 0,6 UV-I 95 W/m² 5,9 °C 11,4 °C 4,8 km/h (1 Bft)
01.11.2018 09:52 11,5 °C 69 % 1008,9 hPa 0,0 mm 3,6 km/h (1 Bft) SO 132 ° 0 min 0,000 mm 0,6 UV-I 97 W/m² 6,0 °C 11,5 °C 4,8 km/h (1 Bft)
01.11.2018 09:53 11,5 °C 70 % 1008,9 hPa 0,0 mm 2,7 km/h (1 Bft) SO 132 ° 0 min 0,000 mm 0,6 UV-I 97 W/m² 6,2 °C 11,5 °C 3,2 km/h (1 Bft)
01.11.2018 09:54 11,5 °C 71 % 1008,9 hPa 0,0 mm 2,9 km/h (1 Bft) SO 132 ° 0 min 0,000 mm 0,6 UV-I 98 W/m² 6,4 °C 11,5 °C 4,8 km/h (1 Bft)
01.11.2018 09:55 11,4 °C 72 % 1008,9 hPa 0,0 mm 1,9 km/h (1 Bft) SO 132 ° 0 min 0,000 mm 0,6 UV-I 98 W/m² 6,5 °C 11,4 °C 3,2 km/h (1 Bft)
01.11.2018 09:56 11,4 °C 73 % 1008,9 hPa 0,0 mm 2,5 km/h (1 Bft) SO 132 ° 0 min 0,000 mm 0,6 UV-I 98 W/m² 6,7 °C 11,4 °C 4,8 km/h (1 Bft)
01.11.2018 09:57 11,4 °C 71 % 1008,9 hPa 0,0 mm 2,5 km/h (1 Bft) SO 132 ° 0 min 0,000 mm 0,6 UV-I 97 W/m² 6,3 °C 11,4 °C 3,2 km/h (1 Bft)
01.11.2018 09:58 11,4 °C 70 % 1008,9 hPa 0,0 mm 1,9 km/h (1 Bft) SO 132 ° 0 min 0,000 mm 0,6 UV-I 97 W/m² 6,1 °C 11,4 °C 3,2 km/h (1 Bft)
01.11.2018 09:59 11,5 °C 70 % 1008,8 hPa 0,0 mm 0,6 km/h (0 Bft) SO 132 ° 0 min 0,000 mm 0,6 UV-I 95 W/m² 6,2 °C 11,5 °C 1,6 km/h (1 Bft)
01.11.2018 10:00 11,6 °C 70 % 1008,8 hPa 0,0 mm 0,8 km/h (0 Bft) SO 132 ° 0 min 0,051 mm 0,6 UV-I 95 W/m² 6,3 °C 11,6 °C 3,2 km/h (1 Bft)
01.11.2018 10:01 11,7 °C 68 % 1008,8 hPa 0,0 mm 2,3 km/h (1 Bft) SO 132 ° 0 min 0,000 mm 0,6 UV-I 95 W/m² 6,0 °C 11,7 °C 3,2 km/h (1 Bft)
01.11.2018 10:02 11,7 °C 68 % 1008,8 hPa 0,0 mm 3,1 km/h (1 Bft) SO 132 ° 0 min 0,000 mm 0,6 UV-I 95 W/m² 6,0 °C 11,7 °C 4,8 km/h (1 Bft)
01.11.2018 10:03 11,8 °C 68 % 1008,8 hPa 0,0 mm 2,8 km/h (1 Bft) SO 132 ° 0 min 0,000 mm 0,6 UV-I 95 W/m² 6,1 °C 11,8 °C 4,8 km/h (1 Bft)
01.11.2018 10:04 11,9 °C 68 % 1008,8 hPa 0,0 mm 3,6 km/h (1 Bft) SO 132 ° 0 min 0,000 mm 0,6 UV-I 95 W/m² 6,2 °C 11,9 °C 4,8 km/h (1 Bft)
01.11.2018 10:05 11,9 °C 71 % 1008,7 hPa 0,0 mm 2,5 km/h (1 Bft) SO 132 ° 0 min 0,000 mm 0,6 UV-I 95 W/m² 6,8 °C 11,9 °C 4,8 km/h (1 Bft)
01.11.2018 10:06 11,8 °C 72 % 1008,6 hPa 0,0 mm 2,4 km/h (1 Bft) SO 132 ° 0 min 0,000 mm 0,6 UV-I 95 W/m² 6,9 °C 11,8 °C 3,2 km/h (1 Bft)
01.11.2018 10:07 11,8 °C 70 % 1008,5 hPa 0,0 mm 1,1 km/h (1 Bft) SO 132 ° 0 min 0,000 mm 0,6 UV-I 95 W/m² 6,5 °C 11,8 °C 3,2 km/h (1 Bft)
01.11.2018 10:08 11,8 °C 68 % 1008,4 hPa 0,0 mm 0,0 km/h (0 Bft) SO 132 ° 0 min 0,000 mm 0,6 UV-I 95 W/m² 6,1 °C 11,8 °C 0,0 km/h (0 Bft)
01.11.2018 10:09 11,8 °C 67 % 1008,4 hPa 0,0 mm 0,0 km/h (0 Bft) SO 132 ° 0 min 0,000 mm 0,6 UV-I 95 W/m² 5,9 °C 11,8 °C 0,0 km/h (0 Bft)
01.11.2018 10:10 11,9 °C 70 % 1008,5 hPa 0,0 mm 0,0 km/h (0 Bft) SO 132 ° 0 min 0,000 mm 0,6 UV-I 95 W/m² 6,6 °C 11,9 °C 0,0 km/h (0 Bft)
01.11.2018 10:11 11,8 °C 72 % 1008,6 hPa 0,0 mm 0,1 km/h (0 Bft) SO 132 ° 0 min 0,000 mm 0,6 UV-I 95 W/m² 6,9 °C 11,8 °C 1,6 km/h (1 Bft)
01.11.2018 10:12 11,7 °C 71 % 1008,8 hPa 0,0 mm 2,7 km/h (1 Bft) SO 132 ° 0 min 0,000 mm 0,6 UV-I 93 W/m² 6,6 °C 11,7 °C 3,2 km/h (1 Bft)
01.11.2018 10:13 11,7 °C 71 % 1009,0 hPa 0,0 mm 2,1 km/h (1 Bft) SO 135 ° 0 min 0,000 mm 0,6 UV-I 93 W/m² 6,6 °C 11,7 °C 3,2 km/h (1 Bft)
01.11.2018 10:14 11,7 °C 71 % 1009,0 hPa 0,0 mm 3,2 km/h (1 Bft) W-SW 240 ° 0 min 0,000 mm 0,6 UV-I 93 W/m² 6,6 °C 11,7 °C 4,8 km/h (1 Bft)
01.11.2018 10:15 11,7 °C 72 % 1009,1 hPa 0,0 mm 1,3 km/h (1 Bft) W-SW 240 ° 0 min 0,000 mm 0,6 UV-I 93 W/m² 6,8 °C 11,7 °C 3,2 km/h (1 Bft)
01.11.2018 10:16 11,7 °C 73 % 1009,2 hPa 0,0 mm 1,1 km/h (1 Bft) W-SW 240 ° 0 min 0,000 mm 0,6 UV-I 93 W/m² 7,0 °C 11,7 °C 1,6 km/h (1 Bft)
01.11.2018 10:17 11,8 °C 74 % 1009,3 hPa 0,0 mm 0,7 km/h (0 Bft) W-SW 240 ° 0 min 0,000 mm 0,6 UV-I 95 W/m² 7,3 °C 11,8 °C 3,2 km/h (1 Bft)
01.11.2018 10:18 11,7 °C 73 % 1009,3 hPa 0,0 mm 0,0 km/h (0 Bft) W-SW 240 ° 0 min 0,000 mm 0,7 UV-I 95 W/m² 7,0 °C 11,7 °C 0,0 km/h (0 Bft)
01.11.2018 10:19 11,6 °C 73 % 1009,2 hPa 0,0 mm 2,3 km/h (1 Bft) SW 221 ° 0 min 0,000 mm 0,7 UV-I 98 W/m² 6,9 °C 11,6 °C 3,2 km/h (1 Bft)
01.11.2018 10:20 11,6 °C 74 % 1009,2 hPa 0,0 mm 3,1 km/h (1 Bft) S 178 ° 0 min 0,000 mm 0,7 UV-I 98 W/m² 7,1 °C 11,6 °C 3,2 km/h (1 Bft)
01.11.2018 10:21 11,5 °C 75 % 1009,2 hPa 0,0 mm 2,4 km/h (1 Bft) S 178 ° 0 min 0,000 mm 0,7 UV-I 98 W/m² 7,2 °C 11,5 °C 3,2 km/h (1 Bft)
01.11.2018 10:22 11,4 °C 74 % 1009,1 hPa 0,0 mm 1,6 km/h (1 Bft) S 178 ° 0 min 0,000 mm 0,7 UV-I 98 W/m² 6,9 °C 11,4 °C 3,2 km/h (1 Bft)
01.11.2018 10:23 11,3 °C 77 % 1009,0 hPa 0,0 mm 1,3 km/h (1 Bft) S 178 ° 0 min 0,000 mm 0,7 UV-I 98 W/m² 7,4 °C 11,3 °C 3,2 km/h (1 Bft)
01.11.2018 10:24 11,2 °C 77 % 1009,0 hPa 0,0 mm 0,0 km/h (0 Bft) S 178 ° 0 min 0,000 mm 0,7 UV-I 98 W/m² 7,3 °C 11,2 °C 0,0 km/h (0 Bft)
01.11.2018 10:25 11,2 °C 77 % 1009,0 hPa 0,0 mm 0,0 km/h (0 Bft) S 178 ° 0 min 0,000 mm 0,7 UV-I 97 W/m² 7,3 °C 11,2 °C 0,0 km/h (0 Bft)
01.11.2018 10:26 11,2 °C 77 % 1009,1 hPa 0,0 mm 0,1 km/h (0 Bft) S 178 ° 0 min 0,000 mm 0,7 UV-I 97 W/m² 7,3 °C 11,2 °C 1,6 km/h (1 Bft)
01.11.2018 10:27 11,2 °C 77 % 1009,0 hPa 0,0 mm 0,0 km/h (0 Bft) S 178 ° 0 min 0,000 mm 0,7 UV-I 98 W/m² 7,3 °C 11,2 °C 0,0 km/h (0 Bft)
01.11.2018 10:28 11,2 °C 76 % 1008,9 hPa 0,0 mm 0,6 km/h (0 Bft) S 178 ° 0 min 0,000 mm 0,7 UV-I 97 W/m² 7,1 °C 11,2 °C 1,6 km/h (1 Bft)
01.11.2018 10:29 11,3 °C 76 % 1009,0 hPa 0,0 mm 0,3 km/h (0 Bft) S 178 ° 0 min 0,000 mm 0,7 UV-I 97 W/m² 7,2 °C 11,3 °C 1,6 km/h (1 Bft)
01.11.2018 10:30 11,4 °C 75 % 1009,1 hPa 0,0 mm 0,0 km/h (0 Bft) S 178 ° 0 min 0,000 mm 0,7 UV-I 95 W/m² 7,1 °C 11,4 °C 0,0 km/h (0 Bft)
01.11.2018 10:31 11,5 °C 75 % 1009,2 hPa 0,0 mm 0,0 km/h (0 Bft) S 178 ° 0 min 0,000 mm 0,7 UV-I 95 W/m² 7,2 °C 11,5 °C 0,0 km/h (0 Bft)
01.11.2018 10:32 11,7 °C 73 % 1009,3 hPa 0,0 mm 0,0 km/h (0 Bft) S 178 ° 0 min 0,000 mm 0,7 UV-I 97 W/m² 7,0 °C 11,7 °C 0,0 km/h (0 Bft)
01.11.2018 10:33 11,8 °C 71 % 1009,4 hPa 0,0 mm 1,5 km/h (1 Bft) S 178 ° 0 min 0,000 mm 0,7 UV-I 97 W/m² 6,7 °C 11,8 °C 3,2 km/h (1 Bft)
01.11.2018 10:34 11,9 °C 72 % 1009,5 hPa 0,0 mm 2,1 km/h (1 Bft) S 178 ° 0 min 0,000 mm 0,7 UV-I 98 W/m² 7,0 °C 11,9 °C 3,2 km/h (1 Bft)
01.11.2018 10:35 12,1 °C 71 % 1009,6 hPa 0,0 mm 2,3 km/h (1 Bft) S 178 ° 0 min 0,000 mm 0,8 UV-I 102 W/m² 7,0 °C 12,1 °C 3,2 km/h (1 Bft)
01.11.2018 10:36 12,1 °C 71 % 1009,7 hPa 0,0 mm 2,8 km/h (1 Bft) S 178 ° 0 min 0,000 mm 0,8 UV-I 105 W/m² 7,0 °C 12,1 °C 3,2 km/h (1 Bft)
01.11.2018 10:37 12,1 °C 71 % 1009,7 hPa 0,0 mm 2,7 km/h (1 Bft) S 178 ° 0 min 0,000 mm 0,8 UV-I 109 W/m² 7,0 °C 12,1 °C 3,2 km/h (1 Bft)
01.11.2018 10:38 12,2 °C 69 % 1009,7 hPa 0,0 mm 1,9 km/h (1 Bft) S 178 ° 0 min 0,000 mm 0,8 UV-I 111 W/m² 6,7 °C 12,2 °C 3,2 km/h (1 Bft)
01.11.2018 10:39 12,2 °C 68 % 1009,7 hPa 0,0 mm 1,5 km/h (1 Bft) S 178 ° 0 min 0,000 mm 0,9 UV-I 113 W/m² 6,5 °C 12,2 °C 3,2 km/h (1 Bft)
01.11.2018 10:40 12,3 °C 67 % 1009,7 hPa 0,0 mm 2,1 km/h (1 Bft) S 178 ° 0 min 0,000 mm 0,9 UV-I 113 W/m² 6,4 °C 12,3 °C 3,2 km/h (1 Bft)
01.11.2018 10:41 12,4 °C 66 % 1009,8 hPa 0,0 mm 1,1 km/h (1 Bft) S 178 ° 0 min 0,000 mm 0,9 UV-I 114 W/m² 6,2 °C 12,4 °C 3,2 km/h (1 Bft)
01.11.2018 10:42 12,6 °C 67 % 1009,7 hPa 0,0 mm 0,0 km/h (0 Bft) S 178 ° 0 min 0,000 mm 0,9 UV-I 116 W/m² 6,6 °C 12,6 °C 0,0 km/h (0 Bft)
01.11.2018 10:43 12,5 °C 72 % 1009,7 hPa 0,0 mm 0,0 km/h (0 Bft) S 178 ° 0 min 0,000 mm 0,9 UV-I 120 W/m² 7,6 °C 12,5 °C 0,0 km/h (0 Bft)
01.11.2018 10:44 12,3 °C 73 % 1009,7 hPa 0,0 mm 3,0 km/h (1 Bft) NW 325 ° 0 min 0,000 mm 0,9 UV-I 123 W/m² 7,6 °C 12,3 °C 12,9 km/h (3 Bft)
01.11.2018 10:45 12,2 °C 72 % 1009,7 hPa 0,0 mm 10,7 km/h (2 Bft) N-NW 327 ° 0 min 0,000 mm 1,0 UV-I 125 W/m² 7,3 °C 12,2 °C 14,5 km/h (3 Bft)
01.11.2018 10:46 12,1 °C 72 % 1009,8 hPa 0,0 mm 5,1 km/h (1 Bft) W-NW 287 ° 0 min 0,000 mm 1,0 UV-I 128 W/m² 7,2 °C 12,1 °C 9,7 km/h (2 Bft)
01.11.2018 10:47 11,9 °C 71 % 1009,9 hPa 0,0 mm 3,2 km/h (1 Bft) NW 315 ° 0 min 0,000 mm 1,0 UV-I 132 W/m² 6,8 °C 11,9 °C 6,4 km/h (2 Bft)
01.11.2018 10:48 11,8 °C 71 % 1009,9 hPa 0,0 mm 4,3 km/h (1 Bft) W 260 ° 0 min 0,000 mm 1,0 UV-I 135 W/m² 6,7 °C 11,8 °C 6,4 km/h (2 Bft)
01.11.2018 10:49 11,7 °C 71 % 1009,9 hPa 0,0 mm 5,1 km/h (1 Bft) W 269 ° 0 min 0,000 mm 1,1 UV-I 142 W/m² 6,6 °C 11,7 °C 6,4 km/h (2 Bft)
01.11.2018 10:50 11,6 °C 71 % 1010,0 hPa 0,0 mm 3,6 km/h (1 Bft) W 269 ° 0 min 0,000 mm 1,1 UV-I 144 W/m² 6,5 °C 11,6 °C 6,4 km/h (2 Bft)
01.11.2018 10:51 11,6 °C 72 % 1010,0 hPa 0,0 mm 2,7 km/h (1 Bft) W 269 ° 0 min 0,000 mm 1,1 UV-I 148 W/m² 6,7 °C 11,6 °C 4,8 km/h (1 Bft)
01.11.2018 10:52 11,6 °C 74 % 1010,1 hPa 0,0 mm 2,8 km/h (1 Bft) W-SW 254 ° 0 min 0,000 mm 1,2 UV-I 151 W/m² 7,1 °C 11,6 °C 4,8 km/h (1 Bft)
01.11.2018 10:53 11,6 °C 72 % 1010,1 hPa 0,0 mm 2,3 km/h (1 Bft) W-SW 254 ° 0 min 0,000 mm 1,2 UV-I 158 W/m² 6,7 °C 11,6 °C 4,8 km/h (1 Bft)
01.11.2018 10:54 11,7 °C 72 % 1010,0 hPa 0,0 mm 1,7 km/h (1 Bft) W-SW 254 ° 0 min 0,000 mm 1,2 UV-I 167 W/m² 6,8 °C 11,7 °C 3,2 km/h (1 Bft)
01.11.2018 10:55 11,7 °C 72 % 1010,0 hPa 0,0 mm 0,2 km/h (0 Bft) W-SW 254 ° 0 min 0,000 mm 1,2 UV-I 171 W/m² 6,8 °C 11,7 °C 1,6 km/h (1 Bft)
01.11.2018 10:56 11,8 °C 72 % 1010,0 hPa 0,0 mm 1,7 km/h (1 Bft) W-SW 254 ° 0 min 0,000 mm 1,3 UV-I 172 W/m² 6,9 °C 11,8 °C 3,2 km/h (1 Bft)
01.11.2018 10:57 11,9 °C 70 % 1009,9 hPa 0,0 mm 1,7 km/h (1 Bft) W-SW 253 ° 0 min 0,000 mm 1,3 UV-I 176 W/m² 6,6 °C 11,9 °C 3,2 km/h (1 Bft)
01.11.2018 10:58 12,1 °C 69 % 1010,0 hPa 0,0 mm 2,0 km/h (1 Bft) W-SW 252 ° 0 min 0,000 mm 1,3 UV-I 181 W/m² 6,6 °C 12,1 °C 3,2 km/h (1 Bft)
01.11.2018 10:59 12,2 °C 68 % 1010,0 hPa 0,0 mm 2,6 km/h (1 Bft) S-SW 201 ° 0 min 0,000 mm 1,3 UV-I 183 W/m² 6,5 °C 12,2 °C 3,2 km/h (1 Bft)
01.11.2018 11:00 12,3 °C 68 % 1010,0 hPa 0,0 mm 2,0 km/h (1 Bft) S-SW 201 ° 0 min 0,000 mm 1,3 UV-I 188 W/m² 6,6 °C 12,3 °C 3,2 km/h (1 Bft)
01.11.2018 11:01 12,4 °C 67 % 1010,0 hPa 0,0 mm 2,6 km/h (1 Bft) S-SW 201 ° 0 min 0,076 mm 1,4 UV-I 190 W/m² 6,4 °C 12,4 °C 3,2 km/h (1 Bft)
01.11.2018 11:02 12,5 °C 67 % 1009,9 hPa 0,0 mm 2,4 km/h (1 Bft) S-SW 201 ° 0 min 0,000 mm 1,4 UV-I 193 W/m² 6,5 °C 12,5 °C 3,2 km/h (1 Bft)
01.11.2018 11:03 12,6 °C 66 % 1009,9 hPa 0,0 mm 1,9 km/h (1 Bft) S-SW 201 ° 0 min 0,000 mm 1,4 UV-I 197 W/m² 6,4 °C 12,6 °C 3,2 km/h (1 Bft)
01.11.2018 11:04 12,7 °C 67 % 1009,9 hPa 0,0 mm 0,0 km/h (0 Bft) S-SW 201 ° 0 min 0,000 mm 1,4 UV-I 195 W/m² 6,7 °C 12,7 °C 0,0 km/h (0 Bft)
01.11.2018 11:05 12,8 °C 62 % 1009,9 hPa 0,0 mm 0,5 km/h (0 Bft) S-SW 201 ° 0 min 0,000 mm 1,4 UV-I 192 W/m² 5,7 °C 12,8 °C 1,6 km/h (1 Bft)
01.11.2018 11:06 13,0 °C 63 % 1009,9 hPa 0,0 mm 0,0 km/h (0 Bft) S-SW 201 ° 0 min 0,000 mm 1,4 UV-I 186 W/m² 6,1 °C 13,0 °C 0,0 km/h (0 Bft)
01.11.2018 11:07 13,1 °C 64 % 1009,8 hPa 0,0 mm 0,2 km/h (0 Bft) S-SW 201 ° 0 min 0,000 mm 1,4 UV-I 186 W/m² 6,4 °C 13,1 °C 1,6 km/h (1 Bft)
01.11.2018 11:08 13,1 °C 64 % 1009,8 hPa 0,0 mm 0,0 km/h (0 Bft) S-SW 201 ° 0 min 0,000 mm 1,4 UV-I 185 W/m² 6,4 °C 13,1 °C 0,0 km/h (0 Bft)
01.11.2018 11:09 13,2 °C 67 % 1009,7 hPa 0,0 mm 0,0 km/h (0 Bft) S-SW 201 ° 0 min 0,000 mm 1,4 UV-I 185 W/m² 7,2 °C 13,2 °C 0,0 km/h (0 Bft)
01.11.2018 11:10 13,1 °C 67 % 1009,7 hPa 0,0 mm 0,0 km/h (0 Bft) S-SW 201 ° 0 min 0,000 mm 1,4 UV-I 190 W/m² 7,1 °C 13,1 °C 0,0 km/h (0 Bft)
01.11.2018 11:11 13,1 °C 67 % 1009,6 hPa 0,0 mm 0,0 km/h (0 Bft) S-SW 201 ° 0 min 0,000 mm 1,4 UV-I 195 W/m² 7,1 °C 13,1 °C 0,0 km/h (0 Bft)
01.11.2018 11:12 13,1 °C 68 % 1009,6 hPa 0,0 mm 0,0 km/h (0 Bft) S-SW 201 ° 0 min 0,000 mm 1,4 UV-I 197 W/m² 7,3 °C 13,1 °C 0,0 km/h (0 Bft)
01.11.2018 11:13 13,2 °C 70 % 1009,6 hPa 0,0 mm 0,0 km/h (0 Bft) S-SW 201 ° 0 min 0,000 mm 1,4 UV-I 192 W/m² 7,9 °C 13,2 °C 0,0 km/h (0 Bft)
01.11.2018 11:14 13,2 °C 70 % 1009,7 hPa 0,0 mm 0,0 km/h (0 Bft) S-SW 201 ° 0 min 0,000 mm 1,4 UV-I 190 W/m² 7,9 °C 13,2 °C 0,0 km/h (0 Bft)
01.11.2018 11:15 13,3 °C 68 % 1009,7 hPa 0,0 mm 0,0 km/h (0 Bft) S-SW 201 ° 0 min 0,000 mm 1,4 UV-I 190 W/m² 7,5 °C 13,3 °C 0,0 km/h (0 Bft)
01.11.2018 11:16 13,3 °C 68 % 1009,7 hPa 0,0 mm 0,0 km/h (0 Bft) S-SW 201 ° 0 min 0,000 mm 1,4 UV-I 192 W/m² 7,5 °C 13,3 °C 0,0 km/h (0 Bft)
01.11.2018 11:17 13,3 °C 69 % 1009,6 hPa 0,0 mm 0,0 km/h (0 Bft) S-SW 201 ° 0 min 0,000 mm 1,5 UV-I 193 W/m² 7,7 °C 13,3 °C 0,0 km/h (0 Bft)
01.11.2018 11:18 13,3 °C 71 % 1009,5 hPa 0,0 mm 0,6 km/h (0 Bft) S-SW 201 ° 0 min 0,000 mm 1,5 UV-I 197 W/m² 8,2 °C 13,3 °C 3,2 km/h (1 Bft)
01.11.2018 11:19 13,2 °C 70 % 1009,5 hPa 0,0 mm 2,7 km/h (1 Bft) S-SW 201 ° 0 min 0,000 mm 1,5 UV-I 200 W/m² 7,9 °C 13,2 °C 3,2 km/h (1 Bft)
01.11.2018 11:20 13,2 °C 69 % 1009,5 hPa 0,0 mm 2,7 km/h (1 Bft) NW 304 ° 0 min 0,000 mm 1,5 UV-I 202 W/m² 7,6 °C 13,2 °C 4,8 km/h (1 Bft)
01.11.2018 11:21 13,3 °C 67 % 1009,5 hPa 0,0 mm 2,4 km/h (1 Bft) N-NW 331 ° 0 min 0,000 mm 1,5 UV-I 202 W/m² 7,3 °C 13,3 °C 4,8 km/h (1 Bft)
01.11.2018 11:22 13,4 °C 65 % 1009,5 hPa 0,0 mm 1,4 km/h (1 Bft) N-NW 331 ° 0 min 0,000 mm 1,5 UV-I 199 W/m² 7,0 °C 13,4 °C 4,8 km/h (1 Bft)
01.11.2018 11:23 13,4 °C 65 % 1009,5 hPa 0,0 mm 1,7 km/h (1 Bft) N-NW 331 ° 0 min 0,000 mm 1,5 UV-I 199 W/m² 7,0 °C 13,4 °C 3,2 km/h (1 Bft)
01.11.2018 11:24 13,5 °C 65 % 1009,5 hPa 0,0 mm 1,2 km/h (1 Bft) N-NW 331 ° 0 min 0,000 mm 1,5 UV-I 195 W/m² 7,1 °C 13,5 °C 1,6 km/h (1 Bft)
01.11.2018 11:25 13,6 °C 67 % 1009,4 hPa 0,0 mm 2,2 km/h (1 Bft) N-NW 331 ° 0 min 0,000 mm 1,5 UV-I 193 W/m² 7,6 °C 13,6 °C 3,2 km/h (1 Bft)
01.11.2018 11:26 13,6 °C 65 % 1009,4 hPa 0,0 mm 0,0 km/h (0 Bft) N-NW 331 ° 0 min 0,000 mm 1,5 UV-I 193 W/m² 7,1 °C 13,6 °C 0,0 km/h (0 Bft)
01.11.2018 11:27 13,6 °C 63 % 1009,4 hPa 0,0 mm 1,1 km/h (1 Bft) N-NW 332 ° 0 min 0,000 mm 1,5 UV-I 192 W/m² 6,7 °C 13,6 °C 3,2 km/h (1 Bft)
01.11.2018 11:28 13,6 °C 62 % 1009,5 hPa 0,0 mm 0,8 km/h (0 Bft) N-NW 332 ° 0 min 0,000 mm 1,5 UV-I 192 W/m² 6,5 °C 13,6 °C 3,2 km/h (1 Bft)
01.11.2018 11:29 13,7 °C 62 % 1009,5 hPa 0,0 mm 0,0 km/h (0 Bft) N-NW 332 ° 0 min 0,000 mm 1,5 UV-I 192 W/m² 6,6 °C 13,7 °C 0,0 km/h (0 Bft)
01.11.2018 11:30 13,7 °C 61 % 1009,5 hPa 0,0 mm 0,0 km/h (0 Bft) N-NW 332 ° 0 min 0,000 mm 1,5 UV-I 193 W/m² 6,3 °C 13,7 °C 0,0 km/h (0 Bft)
01.11.2018 11:31 13,7 °C 62 % 1009,5 hPa 0,0 mm 0,0 km/h (0 Bft) N-NW 332 ° 0 min 0,000 mm 1,5 UV-I 195 W/m² 6,6 °C 13,7 °C 0,0 km/h (0 Bft)
01.11.2018 11:32 13,7 °C 61 % 1009,4 hPa 0,0 mm 0,0 km/h (0 Bft) N-NW 332 ° 0 min 0,000 mm 1,5 UV-I 197 W/m² 6,3 °C 13,7 °C 0,0 km/h (0 Bft)
01.11.2018 11:33 13,7 °C 67 % 1009,4 hPa 0,0 mm 0,0 km/h (0 Bft) N-NW 332 ° 0 min 0,000 mm 1,5 UV-I 199 W/m² 7,7 °C 13,7 °C 0,0 km/h (0 Bft)
01.11.2018 11:34 13,7 °C 66 % 1009,4 hPa 0,0 mm 0,0 km/h (0 Bft) N-NW 332 ° 0 min 0,000 mm 1,5 UV-I 202 W/m² 7,5 °C 13,7 °C 0,0 km/h (0 Bft)
01.11.2018 11:35 13,6 °C 62 % 1009,4 hPa 0,0 mm 0,0 km/h (0 Bft) N-NW 332 ° 0 min 0,000 mm 1,5 UV-I 206 W/m² 6,5 °C 13,6 °C 0,0 km/h (0 Bft)
01.11.2018 11:36 13,7 °C 60 % 1009,3 hPa 0,0 mm 0,0 km/h (0 Bft) N-NW 332 ° 0 min 0,000 mm 1,5 UV-I 202 W/m² 6,1 °C 13,7 °C 0,0 km/h (0 Bft)
01.11.2018 11:37 13,7 °C 61 % 1009,4 hPa 0,0 mm 0,0 km/h (0 Bft) N-NW 332 ° 0 min 0,000 mm 1,5 UV-I 199 W/m² 6,3 °C 13,7 °C 0,0 km/h (0 Bft)
01.11.2018 11:38 13,8 °C 59 % 1009,4 hPa 0,0 mm 0,0 km/h (0 Bft) N-NW 331 ° 0 min 0,000 mm 1,5 UV-I 197 W/m² 5,9 °C 13,8 °C 0,0 km/h (0 Bft)
01.11.2018 11:39 13,8 °C 58 % 1009,4 hPa 0,0 mm 0,0 km/h (0 Bft) N-NW 331 ° 0 min 0,000 mm 1,5 UV-I 197 W/m² 5,7 °C 13,8 °C 0,0 km/h (0 Bft)
01.11.2018 11:40 13,9 °C 60 % 1009,4 hPa 0,0 mm 0,0 km/h (0 Bft) N-NW 331 ° 0 min 0,000 mm 1,5 UV-I 199 W/m² 6,3 °C 13,9 °C 0,0 km/h (0 Bft)
01.11.2018 11:41 13,9 °C 62 % 1009,4 hPa 0,0 mm 0,0 km/h (0 Bft) N-NW 331 ° 0 min 0,000 mm 1,5 UV-I 202 W/m² 6,7 °C 13,9 °C 0,0 km/h (0 Bft)
01.11.2018 11:42 13,9 °C 63 % 1009,4 hPa 0,0 mm 0,3 km/h (0 Bft) N-NW 331 ° 0 min 0,000 mm 1,5 UV-I 199 W/m² 7,0 °C 13,9 °C 1,6 km/h (1 Bft)
01.11.2018 11:43 14,0 °C 62 % 1009,4 hPa 0,0 mm 2,6 km/h (1 Bft) S 191 ° 0 min 0,000 mm 1,5 UV-I 195 W/m² 6,8 °C 14,0 °C 3,2 km/h (1 Bft)
01.11.2018 11:44 14,1 °C 60 % 1009,4 hPa 0,0 mm 0,9 km/h (0 Bft) S 191 ° 0 min 0,000 mm 1,4 UV-I 192 W/m² 6,5 °C 14,1 °C 3,2 km/h (1 Bft)
01.11.2018 11:45 14,3 °C 58 % 1009,5 hPa 0,0 mm 0,0 km/h (0 Bft) S 191 ° 0 min 0,000 mm 1,4 UV-I 190 W/m² 6,2 °C 14,3 °C 0,0 km/h (0 Bft)
01.11.2018 11:46 14,3 °C 62 % 1009,4 hPa 0,0 mm 0,0 km/h (0 Bft) S 191 ° 0 min 0,000 mm 1,4 UV-I 192 W/m² 7,1 °C 14,3 °C 0,0 km/h (0 Bft)
01.11.2018 11:47 14,3 °C 62 % 1009,4 hPa 0,0 mm 0,0 km/h (0 Bft) S 191 ° 0 min 0,000 mm 1,4 UV-I 197 W/m² 7,1 °C 14,3 °C 0,0 km/h (0 Bft)
01.11.2018 11:48 14,2 °C 66 % 1009,4 hPa 0,0 mm 0,0 km/h (0 Bft) S 191 ° 0 min 0,000 mm 1,4 UV-I 197 W/m² 7,9 °C 14,2 °C 0,0 km/h (0 Bft)
01.11.2018 11:49 14,2 °C 60 % 1009,3 hPa 0,0 mm 0,0 km/h (0 Bft) S 191 ° 0 min 0,000 mm 1,4 UV-I 195 W/m² 6,5 °C 14,2 °C 0,0 km/h (0 Bft)
01.11.2018 11:50 14,2 °C 60 % 1009,3 hPa 0,0 mm 0,0 km/h (0 Bft) S 191 ° 0 min 0,000 mm 1,4 UV-I 197 W/m² 6,5 °C 14,2 °C 0,0 km/h (0 Bft)
01.11.2018 11:51 14,3 °C 64 % 1009,3 hPa 0,0 mm 0,0 km/h (0 Bft) S 191 ° 0 min 0,000 mm 1,4 UV-I 197 W/m² 7,6 °C 14,3 °C 0,0 km/h (0 Bft)
01.11.2018 11:52 14,3 °C 61 % 1009,2 hPa 0,0 mm 0,0 km/h (0 Bft) S 191 ° 0 min 0,000 mm 1,4 UV-I 197 W/m² 6,9 °C 14,3 °C 0,0 km/h (0 Bft)
01.11.2018 11:53 14,2 °C 63 % 1009,2 hPa 0,0 mm 0,0 km/h (0 Bft) S 191 ° 0 min 0,000 mm 1,4 UV-I 195 W/m² 7,3 °C 14,2 °C 0,0 km/h (0 Bft)
01.11.2018 11:54 14,2 °C 62 % 1009,2 hPa 0,0 mm 0,0 km/h (0 Bft) S 191 ° 0 min 0,000 mm 1,4 UV-I 195 W/m² 7,0 °C 14,2 °C 0,0 km/h (0 Bft)
01.11.2018 11:55 14,2 °C 65 % 1009,2 hPa 0,0 mm 0,3 km/h (0 Bft) S 191 ° 0 min 0,000 mm 1,4 UV-I 195 W/m² 7,7 °C 14,2 °C 3,2 km/h (1 Bft)
01.11.2018 11:56 14,2 °C 67 % 1009,1 hPa 0,0 mm 4,2 km/h (1 Bft) S-SO 167 ° 0 min 0,000 mm 1,4 UV-I 197 W/m² 8,2 °C 14,2 °C 6,4 km/h (2 Bft)
01.11.2018 11:57 14,1 °C 68 % 1009,0 hPa 0,0 mm 3,5 km/h (1 Bft) O 94 ° 0 min 0,000 mm 1,4 UV-I 200 W/m² 8,3 °C 14,1 °C 4,8 km/h (1 Bft)
01.11.2018 11:58 14,1 °C 67 % 1009,1 hPa 0,0 mm 3,0 km/h (1 Bft) O 94 ° 0 min 0,000 mm 1,4 UV-I 206 W/m² 8,1 °C 14,1 °C 4,8 km/h (1 Bft)
01.11.2018 11:59 14,1 °C 66 % 1009,0 hPa 0,0 mm 3,2 km/h (1 Bft) O 94 ° 0 min 0,000 mm 1,5 UV-I 211 W/m² 7,8 °C 14,1 °C 6,4 km/h (2 Bft)
01.11.2018 12:00 14,2 °C 62 % 1009,0 hPa 0,0 mm 1,0 km/h (0 Bft) O 94 ° 0 min 0,000 mm 1,5 UV-I 211 W/m² 7,0 °C 14,2 °C 1,6 km/h (1 Bft)
01.11.2018 12:01 14,4 °C 64 % 1009,0 hPa 0,0 mm 2,0 km/h (1 Bft) O 94 ° 0 min 0,102 mm 1,5 UV-I 209 W/m² 7,7 °C 14,4 °C 3,2 km/h (1 Bft)
01.11.2018 12:02 14,5 °C 62 % 1009,0 hPa 0,0 mm 0,2 km/h (0 Bft) O 94 ° 0 min 0,000 mm 1,5 UV-I 207 W/m² 7,3 °C 14,5 °C 1,6 km/h (1 Bft)
01.11.2018 12:03 14,6 °C 60 % 1009,0 hPa 0,0 mm 0,0 km/h (0 Bft) O 94 ° 0 min 0,000 mm 1,5 UV-I 207 W/m² 6,9 °C 14,6 °C 0,0 km/h (0 Bft)
01.11.2018 12:04 14,7 °C 58 % 1008,9 hPa 0,0 mm 0,9 km/h (0 Bft) O 94 ° 0 min 0,000 mm 1,5 UV-I 207 W/m² 6,5 °C 14,7 °C 3,2 km/h (1 Bft)
01.11.2018 12:05 14,8 °C 61 % 1008,9 hPa 0,0 mm 0,0 km/h (0 Bft) O 94 ° 0 min 0,000 mm 1,5 UV-I 209 W/m² 7,4 °C 14,8 °C 0,0 km/h (0 Bft)
01.11.2018 12:06 14,8 °C 63 % 1008,9 hPa 0,0 mm 1,2 km/h (1 Bft) O 94 ° 0 min 0,000 mm 1,5 UV-I 209 W/m² 7,8 °C 14,8 °C 3,2 km/h (1 Bft)
01.11.2018 12:07 14,7 °C 64 % 1008,9 hPa 0,0 mm 4,7 km/h (1 Bft) O-SO 107 ° 0 min 0,000 mm 1,5 UV-I 209 W/m² 8,0 °C 14,7 °C 9,7 km/h (2 Bft)
01.11.2018 12:08 14,7 °C 65 % 1008,8 hPa 0,0 mm 3,2 km/h (1 Bft) O-SO 107 ° 0 min 0,000 mm 1,5 UV-I 211 W/m² 8,2 °C 14,7 °C 4,8 km/h (1 Bft)
01.11.2018 12:09 14,7 °C 64 % 1008,9 hPa 0,0 mm 2,9 km/h (1 Bft) O-SO 107 ° 0 min 0,000 mm 1,5 UV-I 209 W/m² 8,0 °C 14,7 °C 4,8 km/h (1 Bft)
01.11.2018 12:10 14,8 °C 63 % 1008,9 hPa 0,0 mm 1,7 km/h (1 Bft) O-SO 107 ° 0 min 0,000 mm 1,5 UV-I 204 W/m² 7,8 °C 14,8 °C 3,2 km/h (1 Bft)
01.11.2018 12:11 14,8 °C 63 % 1008,9 hPa 0,0 mm 3,2 km/h (1 Bft) O-SO 107 ° 0 min 0,000 mm 1,5 UV-I 202 W/m² 7,8 °C 14,8 °C 4,8 km/h (1 Bft)
01.11.2018 12:12 14,8 °C 66 % 1008,8 hPa 0,0 mm 0,7 km/h (0 Bft) O-SO 107 ° 0 min 0,000 mm 1,4 UV-I 204 W/m² 8,5 °C 14,8 °C 1,6 km/h (1 Bft)
01.11.2018 12:13 14,8 °C 67 % 1008,8 hPa 0,0 mm 3,4 km/h (1 Bft) O-SO 113 ° 0 min 0,000 mm 1,5 UV-I 204 W/m² 8,7 °C 14,8 °C 6,4 km/h (2 Bft)
01.11.2018 12:14 14,9 °C 64 % 1008,7 hPa 0,0 mm 3,6 km/h (1 Bft) O-NO 75 ° 0 min 0,000 mm 1,5 UV-I 206 W/m² 8,2 °C 14,9 °C 6,4 km/h (2 Bft)
01.11.2018 12:15 14,9 °C 63 % 1008,7 hPa 0,0 mm 4,8 km/h (1 Bft) O 86 ° 0 min 0,000 mm 1,5 UV-I 204 W/m² 7,9 °C 14,9 °C 6,4 km/h (2 Bft)
01.11.2018 12:16 14,9 °C 66 % 1008,7 hPa 0,0 mm 4,4 km/h (1 Bft) O 94 ° 0 min 0,000 mm 1,4 UV-I 200 W/m² 8,6 °C 14,9 °C 9,7 km/h (2 Bft)
01.11.2018 12:17 14,8 °C 66 % 1008,8 hPa 0,0 mm 3,4 km/h (1 Bft) O 93 ° 0 min 0,000 mm 1,4 UV-I 200 W/m² 8,5 °C 14,8 °C 4,8 km/h (1 Bft)
01.11.2018 12:18 14,9 °C 66 % 1008,8 hPa 0,0 mm 0,6 km/h (0 Bft) O 93 ° 0 min 0,000 mm 1,4 UV-I 199 W/m² 8,6 °C 14,9 °C 1,6 km/h (1 Bft)
01.11.2018 12:19 14,9 °C 64 % 1008,9 hPa 0,0 mm 0,3 km/h (0 Bft) O 93 ° 0 min 0,000 mm 1,4 UV-I 200 W/m² 8,2 °C 14,9 °C 1,6 km/h (1 Bft)
01.11.2018 12:20 14,9 °C 66 % 1008,9 hPa 0,0 mm 2,1 km/h (1 Bft) O 94 ° 0 min 0,000 mm 1,4 UV-I 202 W/m² 8,6 °C 14,9 °C 3,2 km/h (1 Bft)
01.11.2018 12:21 15,0 °C 65 % 1009,0 hPa 0,0 mm 0,8 km/h (0 Bft) O 94 ° 0 min 0,000 mm 1,4 UV-I 204 W/m² 8,5 °C 15,0 °C 1,6 km/h (1 Bft)
01.11.2018 12:22 15,0 °C 63 % 1008,9 hPa 0,0 mm 0,0 km/h (0 Bft) O 93 ° 0 min 0,000 mm 1,4 UV-I 206 W/m² 8,0 °C 15,0 °C 0,0 km/h (0 Bft)
01.11.2018 12:23 15,0 °C 62 % 1009,0 hPa 0,0 mm 0,3 km/h (0 Bft) O 94 ° 0 min 0,000 mm 1,4 UV-I 204 W/m² 7,8 °C 15,0 °C 1,6 km/h (1 Bft)
01.11.2018 12:24 15,1 °C 60 % 1008,9 hPa 0,0 mm 0,0 km/h (0 Bft) O 94 ° 0 min 0,000 mm 1,4 UV-I 204 W/m² 7,4 °C 15,1 °C 0,0 km/h (0 Bft)
01.11.2018 12:25 15,1 °C 63 % 1009,0 hPa 0,0 mm 0,0 km/h (0 Bft) O 94 ° 0 min 0,000 mm 1,4 UV-I 202 W/m² 8,1 °C 15,1 °C 0,0 km/h (0 Bft)
01.11.2018 12:26 15,1 °C 62 % 1009,0 hPa 0,0 mm 1,2 km/h (1 Bft) NO 53 ° 0 min 0,000 mm 1,4 UV-I 202 W/m² 7,9 °C 15,1 °C 4,8 km/h (1 Bft)
01.11.2018 12:27 15,1 °C 65 % 1008,9 hPa 0,0 mm 2,0 km/h (1 Bft) O 83 ° 0 min 0,000 mm 1,4 UV-I 202 W/m² 8,6 °C 15,1 °C 6,4 km/h (2 Bft)
01.11.2018 12:28 15,0 °C 62 % 1008,9 hPa 0,0 mm 3,3 km/h (1 Bft) O 83 ° 0 min 0,000 mm 1,4 UV-I 206 W/m² 7,8 °C 15,0 °C 4,8 km/h (1 Bft)
01.11.2018 12:29 15,1 °C 60 % 1009,0 hPa 0,0 mm 0,0 km/h (0 Bft) O 83 ° 0 min 0,000 mm 1,4 UV-I 207 W/m² 7,4 °C 15,1 °C 0,0 km/h (0 Bft)
01.11.2018 12:30 15,1 °C 62 % 1008,9 hPa 0,0 mm 0,0 km/h (0 Bft) O 83 ° 0 min 0,000 mm 1,4 UV-I 207 W/m² 7,9 °C 15,1 °C 0,0 km/h (0 Bft)
01.11.2018 12:31 15,0 °C 59 % 1008,9 hPa 0,0 mm 2,6 km/h (1 Bft) O 83 ° 0 min 0,000 mm 1,4 UV-I 204 W/m² 7,1 °C 15,0 °C 3,2 km/h (1 Bft)
01.11.2018 12:32 14,9 °C 65 % 1009,0 hPa 0,0 mm 1,0 km/h (0 Bft) O 83 ° 0 min 0,000 mm 1,4 UV-I 197 W/m² 8,4 °C 14,9 °C 1,6 km/h (1 Bft)
01.11.2018 12:33 14,9 °C 60 % 1008,9 hPa 0,0 mm 0,9 km/h (0 Bft) O 83 ° 0 min 0,000 mm 1,3 UV-I 192 W/m² 7,2 °C 14,9 °C 3,2 km/h (1 Bft)
01.11.2018 12:34 15,0 °C 63 % 1009,0 hPa 0,0 mm 2,0 km/h (1 Bft) O 83 ° 0 min 0,000 mm 1,3 UV-I 185 W/m² 8,0 °C 15,0 °C 3,2 km/h (1 Bft)
01.11.2018 12:35 14,9 °C 63 % 1009,0 hPa 0,0 mm 1,9 km/h (1 Bft) O 83 ° 0 min 0,000 mm 1,3 UV-I 185 W/m² 7,9 °C 14,9 °C 3,2 km/h (1 Bft)
01.11.2018 12:36 14,9 °C 63 % 1008,9 hPa 0,0 mm 0,4 km/h (0 Bft) O 83 ° 0 min 0,000 mm 1,3 UV-I 186 W/m² 7,9 °C 14,9 °C 1,6 km/h (1 Bft)
01.11.2018 12:37 14,9 °C 62 % 1008,9 hPa 0,0 mm 0,4 km/h (0 Bft) O 83 ° 0 min 0,000 mm 1,3 UV-I 188 W/m² 7,7 °C 14,9 °C 1,6 km/h (1 Bft)
01.11.2018 12:38 14,9 °C 62 % 1008,9 hPa 0,0 mm 1,0 km/h (0 Bft) O 83 ° 0 min 0,000 mm 1,3 UV-I 188 W/m² 7,7 °C 14,9 °C 4,8 km/h (1 Bft)
01.11.2018 12:39 14,9 °C 63 % 1008,9 hPa 0,0 mm 1,1 km/h (1 Bft) O 83 ° 0 min 0,000 mm 1,3 UV-I 188 W/m² 7,9 °C 14,9 °C 3,2 km/h (1 Bft)
01.11.2018 12:40 14,9 °C 62 % 1008,9 hPa 0,0 mm 0,0 km/h (0 Bft) O 83 ° 0 min 0,000 mm 1,3 UV-I 186 W/m² 7,7 °C 14,9 °C 0,0 km/h (0 Bft)
01.11.2018 12:41 15,0 °C 62 % 1008,9 hPa 0,0 mm 0,0 km/h (0 Bft) O 83 ° 0 min 0,000 mm 1,3 UV-I 186 W/m² 7,8 °C 15,0 °C 0,0 km/h (0 Bft)
01.11.2018 12:42 15,0 °C 66 % 1008,9 hPa 0,0 mm 0,0 km/h (0 Bft) O 83 ° 0 min 0,000 mm 1,3 UV-I 185 W/m² 8,7 °C 15,0 °C 0,0 km/h (0 Bft)
01.11.2018 12:43 15,0 °C 66 % 1008,9 hPa 0,0 mm 0,0 km/h (0 Bft) O 83 ° 0 min 0,000 mm 1,3 UV-I 183 W/m² 8,7 °C 15,0 °C 0,0 km/h (0 Bft)
01.11.2018 12:44 15,0 °C 59 % 1008,9 hPa 0,0 mm 0,0 km/h (0 Bft) O 83 ° 0 min 0,000 mm 1,2 UV-I 181 W/m² 7,1 °C 15,0 °C 0,0 km/h (0 Bft)
01.11.2018 12:45 15,1 °C 60 % 1008,9 hPa 0,0 mm 0,0 km/h (0 Bft) O 83 ° 0 min 0,000 mm 1,2 UV-I 179 W/m² 7,4 °C 15,1 °C 0,0 km/h (0 Bft)
01.11.2018 12:46 15,1 °C 62 % 1008,9 hPa 0,0 mm 0,0 km/h (0 Bft) O 83 ° 0 min 0,000 mm 1,2 UV-I 179 W/m² 7,9 °C 15,1 °C 0,0 km/h (0 Bft)
01.11.2018 12:47 15,0 °C 60 % 1008,8 hPa 0,0 mm 0,1 km/h (0 Bft) O 83 ° 0 min 0,000 mm 1,2 UV-I 179 W/m² 7,3 °C 15,0 °C 1,6 km/h (1 Bft)
01.11.2018 12:48 14,9 °C 60 % 1008,8 hPa 0,0 mm 0,6 km/h (0 Bft) O 83 ° 0 min 0,000 mm 1,2 UV-I 181 W/m² 7,2 °C 14,9 °C 3,2 km/h (1 Bft)
01.11.2018 12:49 14,8 °C 60 % 1008,9 hPa 0,0 mm 1,9 km/h (1 Bft) O 83 ° 0 min 0,000 mm 1,2 UV-I 181 W/m² 7,1 °C 14,8 °C 3,2 km/h (1 Bft)
01.11.2018 12:50 14,8 °C 61 % 1008,9 hPa 0,0 mm 1,1 km/h (1 Bft) O 83 ° 0 min 0,000 mm 1,2 UV-I 181 W/m² 7,4 °C 14,8 °C 3,2 km/h (1 Bft)
01.11.2018 12:51 14,8 °C 62 % 1008,9 hPa 0,0 mm 0,4 km/h (0 Bft) O 83 ° 0 min 0,000 mm 1,2 UV-I 183 W/m² 7,6 °C 14,8 °C 1,6 km/h (1 Bft)
01.11.2018 12:52 14,8 °C 61 % 1008,9 hPa 0,0 mm 0,0 km/h (0 Bft) O 83 ° 0 min 0,000 mm 1,2 UV-I 183 W/m² 7,4 °C 14,8 °C 0,0 km/h (0 Bft)
01.11.2018 12:53 14,8 °C 63 % 1008,9 hPa 0,0 mm 0,0 km/h (0 Bft) O 83 ° 0 min 0,000 mm 1,2 UV-I 183 W/m² 7,8 °C 14,8 °C 0,0 km/h (0 Bft)
01.11.2018 12:54 14,8 °C 61 % 1008,9 hPa 0,0 mm 0,0 km/h (0 Bft) O 83 ° 0 min 0,000 mm 1,2 UV-I 181 W/m² 7,4 °C 14,8 °C 0,0 km/h (0 Bft)
01.11.2018 12:55 14,8 °C 60 % 1008,9 hPa 0,0 mm 0,0 km/h (0 Bft) O 83 ° 0 min 0,000 mm 1,2 UV-I 179 W/m² 7,1 °C 14,8 °C 0,0 km/h (0 Bft)
01.11.2018 12:56 14,8 °C 61 % 1008,9 hPa 0,0 mm 0,0 km/h (0 Bft) O 83 ° 0 min 0,000 mm 1,2 UV-I 178 W/m² 7,4 °C 14,8 °C 0,0 km/h (0 Bft)
01.11.2018 12:57 14,7 °C 66 % 1008,9 hPa 0,0 mm 0,0 km/h (0 Bft) O 83 ° 0 min 0,000 mm 1,2 UV-I 179 W/m² 8,4 °C 14,7 °C 0,0 km/h (0 Bft)
01.11.2018 12:58 14,7 °C 63 % 1009,0 hPa 0,0 mm 0,0 km/h (0 Bft) O 83 ° 0 min 0,000 mm 1,2 UV-I 179 W/m² 7,7 °C 14,7 °C 0,0 km/h (0 Bft)
01.11.2018 12:59 14,8 °C 62 % 1008,9 hPa 0,0 mm 0,0 km/h (0 Bft) O 83 ° 0 min 0,000 mm 1,2 UV-I 179 W/m² 7,6 °C 14,8 °C 0,0 km/h (0 Bft)
01.11.2018 13:00 14,8 °C 62 % 1009,0 hPa 0,0 mm 0,3 km/h (0 Bft) O 83 ° 0 min 0,101 mm 1,2 UV-I 179 W/m² 7,6 °C 14,8 °C 3,2 km/h (1 Bft)
01.11.2018 13:01 14,9 °C 61 % 1009,0 hPa 0,0 mm 2,6 km/h (1 Bft) SW 227 ° 0 min 0,000 mm 1,2 UV-I 179 W/m² 7,4 °C 14,9 °C 4,8 km/h (1 Bft)
01.11.2018 13:02 14,9 °C 61 % 1009,1 hPa 0,0 mm 2,7 km/h (1 Bft) W-SW 238 ° 0 min 0,000 mm 1,2 UV-I 179 W/m² 7,4 °C 14,9 °C 4,8 km/h (1 Bft)
01.11.2018 13:03 15,0 °C 63 % 1009,0 hPa 0,0 mm 0,1 km/h (0 Bft) W-SW 238 ° 0 min 0,000 mm 1,2 UV-I 178 W/m² 8,0 °C 15,0 °C 1,6 km/h (1 Bft)
01.11.2018 13:04 14,9 °C 61 % 1009,1 hPa 0,0 mm 0,0 km/h (0 Bft) W-SW 238 ° 0 min 0,000 mm 1,2 UV-I 176 W/m² 7,4 °C 14,9 °C 0,0 km/h (0 Bft)
01.11.2018 13:05 14,9 °C 61 % 1009,0 hPa 0,0 mm 0,7 km/h (0 Bft) W-SW 238 ° 0 min 0,000 mm 1,2 UV-I 174 W/m² 7,4 °C 14,9 °C 3,2 km/h (1 Bft)
01.11.2018 13:06 15,1 °C 60 % 1009,1 hPa 0,0 mm 1,8 km/h (1 Bft) W-SW 238 ° 0 min 0,000 mm 1,2 UV-I 174 W/m² 7,4 °C 15,1 °C 3,2 km/h (1 Bft)
01.11.2018 13:07 15,1 °C 58 % 1009,1 hPa 0,0 mm 2,7 km/h (1 Bft) W-NW 288 ° 0 min 0,000 mm 1,2 UV-I 172 W/m² 6,9 °C 15,1 °C 4,8 km/h (1 Bft)
01.11.2018 13:08 15,2 °C 60 % 1009,1 hPa 0,0 mm 2,4 km/h (1 Bft) W-NW 288 ° 0 min 0,000 mm 1,2 UV-I 171 W/m² 7,5 °C 15,2 °C 4,8 km/h (1 Bft)
01.11.2018 13:09 15,2 °C 60 % 1009,0 hPa 0,0 mm 0,5 km/h (0 Bft) W-NW 288 ° 0 min 0,000 mm 1,2 UV-I 171 W/m² 7,5 °C 15,2 °C 1,6 km/h (1 Bft)
01.11.2018 13:10 15,2 °C 60 % 1009,1 hPa 0,0 mm 1,4 km/h (1 Bft) W-NW 288 ° 0 min 0,000 mm 1,2 UV-I 172 W/m² 7,5 °C 15,2 °C 3,2 km/h (1 Bft)
01.11.2018 13:11 15,2 °C 60 % 1009,1 hPa 0,0 mm 4,7 km/h (1 Bft) W 275 ° 0 min 0,000 mm 1,2 UV-I 172 W/m² 7,5 °C 15,2 °C 6,4 km/h (2 Bft)
01.11.2018 13:12 15,2 °C 62 % 1009,1 hPa 0,0 mm 5,0 km/h (1 Bft) W-SW 256 ° 0 min 0,000 mm 1,2 UV-I 172 W/m² 8,0 °C 15,2 °C 9,7 km/h (2 Bft)
01.11.2018 13:13 15,2 °C 59 % 1009,1 hPa 0,0 mm 2,5 km/h (1 Bft) W-NW 294 ° 0 min 0,000 mm 1,2 UV-I 171 W/m² 7,2 °C 15,2 °C 3,2 km/h (1 Bft)
01.11.2018 13:14 15,2 °C 58 % 1009,1 hPa 0,0 mm 1,1 km/h (1 Bft) W-NW 294 ° 0 min 0,000 mm 1,2 UV-I 171 W/m² 7,0 °C 15,2 °C 3,2 km/h (1 Bft)
01.11.2018 13:15 15,2 °C 57 % 1009,0 hPa 0,0 mm 1,3 km/h (1 Bft) W-NW 296 ° 0 min 0,000 mm 1,2 UV-I 171 W/m² 6,7 °C 15,2 °C 3,2 km/h (1 Bft)
01.11.2018 13:16 15,3 °C 58 % 1009,0 hPa 0,0 mm 0,1 km/h (0 Bft) W-NW 296 ° 0 min 0,000 mm 1,2 UV-I 171 W/m² 7,1 °C 15,3 °C 1,6 km/h (1 Bft)
01.11.2018 13:17 15,3 °C 61 % 1008,9 hPa 0,0 mm 0,0 km/h (0 Bft) W-NW 296 ° 0 min 0,000 mm 1,2 UV-I 174 W/m² 7,8 °C 15,3 °C 0,0 km/h (0 Bft)
01.11.2018 13:18 15,2 °C 61 % 1008,9 hPa 0,0 mm 0,0 km/h (0 Bft) W-NW 296 ° 0 min 0,000 mm 1,2 UV-I 174 W/m² 7,7 °C 15,2 °C 0,0 km/h (0 Bft)
01.11.2018 13:19 15,2 °C 61 % 1009,0 hPa 0,0 mm 0,5 km/h (0 Bft) W-NW 296 ° 0 min 0,000 mm 1,2 UV-I 176 W/m² 7,7 °C 15,2 °C 1,6 km/h (1 Bft)
01.11.2018 13:20 15,2 °C 62 % 1009,0 hPa 0,0 mm 0,1 km/h (0 Bft) W-NW 296 ° 0 min 0,000 mm 1,2 UV-I 181 W/m² 8,0 °C 15,2 °C 1,6 km/h (1 Bft)
01.11.2018 13:21 15,1 °C 59 % 1008,9 hPa 0,0 mm 1,3 km/h (1 Bft) W-NW 296 ° 0 min 0,000 mm 1,2 UV-I 183 W/m² 7,1 °C 15,1 °C 1,6 km/h (1 Bft)
01.11.2018 13:22 15,1 °C 58 % 1009,0 hPa 0,0 mm 0,2 km/h (0 Bft) W-NW 296 ° 0 min 0,000 mm 1,2 UV-I 186 W/m² 6,9 °C 15,1 °C 1,6 km/h (1 Bft)
01.11.2018 13:23 15,1 °C 61 % 1009,0 hPa 0,0 mm 0,0 km/h (0 Bft) W-NW 296 ° 0 min 0,000 mm 1,3 UV-I 186 W/m² 7,6 °C 15,1 °C 0,0 km/h (0 Bft)
01.11.2018 13:24 15,1 °C 59 % 1009,0 hPa 0,0 mm 0,0 km/h (0 Bft) W-NW 296 ° 0 min 0,000 mm 1,3 UV-I 193 W/m² 7,1 °C 15,1 °C 0,0 km/h (0 Bft)
01.11.2018 13:25 15,1 °C 59 % 1009,0 hPa 0,0 mm 0,0 km/h (0 Bft) W-NW 296 ° 0 min 0,000 mm 1,3 UV-I 199 W/m² 7,1 °C 15,1 °C 0,0 km/h (0 Bft)
01.11.2018 13:26 15,1 °C 58 % 1009,0 hPa 0,0 mm 0,0 km/h (0 Bft) W-NW 296 ° 0 min 0,000 mm 1,3 UV-I 186 W/m² 6,9 °C 15,1 °C 0,0 km/h (0 Bft)
01.11.2018 13:27 15,1 °C 63 % 1009,0 hPa 0,0 mm 0,5 km/h (0 Bft) W-NW 296 ° 0 min 0,000 mm 1,3 UV-I 192 W/m² 8,1 °C 15,1 °C 3,2 km/h (1 Bft)
01.11.2018 13:28 15,1 °C 60 % 1009,0 hPa 0,0 mm 0,2 km/h (0 Bft) W-NW 296 ° 0 min 0,000 mm 1,3 UV-I 192 W/m² 7,4 °C 15,1 °C 1,6 km/h (1 Bft)
01.11.2018 13:29 15,0 °C 62 % 1009,0 hPa 0,0 mm 0,0 km/h (0 Bft) W-NW 296 ° 0 min 0,000 mm 1,3 UV-I 195 W/m² 7,8 °C 15,0 °C 0,0 km/h (0 Bft)
01.11.2018 13:30 14,9 °C 64 % 1009,0 hPa 0,0 mm 0,0 km/h (0 Bft) W-NW 296 ° 0 min 0,000 mm 1,3 UV-I 193 W/m² 8,2 °C 14,9 °C 0,0 km/h (0 Bft)
01.11.2018 13:31 14,9 °C 60 % 1009,0 hPa 0,0 mm 0,0 km/h (0 Bft) W-NW 296 ° 0 min 0,000 mm 1,3 UV-I 204 W/m² 7,2 °C 14,9 °C 0,0 km/h (0 Bft)
01.11.2018 13:32 15,0 °C 63 % 1009,0 hPa 0,0 mm 0,0 km/h (0 Bft) W-NW 296 ° 0 min 0,000 mm 1,4 UV-I 227 W/m² 8,0 °C 15,0 °C 0,0 km/h (0 Bft)
01.11.2018 13:33 14,9 °C 66 % 1008,9 hPa 0,0 mm 0,0 km/h (0 Bft) W-NW 296 ° 0 min 0,000 mm 1,4 UV-I 299 W/m² 8,6 °C 14,9 °C 0,0 km/h (0 Bft)
01.11.2018 13:34 14,8 °C 66 % 1008,9 hPa 0,0 mm 1,7 km/h (1 Bft) N-NW 342 ° 0 min 0,000 mm 1,5 UV-I 294 W/m² 8,5 °C 14,8 °C 3,2 km/h (1 Bft)
01.11.2018 13:35 14,9 °C 63 % 1008,9 hPa 0,0 mm 2,8 km/h (1 Bft) NW 321 ° 0 min 0,000 mm 1,5 UV-I 255 W/m² 7,9 °C 14,9 °C 4,8 km/h (1 Bft)
01.11.2018 13:36 14,9 °C 65 % 1009,0 hPa 0,0 mm 0,9 km/h (0 Bft) NW 321 ° 0 min 0,000 mm 1,5 UV-I 311 W/m² 8,4 °C 14,9 °C 1,6 km/h (1 Bft)
01.11.2018 13:37 15,0 °C 61 % 1009,0 hPa 0,0 mm 0,0 km/h (0 Bft) NW 321 ° 0 min 0,000 mm 1,5 UV-I 287 W/m² 7,5 °C 15,0 °C 0,0 km/h (0 Bft)
01.11.2018 13:38 15,1 °C 61 % 1009,0 hPa 0,0 mm 0,3 km/h (0 Bft) NW 321 ° 0 min 0,000 mm 1,5 UV-I 302 W/m² 7,6 °C 15,1 °C 1,6 km/h (1 Bft)
01.11.2018 13:39 15,1 °C 60 % 1009,0 hPa 0,0 mm 0,0 km/h (0 Bft) NW 321 ° 0 min 0,000 mm 1,5 UV-I 302 W/m² 7,4 °C 15,1 °C 0,0 km/h (0 Bft)
01.11.2018 13:40 15,1 °C 58 % 1009,0 hPa 0,0 mm 0,0 km/h (0 Bft) NW 321 ° 0 min 0,000 mm 1,5 UV-I 269 W/m² 6,9 °C 15,1 °C 0,0 km/h (0 Bft)
01.11.2018 13:41 15,2 °C 59 % 1009,0 hPa 0,0 mm 0,0 km/h (0 Bft) NW 321 ° 0 min 0,000 mm 1,6 UV-I 352 W/m² 7,2 °C 15,2 °C 0,0 km/h (0 Bft)
01.11.2018 13:42 15,2 °C 58 % 1009,0 hPa 0,0 mm 0,8 km/h (0 Bft) NW 321 ° 0 min 0,000 mm 1,7 UV-I 403 W/m² 7,0 °C 15,2 °C 3,2 km/h (1 Bft)
01.11.2018 13:43 15,1 °C 59 % 1009,1 hPa 0,0 mm 1,1 km/h (1 Bft) NO 38 ° 0 min 0,000 mm 1,8 UV-I 403 W/m² 7,1 °C 15,1 °C 3,2 km/h (1 Bft)
01.11.2018 13:44 15,1 °C 60 % 1009,0 hPa 0,0 mm 1,4 km/h (1 Bft) NO 38 ° 0 min 0,000 mm 1,9 UV-I 510 W/m² 7,4 °C 15,1 °C 3,2 km/h (1 Bft)
01.11.2018 13:45 15,1 °C 61 % 1009,0 hPa 0,0 mm 0,0 km/h (0 Bft) NO 38 ° 0 min 0,000 mm 2,0 UV-I 510 W/m² 7,6 °C 15,1 °C 0,0 km/h (0 Bft)
01.11.2018 13:46 15,0 °C 62 % 1009,1 hPa 0,0 mm 0,0 km/h (0 Bft) NO 38 ° 0 min 0,000 mm 1,8 UV-I 359 W/m² 7,8 °C 15,0 °C 0,0 km/h (0 Bft)
01.11.2018 13:47 15,1 °C 63 % 1009,1 hPa 0,0 mm 1,1 km/h (1 Bft) NO 38 ° 0 min 0,000 mm 1,9 UV-I 427 W/m² 8,1 °C 15,1 °C 3,2 km/h (1 Bft)
01.11.2018 13:48 15,2 °C 64 % 1009,0 hPa 0,0 mm 2,1 km/h (1 Bft) O 86 ° 0 min 0,000 mm 2,0 UV-I 489 W/m² 8,4 °C 15,2 °C 4,8 km/h (1 Bft)
01.11.2018 13:49 15,3 °C 63 % 1009,1 hPa 0,0 mm 0,5 km/h (0 Bft) O 86 ° 0 min 0,000 mm 2,1 UV-I 508 W/m² 8,3 °C 15,3 °C 1,6 km/h (1 Bft)
01.11.2018 13:50 15,3 °C 62 % 1009,1 hPa 0,0 mm 0,1 km/h (0 Bft) O 86 ° 0 min 0,000 mm 2,2 UV-I 526 W/m² 8,1 °C 15,3 °C 1,6 km/h (1 Bft)
01.11.2018 13:51 15,4 °C 64 % 1009,1 hPa 0,0 mm 0,4 km/h (0 Bft) O 86 ° 0 min 0,000 mm 2,2 UV-I 510 W/m² 8,6 °C 15,4 °C 1,6 km/h (1 Bft)
01.11.2018 13:52 15,6 °C 62 % 1009,2 hPa 0,0 mm 1,1 km/h (1 Bft) O 86 ° 0 min 0,000 mm 2,2 UV-I 499 W/m² 8,3 °C 15,6 °C 3,2 km/h (1 Bft)
01.11.2018 13:53 15,8 °C 65 % 1009,1 hPa 0,0 mm 0,2 km/h (0 Bft) O 86 ° 0 min 0,000 mm 2,1 UV-I 489 W/m² 9,2 °C 15,8 °C 1,6 km/h (1 Bft)
01.11.2018 13:54 15,8 °C 60 % 1009,2 hPa 0,0 mm 1,9 km/h (1 Bft) O 86 ° 0 min 0,000 mm 2,1 UV-I 487 W/m² 8,1 °C 15,8 °C 3,2 km/h (1 Bft)
01.11.2018 13:55 15,8 °C 59 % 1009,2 hPa 0,0 mm 0,1 km/h (0 Bft) O 86 ° 0 min 0,000 mm 2,1 UV-I 478 W/m² 7,8 °C 15,8 °C 1,6 km/h (1 Bft)
01.11.2018 13:56 15,9 °C 60 % 1009,1 hPa 0,0 mm 0,6 km/h (0 Bft) O 86 ° 0 min 0,000 mm 2,1 UV-I 471 W/m² 8,1 °C 15,9 °C 1,6 km/h (1 Bft)
01.11.2018 13:57 16,0 °C 63 % 1009,1 hPa 0,0 mm 2,5 km/h (1 Bft) NO 36 ° 0 min 0,000 mm 2,0 UV-I 471 W/m² 9,0 °C 16,0 °C 4,8 km/h (1 Bft)
01.11.2018 13:58 16,1 °C 63 % 1009,1 hPa 0,0 mm 2,2 km/h (1 Bft) NO 38 ° 0 min 0,000 mm 2,0 UV-I 471 W/m² 9,1 °C 16,1 °C 3,2 km/h (1 Bft)
01.11.2018 13:59 16,1 °C 61 % 1009,0 hPa 0,0 mm 5,9 km/h (2 Bft) N-NO 25 ° 0 min 0,000 mm 2,1 UV-I 473 W/m² 8,6 °C 16,1 °C 9,7 km/h (2 Bft)
01.11.2018 14:00 16,2 °C 57 % 1009,0 hPa 0,0 mm 4,3 km/h (1 Bft) N-NO 22 ° 0 min 0,000 mm 2,1 UV-I 471 W/m² 7,7 °C 16,2 °C 8,0 km/h (2 Bft)
01.11.2018 14:01 16,4 °C 54 % 1009,0 hPa 0,0 mm 7,1 km/h (2 Bft) N-NO 18 ° 0 min 0,153 mm 2,0 UV-I 468 W/m² 7,1 °C 16,4 °C 9,7 km/h (2 Bft)
01.11.2018 14:02 16,6 °C 53 % 1009,1 hPa 0,0 mm 5,6 km/h (1 Bft) N-NO 31 ° 0 min 0,000 mm 2,0 UV-I 455 W/m² 7,0 °C 16,6 °C 8,0 km/h (2 Bft)
01.11.2018 14:03 16,7 °C 53 % 1009,1 hPa 0,0 mm 2,2 km/h (1 Bft) N-NO 30 ° 0 min 0,000 mm 2,0 UV-I 454 W/m² 7,1 °C 16,7 °C 4,8 km/h (1 Bft)
01.11.2018 14:04 16,8 °C 53 % 1009,1 hPa 0,0 mm 5,7 km/h (1 Bft) N-NO 31 ° 0 min 0,000 mm 2,0 UV-I 457 W/m² 7,2 °C 16,8 °C 8,0 km/h (2 Bft)
01.11.2018 14:05 16,8 °C 56 % 1009,2 hPa 0,0 mm 7,9 km/h (2 Bft) N 350 ° 0 min 0,000 mm 2,0 UV-I 448 W/m² 8,0 °C 16,8 °C 12,9 km/h (3 Bft)
01.11.2018 14:06 16,8 °C 57 % 1009,2 hPa 0,0 mm 6,0 km/h (2 Bft) N 5 ° 0 min 0,000 mm 2,0 UV-I 443 W/m² 8,2 °C 16,8 °C 12,9 km/h (3 Bft)
01.11.2018 14:07 16,7 °C 58 % 1009,2 hPa 0,0 mm 9,3 km/h (2 Bft) O-NO 64 ° 0 min 0,000 mm 1,9 UV-I 439 W/m² 8,4 °C 16,7 °C 14,5 km/h (3 Bft)
01.11.2018 14:08 16,6 °C 60 % 1009,2 hPa 0,0 mm 10,4 km/h (2 Bft) NW 311 ° 0 min 0,000 mm 1,9 UV-I 439 W/m² 8,8 °C 16,6 °C 19,3 km/h (3 Bft)
01.11.2018 14:09 16,3 °C 59 % 1009,1 hPa 0,0 mm 10,7 km/h (2 Bft) N 350 ° 0 min 0,000 mm 1,9 UV-I 438 W/m² 8,3 °C 16,3 °C 16,1 km/h (3 Bft)
01.11.2018 14:10 16,3 °C 60 % 1009,1 hPa 0,0 mm 11,0 km/h (2 Bft) NW 326 ° 0 min 0,000 mm 1,9 UV-I 434 W/m² 8,5 °C 16,3 °C 16,1 km/h (3 Bft)
01.11.2018 14:11 16,1 °C 59 % 1009,1 hPa 0,0 mm 7,9 km/h (2 Bft) N-NW 327 ° 0 min 0,000 mm 1,9 UV-I 429 W/m² 8,1 °C 16,1 °C 14,5 km/h (3 Bft)
01.11.2018 14:12 16,0 °C 60 % 1009,1 hPa 0,0 mm 9,3 km/h (2 Bft) NW 311 ° 0 min 0,000 mm 1,8 UV-I 422 W/m² 8,2 °C 16,0 °C 14,5 km/h (3 Bft)
01.11.2018 14:13 15,9 °C 61 % 1009,2 hPa 0,0 mm 8,9 km/h (2 Bft) NW 321 ° 0 min 0,000 mm 1,8 UV-I 408 W/m² 8,4 °C 15,9 °C 14,5 km/h (3 Bft)
01.11.2018 14:14 15,9 °C 61 % 1009,2 hPa 0,0 mm 8,1 km/h (2 Bft) NW 321 ° 0 min 0,000 mm 1,7 UV-I 399 W/m² 8,4 °C 15,9 °C 14,5 km/h (3 Bft)
01.11.2018 14:15 15,8 °C 61 % 1009,2 hPa 0,0 mm 5,8 km/h (2 Bft) N-NO 15 ° 0 min 0,000 mm 1,7 UV-I 394 W/m² 8,3 °C 15,8 °C 12,9 km/h (3 Bft)
01.11.2018 14:16 15,8 °C 61 % 1009,2 hPa 0,0 mm 5,8 km/h (2 Bft) N-NW 331 ° 0 min 0,000 mm 1,7 UV-I 392 W/m² 8,3 °C 15,8 °C 9,7 km/h (2 Bft)
01.11.2018 14:17 15,8 °C 62 % 1009,2 hPa 0,0 mm 5,4 km/h (1 Bft) W-NW 296 ° 0 min 0,000 mm 1,7 UV-I 387 W/m² 8,5 °C 15,8 °C 12,9 km/h (3 Bft)
01.11.2018 14:18 15,9 °C 61 % 1009,2 hPa 0,0 mm 6,9 km/h (2 Bft) N-NW 328 ° 0 min 0,000 mm 1,7 UV-I 381 W/m² 8,4 °C 15,9 °C 12,9 km/h (3 Bft)
01.11.2018 14:19 15,8 °C 62 % 1009,2 hPa 0,0 mm 1,9 km/h (1 Bft) NW 323 ° 0 min 0,000 mm 1,6 UV-I 373 W/m² 8,5 °C 15,8 °C 4,8 km/h (1 Bft)
01.11.2018 14:20 15,8 °C 60 % 1009,3 hPa 0,0 mm 2,6 km/h (1 Bft) N 355 ° 0 min 0,000 mm 1,6 UV-I 367 W/m² 8,1 °C 15,8 °C 8,0 km/h (2 Bft)
01.11.2018 14:21 15,8 °C 61 % 1009,3 hPa 0,0 mm 7,8 km/h (2 Bft) NW 308 ° 0 min 0,000 mm 1,6 UV-I 364 W/m² 8,3 °C 15,8 °C 12,9 km/h (3 Bft)
01.11.2018 14:22 15,7 °C 61 % 1009,4 hPa 0,0 mm 4,5 km/h (1 Bft) NW 305 ° 0 min 0,000 mm 1,5 UV-I 359 W/m² 8,2 °C 15,7 °C 6,4 km/h (2 Bft)
01.11.2018 14:23 15,7 °C 60 % 1009,4 hPa 0,0 mm 5,6 km/h (1 Bft) NW 314 ° 0 min 0,000 mm 1,5 UV-I 353 W/m² 8,0 °C 15,7 °C 11,3 km/h (2 Bft)
01.11.2018 14:24 15,7 °C 60 % 1009,4 hPa 0,0 mm 2,9 km/h (1 Bft) NW 305 ° 0 min 0,000 mm 1,5 UV-I 352 W/m² 8,0 °C 15,7 °C 4,8 km/h (1 Bft)
01.11.2018 14:25 15,7 °C 61 % 1009,4 hPa 0,0 mm 6,8 km/h (2 Bft) W-SW 251 ° 0 min 0,000 mm 1,5 UV-I 345 W/m² 8,2 °C 15,7 °C 11,3 km/h (2 Bft)
01.11.2018 14:26 15,7 °C 61 % 1009,4 hPa 0,0 mm 6,1 km/h (2 Bft) NW 325 ° 0 min 0,000 mm 1,4 UV-I 341 W/m² 8,2 °C 15,7 °C 11,3 km/h (2 Bft)
01.11.2018 14:27 15,7 °C 61 % 1009,4 hPa 0,0 mm 5,7 km/h (1 Bft) NW 313 ° 0 min 0,000 mm 1,4 UV-I 339 W/m² 8,2 °C 15,7 °C 8,0 km/h (2 Bft)
01.11.2018 14:28 15,6 °C 61 % 1009,5 hPa 0,0 mm 9,7 km/h (2 Bft) W 274 ° 0 min 0,000 mm 1,4 UV-I 338 W/m² 8,1 °C 15,6 °C 12,9 km/h (3 Bft)
01.11.2018 14:29 15,6 °C 60 % 1009,5 hPa 0,0 mm 8,3 km/h (2 Bft) W-NW 295 ° 0 min 0,000 mm 1,4 UV-I 334 W/m² 7,9 °C 15,6 °C 11,3 km/h (2 Bft)
01.11.2018 14:30 15,5 °C 61 % 1009,5 hPa 0,0 mm 6,9 km/h (2 Bft) NW 317 ° 0 min 0,000 mm 1,4 UV-I 332 W/m² 8,0 °C 15,5 °C 16,1 km/h (3 Bft)
01.11.2018 14:31 15,5 °C 61 % 1009,5 hPa 0,0 mm 7,2 km/h (2 Bft) NW 306 ° 0 min 0,000 mm 1,4 UV-I 327 W/m² 8,0 °C 15,5 °C 11,3 km/h (2 Bft)
01.11.2018 14:32 15,4 °C 61 % 1009,5 hPa 0,0 mm 5,0 km/h (1 Bft) W-NW 294 ° 0 min 0,000 mm 1,4 UV-I 323 W/m² 7,9 °C 15,4 °C 8,0 km/h (2 Bft)
01.11.2018 14:33 15,4 °C 60 % 1009,5 hPa 0,0 mm 6,8 km/h (2 Bft) W-NW 284 ° 0 min 0,000 mm 1,3 UV-I 320 W/m² 7,7 °C 15,4 °C 12,9 km/h (3 Bft)
01.11.2018 14:34 15,4 °C 60 % 1009,5 hPa 0,0 mm 6,2 km/h (2 Bft) W 279 ° 0 min 0,000 mm 1,3 UV-I 318 W/m² 7,7 °C 15,4 °C 11,3 km/h (2 Bft)
01.11.2018 14:35 15,3 °C 60 % 1009,5 hPa 0,0 mm 7,0 km/h (2 Bft) W-NW 286 ° 0 min 0,000 mm 1,3 UV-I 315 W/m² 7,6 °C 15,3 °C 11,3 km/h (2 Bft)
01.11.2018 14:36 15,3 °C 60 % 1009,5 hPa 0,0 mm 4,6 km/h (1 Bft) W 262 ° 0 min 0,000 mm 1,3 UV-I 311 W/m² 7,6 °C 15,3 °C 8,0 km/h (2 Bft)
01.11.2018 14:37 15,3 °C 60 % 1009,5 hPa 0,0 mm 9,2 km/h (2 Bft) W-NW 298 ° 0 min 0,000 mm 1,3 UV-I 308 W/m² 7,6 °C 15,3 °C 14,5 km/h (3 Bft)
01.11.2018 14:38 15,2 °C 62 % 1009,5 hPa 0,0 mm 7,8 km/h (2 Bft) W-NW 293 ° 0 min 0,000 mm 1,3 UV-I 306 W/m² 8,0 °C 15,2 °C 12,9 km/h (3 Bft)
01.11.2018 14:39 15,2 °C 60 % 1009,6 hPa 0,0 mm 6,8 km/h (2 Bft) W-NW 286 ° 0 min 0,000 mm 1,3 UV-I 304 W/m² 7,5 °C 15,2 °C 11,3 km/h (2 Bft)
01.11.2018 14:40 15,2 °C 61 % 1009,6 hPa 0,0 mm 5,9 km/h (2 Bft) W 277 ° 0 min 0,000 mm 1,3 UV-I 302 W/m² 7,7 °C 15,2 °C 9,7 km/h (2 Bft)
01.11.2018 14:41 15,2 °C 63 % 1009,6 hPa 0,0 mm 4,9 km/h (1 Bft) W 263 ° 0 min 0,000 mm 1,2 UV-I 299 W/m² 8,2 °C 15,2 °C 6,4 km/h (2 Bft)
01.11.2018 14:42 15,1 °C 61 % 1009,6 hPa 0,0 mm 9,0 km/h (2 Bft) W 270 ° 0 min 0,000 mm 1,2 UV-I 295 W/m² 7,6 °C 15,1 °C 12,9 km/h (3 Bft)
01.11.2018 14:43 15,1 °C 61 % 1009,7 hPa 0,0 mm 8,0 km/h (2 Bft) W-SW 258 ° 0 min 0,000 mm 1,2 UV-I 292 W/m² 7,6 °C 15,1 °C 11,3 km/h (2 Bft)
01.11.2018 14:44 15,1 °C 61 % 1009,7 hPa 0,0 mm 6,1 km/h (2 Bft) W-NW 301 ° 0 min 0,000 mm 1,2 UV-I 288 W/m² 7,6 °C 15,1 °C 11,3 km/h (2 Bft)
01.11.2018 14:45 15,1 °C 61 % 1009,7 hPa 0,0 mm 3,8 km/h (1 Bft) W-NW 299 ° 0 min 0,000 mm 1,2 UV-I 287 W/m² 7,6 °C 15,1 °C 6,4 km/h (2 Bft)
01.11.2018 14:46 15,0 °C 62 % 1009,7 hPa 0,0 mm 2,7 km/h (1 Bft) W-NW 294 ° 0 min 0,000 mm 1,2 UV-I 283 W/m² 7,8 °C 15,0 °C 3,2 km/h (1 Bft)
01.11.2018 14:47 15,0 °C 62 % 1009,7 hPa 0,0 mm 3,8 km/h (1 Bft) NW 323 ° 0 min 0,000 mm 1,2 UV-I 281 W/m² 7,8 °C 15,0 °C 8,0 km/h (2 Bft)
01.11.2018 14:48 15,0 °C 61 % 1009,7 hPa 0,0 mm 7,6 km/h (2 Bft) NW 318 ° 0 min 0,000 mm 1,1 UV-I 279 W/m² 7,5 °C 15,0 °C 12,9 km/h (3 Bft)
01.11.2018 14:49 14,9 °C 62 % 1009,7 hPa 0,0 mm 3,6 km/h (1 Bft) N-NW 327 ° 0 min 0,000 mm 1,1 UV-I 274 W/m² 7,7 °C 14,9 °C 6,4 km/h (2 Bft)
01.11.2018 14:50 15,0 °C 62 % 1009,8 hPa 0,0 mm 2,9 km/h (1 Bft) NW 325 ° 0 min 0,000 mm 1,1 UV-I 272 W/m² 7,8 °C 15,0 °C 6,4 km/h (2 Bft)
01.11.2018 14:51 15,0 °C 62 % 1009,9 hPa 0,0 mm 4,6 km/h (1 Bft) NW 311 ° 0 min 0,000 mm 1,1 UV-I 271 W/m² 7,8 °C 15,0 °C 11,3 km/h (2 Bft)
01.11.2018 14:52 15,1 °C 61 % 1009,8 hPa 0,0 mm 5,9 km/h (2 Bft) W-NW 299 ° 0 min 0,000 mm 1,1 UV-I 269 W/m² 7,6 °C 15,1 °C 9,7 km/h (2 Bft)
01.11.2018 14:53 15,1 °C 62 % 1009,9 hPa 0,0 mm 3,4 km/h (1 Bft) W-NW 296 ° 0 min 0,000 mm 1,1 UV-I 267 W/m² 7,9 °C 15,1 °C 4,8 km/h (1 Bft)
01.11.2018 14:54 14,9 °C 63 % 1009,9 hPa 0,0 mm 4,6 km/h (1 Bft) N-NW 331 ° 0 min 0,000 mm 1,1 UV-I 250 W/m² 7,9 °C 14,9 °C 6,4 km/h (2 Bft)
01.11.2018 14:55 14,8 °C 63 % 1009,9 hPa 0,0 mm 4,2 km/h (1 Bft) NW 313 ° 0 min 0,000 mm 1,0 UV-I 234 W/m² 7,8 °C 14,8 °C 8,0 km/h (2 Bft)
01.11.2018 14:56 14,8 °C 63 % 1009,9 hPa 0,0 mm 4,4 km/h (1 Bft) W-NW 287 ° 0 min 0,000 mm 1,0 UV-I 211 W/m² 7,8 °C 14,8 °C 6,4 km/h (2 Bft)
01.11.2018 14:57 14,8 °C 63 % 1009,9 hPa 0,0 mm 5,0 km/h (1 Bft) N-NW 334 ° 0 min 0,000 mm 0,9 UV-I 165 W/m² 7,8 °C 14,8 °C 8,0 km/h (2 Bft)
01.11.2018 14:58 14,8 °C 63 % 1010,0 hPa 0,0 mm 1,8 km/h (1 Bft) N-NW 335 ° 0 min 0,000 mm 0,9 UV-I 146 W/m² 7,8 °C 14,8 °C 4,8 km/h (1 Bft)
01.11.2018 14:59 14,8 °C 63 % 1010,0 hPa 0,0 mm 4,4 km/h (1 Bft) W-NW 289 ° 0 min 0,000 mm 0,9 UV-I 165 W/m² 7,8 °C 14,8 °C 8,0 km/h (2 Bft)
01.11.2018 15:00 14,7 °C 63 % 1009,9 hPa 0,0 mm 5,2 km/h (1 Bft) W-NW 292 ° 0 min 0,000 mm 0,9 UV-I 132 W/m² 7,7 °C 14,7 °C 6,4 km/h (2 Bft)
01.11.2018 15:01 14,7 °C 63 % 1009,9 hPa 0,0 mm 3,1 km/h (1 Bft) W-NW 286 ° 0 min 0,203 mm 0,9 UV-I 98 W/m² 7,7 °C 14,7 °C 6,4 km/h (2 Bft)
01.11.2018 15:02 14,7 °C 63 % 1010,0 hPa 0,0 mm 4,9 km/h (1 Bft) W-NW 300 ° 0 min 0,000 mm 0,8 UV-I 86 W/m² 7,7 °C 14,7 °C 6,4 km/h (2 Bft)
01.11.2018 15:03 14,7 °C 63 % 1010,0 hPa 0,0 mm 5,5 km/h (1 Bft) NW 315 ° 0 min 0,000 mm 0,8 UV-I 109 W/m² 7,7 °C 14,7 °C 9,7 km/h (2 Bft)
01.11.2018 15:04 14,7 °C 63 % 1010,0 hPa 0,0 mm 3,2 km/h (1 Bft) W-NW 292 ° 0 min 0,000 mm 0,8 UV-I 132 W/m² 7,7 °C 14,7 °C 4,8 km/h (1 Bft)
01.11.2018 15:05 14,6 °C 63 % 1010,0 hPa 0,0 mm 4,6 km/h (1 Bft) W 281 ° 0 min 0,000 mm 0,8 UV-I 130 W/m² 7,6 °C 14,6 °C 6,4 km/h (2 Bft)
01.11.2018 15:06 14,6 °C 62 % 1010,1 hPa 0,0 mm 4,4 km/h (1 Bft) W-NW 298 ° 0 min 0,000 mm 0,8 UV-I 77 W/m² 7,4 °C 14,6 °C 8,0 km/h (2 Bft)
01.11.2018 15:07 14,6 °C 63 % 1010,0 hPa 0,0 mm 3,4 km/h (1 Bft) W-NW 298 ° 0 min 0,000 mm 0,8 UV-I 88 W/m² 7,6 °C 14,6 °C 6,4 km/h (2 Bft)
01.11.2018 15:08 14,5 °C 62 % 1010,0 hPa 0,0 mm 2,4 km/h (1 Bft) NW 315 ° 0 min 0,000 mm 0,7 UV-I 72 W/m² 7,3 °C 14,5 °C 12,9 km/h (3 Bft)
01.11.2018 15:09 14,5 °C 63 % 1010,0 hPa 0,0 mm 4,0 km/h (1 Bft) W-NW 302 ° 0 min 0,000 mm 0,7 UV-I 39 W/m² 7,5 °C 14,5 °C 8,0 km/h (2 Bft)
01.11.2018 15:10 14,5 °C 64 % 1010,0 hPa 0,0 mm 4,6 km/h (1 Bft) NW 316 ° 0 min 0,000 mm 0,0 UV-I 25 W/m² 7,8 °C 14,5 °C 8,0 km/h (2 Bft)
01.11.2018 15:11 14,4 °C 64 % 1010,1 hPa 0,0 mm 6,0 km/h (2 Bft) NW 319 ° 0 min 0,000 mm 0,0 UV-I 26 W/m² 7,7 °C 14,4 °C 11,3 km/h (2 Bft)
01.11.2018 15:12 14,3 °C 65 % 1010,0 hPa 0,0 mm 3,9 km/h (1 Bft) W-NW 299 ° 0 min 0,000 mm 0,0 UV-I 28 W/m² 7,8 °C 14,3 °C 6,4 km/h (2 Bft)
01.11.2018 15:13 14,2 °C 65 % 1010,1 hPa 0,0 mm 3,6 km/h (1 Bft) W-NW 297 ° 0 min 0,000 mm 0,0 UV-I 30 W/m² 7,7 °C 14,2 °C 4,8 km/h (1 Bft)
01.11.2018 15:14 14,2 °C 65 % 1010,0 hPa 0,0 mm 4,0 km/h (1 Bft) NW 316 ° 0 min 0,000 mm 0,0 UV-I 30 W/m² 7,7 °C 14,2 °C 4,8 km/h (1 Bft)
01.11.2018 15:15 14,1 °C 65 % 1010,1 hPa 0,0 mm 4,4 km/h (1 Bft) W-NW 295 ° 0 min 0,000 mm 0,0 UV-I 32 W/m² 7,6 °C 14,1 °C 6,4 km/h (2 Bft)
01.11.2018 15:16 14,1 °C 64 % 1010,1 hPa 0,0 mm 4,7 km/h (1 Bft) W-NW 288 ° 0 min 0,000 mm 0,0 UV-I 26 W/m² 7,4 °C 14,1 °C 8,0 km/h (2 Bft)
01.11.2018 15:17 14,1 °C 64 % 1010,1 hPa 0,0 mm 2,5 km/h (1 Bft) W 280 ° 0 min 0,000 mm 0,0 UV-I 25 W/m² 7,4 °C 14,1 °C 6,4 km/h (2 Bft)
01.11.2018 15:18 14,1 °C 64 % 1010,1 hPa 0,0 mm 3,8 km/h (1 Bft) W 266 ° 0 min 0,000 mm 0,0 UV-I 23 W/m² 7,4 °C 14,1 °C 6,4 km/h (2 Bft)
01.11.2018 15:19 14,0 °C 64 % 1010,1 hPa 0,0 mm 3,8 km/h (1 Bft) W-NW 286 ° 0 min 0,000 mm 0,0 UV-I 21 W/m² 7,3 °C 14,0 °C 6,4 km/h (2 Bft)
01.11.2018 15:20 14,0 °C 65 % 1010,1 hPa 0,0 mm 4,8 km/h (1 Bft) W-NW 300 ° 0 min 0,000 mm 0,0 UV-I 21 W/m² 7,5 °C 14,0 °C 6,4 km/h (2 Bft)
01.11.2018 15:21 13,9 °C 65 % 1010,0 hPa 0,0 mm 4,6 km/h (1 Bft) W-NW 298 ° 0 min 0,000 mm 0,0 UV-I 21 W/m² 7,4 °C 13,9 °C 6,4 km/h (2 Bft)
01.11.2018 15:22 13,9 °C 65 % 1010,1 hPa 0,0 mm 4,7 km/h (1 Bft) NW 306 ° 0 min 0,000 mm 0,0 UV-I 21 W/m² 7,4 °C 13,9 °C 6,4 km/h (2 Bft)
01.11.2018 15:23 13,9 °C 64 % 1010,1 hPa 0,0 mm 4,6 km/h (1 Bft) NW 322 ° 0 min 0,000 mm 0,0 UV-I 21 W/m² 7,2 °C 13,9 °C 8,0 km/h (2 Bft)
01.11.2018 15:24 13,9 °C 65 % 1010,0 hPa 0,0 mm 2,8 km/h (1 Bft) NW 320 ° 0 min 0,000 mm 0,0 UV-I 19 W/m² 7,4 °C 13,9 °C 6,4 km/h (2 Bft)
01.11.2018 15:25 13,8 °C 65 % 1010,0 hPa 0,0 mm 1,9 km/h (1 Bft) NW 320 ° 0 min 0,000 mm 0,0 UV-I 19 W/m² 7,3 °C 13,8 °C 3,2 km/h (1 Bft)
01.11.2018 15:26 13,8 °C 65 % 1010,0 hPa 0,0 mm 1,2 km/h (1 Bft) NW 320 ° 0 min 0,000 mm 0,0 UV-I 19 W/m² 7,3 °C 13,8 °C 3,2 km/h (1 Bft)
01.11.2018 15:27 13,8 °C 65 % 1010,1 hPa 0,0 mm 0,6 km/h (0 Bft) NW 320 ° 0 min 0,000 mm 0,0 UV-I 19 W/m² 7,3 °C 13,8 °C 3,2 km/h (1 Bft)
01.11.2018 15:28 13,8 °C 65 % 1010,1 hPa 0,0 mm 0,7 km/h (0 Bft) NW 320 ° 0 min 0,000 mm 0,0 UV-I 19 W/m² 7,3 °C 13,8 °C 3,2 km/h (1 Bft)
01.11.2018 15:29 13,8 °C 66 % 1010,2 hPa 0,0 mm 0,0 km/h (0 Bft) NW 320 ° 0 min 0,000 mm 0,0 UV-I 19 W/m² 7,6 °C 13,8 °C 0,0 km/h (0 Bft)
01.11.2018 15:30 13,8 °C 65 % 1010,2 hPa 0,0 mm 0,5 km/h (0 Bft) NW 320 ° 0 min 0,000 mm 0,0 UV-I 19 W/m² 7,3 °C 13,8 °C 1,6 km/h (1 Bft)
01.11.2018 15:31 13,8 °C 65 % 1010,2 hPa 0,0 mm 2,9 km/h (1 Bft) NW 320 ° 0 min 0,000 mm 0,0 UV-I 19 W/m² 7,3 °C 13,8 °C 4,8 km/h (1 Bft)
01.11.2018 15:32 13,7 °C 65 % 1010,2 hPa 0,0 mm 0,5 km/h (0 Bft) NW 320 ° 0 min 0,000 mm 0,0 UV-I 19 W/m² 7,2 °C 13,7 °C 1,6 km/h (1 Bft)
01.11.2018 15:33 13,7 °C 66 % 1010,2 hPa 0,0 mm 0,0 km/h (0 Bft) NW 320 ° 0 min 0,000 mm 0,0 UV-I 19 W/m² 7,5 °C 13,7 °C 0,0 km/h (0 Bft)
01.11.2018 15:34 13,6 °C 67 % 1010,2 hPa 0,0 mm 0,0 km/h (0 Bft) NW 320 ° 0 min 0,000 mm 0,0 UV-I 19 W/m² 7,6 °C 13,6 °C 0,0 km/h (0 Bft)
01.11.2018 15:35 13,5 °C 67 % 1010,2 hPa 0,0 mm 0,0 km/h (0 Bft) NW 320 ° 0 min 0,000 mm 0,0 UV-I 19 W/m² 7,5 °C 13,5 °C 0,0 km/h (0 Bft)
01.11.2018 15:36 13,4 °C 67 % 1010,2 hPa 0,0 mm 1,8 km/h (1 Bft) NW 320 ° 0 min 0,000 mm 0,0 UV-I 19 W/m² 7,4 °C 13,4 °C 3,2 km/h (1 Bft)
01.11.2018 15:37 13,4 °C 67 % 1010,2 hPa 0,0 mm 0,7 km/h (0 Bft) NW 320 ° 0 min 0,000 mm 0,0 UV-I 19 W/m² 7,4 °C 13,4 °C 4,8 km/h (1 Bft)
01.11.2018 15:38 13,3 °C 68 % 1010,2 hPa 0,0 mm 2,1 km/h (1 Bft) NW 320 ° 0 min 0,000 mm 0,0 UV-I 18 W/m² 7,5 °C 13,3 °C 4,8 km/h (1 Bft)
01.11.2018 15:39 13,2 °C 68 % 1010,2 hPa 0,0 mm 1,0 km/h (0 Bft) NW 320 ° 0 min 0,000 mm 0,0 UV-I 18 W/m² 7,4 °C 13,2 °C 3,2 km/h (1 Bft)
01.11.2018 15:40 13,2 °C 68 % 1010,3 hPa 0,0 mm 1,0 km/h (0 Bft) NW 320 ° 0 min 0,000 mm 0,0 UV-I 18 W/m² 7,4 °C 13,2 °C 3,2 km/h (1 Bft)
01.11.2018 15:41 13,1 °C 68 % 1010,2 hPa 0,0 mm 0,3 km/h (0 Bft) NW 320 ° 0 min 0,000 mm 0,0 UV-I 18 W/m² 7,3 °C 13,1 °C 1,6 km/h (1 Bft)
01.11.2018 15:42 13,1 °C 68 % 1010,2 hPa 0,0 mm 0,0 km/h (0 Bft) NW 320 ° 0 min 0,000 mm 0,0 UV-I 18 W/m² 7,3 °C 13,1 °C 0,0 km/h (0 Bft)
01.11.2018 15:43 13,1 °C 68 % 1010,2 hPa 0,0 mm 0,0 km/h (0 Bft) NW 320 ° 0 min 0,000 mm 0,0 UV-I 18 W/m² 7,3 °C 13,1 °C 0,0 km/h (0 Bft)
01.11.2018 15:44 13,1 °C 68 % 1010,2 hPa 0,0 mm 0,0 km/h (0 Bft) NW 320 ° 0 min 0,000 mm 0,0 UV-I 18 W/m² 7,3 °C 13,1 °C 0,0 km/h (0 Bft)
01.11.2018 15:45 13,2 °C 68 % 1010,2 hPa 0,0 mm 0,0 km/h (0 Bft) NW 320 ° 0 min 0,000 mm 0,0 UV-I 18 W/m² 7,4 °C 13,2 °C 0,0 km/h (0 Bft)
01.11.2018 15:46 13,2 °C 68 % 1010,2 hPa 0,0 mm 0,0 km/h (0 Bft) NW 320 ° 0 min 0,000 mm 0,0 UV-I 18 W/m² 7,4 °C 13,2 °C 0,0 km/h (0 Bft)
01.11.2018 15:47 13,2 °C 68 % 1010,3 hPa 0,0 mm 0,0 km/h (0 Bft) NW 320 ° 0 min 0,000 mm 0,0 UV-I 18 W/m² 7,4 °C 13,2 °C 0,0 km/h (0 Bft)
01.11.2018 15:48 13,2 °C 68 % 1010,3 hPa 0,0 mm 0,3 km/h (0 Bft) NW 320 ° 0 min 0,000 mm 0,0 UV-I 18 W/m² 7,4 °C 13,2 °C 1,6 km/h (1 Bft)
01.11.2018 15:49 13,2 °C 68 % 1010,4 hPa 0,0 mm 0,7 km/h (0 Bft) NW 320 ° 0 min 0,000 mm 0,0 UV-I 18 W/m² 7,4 °C 13,2 °C 3,2 km/h (1 Bft)
01.11.2018 15:50 13,2 °C 68 % 1010,3 hPa 0,0 mm 0,7 km/h (0 Bft) NW 320 ° 0 min 0,000 mm 0,0 UV-I 18 W/m² 7,4 °C 13,2 °C 1,6 km/h (1 Bft)
01.11.2018 15:51 13,2 °C 67 % 1010,3 hPa 0,0 mm 1,3 km/h (1 Bft) NW 320 ° 0 min 0,000 mm 0,0 UV-I 16 W/m² 7,2 °C 13,2 °C 3,2 km/h (1 Bft)
01.11.2018 15:52 13,2 °C 67 % 1010,4 hPa 0,0 mm 0,1 km/h (0 Bft) NW 320 ° 0 min 0,000 mm 0,0 UV-I 16 W/m² 7,2 °C 13,2 °C 1,6 km/h (1 Bft)
01.11.2018 15:53 13,1 °C 68 % 1010,4 hPa 0,0 mm 0,0 km/h (0 Bft) NW 320 ° 0 min 0,000 mm 0,0 UV-I 16 W/m² 7,3 °C 13,1 °C 0,0 km/h (0 Bft)
01.11.2018 15:54 13,1 °C 69 % 1010,4 hPa 0,0 mm 0,0 km/h (0 Bft) NW 320 ° 0 min 0,000 mm 0,0 UV-I 16 W/m² 7,5 °C 13,1 °C 0,0 km/h (0 Bft)
01.11.2018 15:55 12,9 °C 70 % 1010,4 hPa 0,0 mm 0,0 km/h (0 Bft) NW 320 ° 0 min 0,000 mm 0,0 UV-I 16 W/m² 7,6 °C 12,9 °C 0,0 km/h (0 Bft)
01.11.2018 15:56 12,7 °C 70 % 1010,4 hPa 0,0 mm 0,0 km/h (0 Bft) NW 320 ° 0 min 0,000 mm 0,0 UV-I 16 W/m² 7,4 °C 12,7 °C 0,0 km/h (0 Bft)
01.11.2018 15:57 12,6 °C 70 % 1010,4 hPa 0,0 mm 0,0 km/h (0 Bft) NW 320 ° 0 min 0,000 mm 0,0 UV-I 16 W/m² 7,3 °C 12,6 °C 0,0 km/h (0 Bft)
01.11.2018 15:58 12,5 °C 70 % 1010,4 hPa 0,0 mm 0,0 km/h (0 Bft) NW 320 ° 0 min 0,000 mm 0,0 UV-I 16 W/m² 7,2 °C 12,5 °C 0,0 km/h (0 Bft)
01.11.2018 15:59 12,5 °C 70 % 1010,5 hPa 0,0 mm 0,2 km/h (0 Bft) NW 320 ° 0 min 0,000 mm 0,0 UV-I 16 W/m² 7,2 °C 12,5 °C 1,6 km/h (1 Bft)
01.11.2018 16:00 12,6 °C 70 % 1010,4 hPa 0,0 mm 0,0 km/h (0 Bft) NW 320 ° 0 min 0,000 mm 0,0 UV-I 16 W/m² 7,3 °C 12,6 °C 0,0 km/h (0 Bft)
01.11.2018 16:01 12,7 °C 70 % 1010,5 hPa 0,0 mm 0,0 km/h (0 Bft) NW 320 ° 0 min 0,025 mm 0,0 UV-I 16 W/m² 7,4 °C 12,7 °C 0,0 km/h (0 Bft)
01.11.2018 16:02 12,8 °C 70 % 1010,5 hPa 0,0 mm 0,0 km/h (0 Bft) NW 320 ° 0 min 0,000 mm 0,0 UV-I 16 W/m² 7,5 °C 12,8 °C 0,0 km/h (0 Bft)
01.11.2018 16:03 12,8 °C 69 % 1010,5 hPa 0,0 mm 0,0 km/h (0 Bft) NW 320 ° 0 min 0,000 mm 0,0 UV-I 16 W/m² 7,3 °C 12,8 °C 0,0 km/h (0 Bft)
01.11.2018 16:04 12,8 °C 69 % 1010,5 hPa 0,0 mm 0,0 km/h (0 Bft) NW 320 ° 0 min 0,000 mm 0,0 UV-I 14 W/m² 7,3 °C 12,8 °C 0,0 km/h (0 Bft)
01.11.2018 16:05 12,9 °C 70 % 1010,5 hPa 0,0 mm 0,0 km/h (0 Bft) NW 320 ° 0 min 0,000 mm 0,0 UV-I 14 W/m² 7,6 °C 12,9 °C 0,0 km/h (0 Bft)
01.11.2018 16:06 12,9 °C 70 % 1010,5 hPa 0,0 mm 0,0 km/h (0 Bft) NW 320 ° 0 min 0,000 mm 0,0 UV-I 14 W/m² 7,6 °C 12,9 °C 0,0 km/h (0 Bft)
01.11.2018 16:07 12,7 °C 70 % 1010,5 hPa 0,0 mm 0,0 km/h (0 Bft) NW 320 ° 0 min 0,000 mm 0,0 UV-I 14 W/m² 7,4 °C 12,7 °C 0,0 km/h (0 Bft)
01.11.2018 16:08 12,6 °C 71 % 1010,5 hPa 0,0 mm 1,0 km/h (0 Bft) NW 320 ° 0 min 0,000 mm 0,0 UV-I 14 W/m² 7,5 °C 12,6 °C 3,2 km/h (1 Bft)
01.11.2018 16:09 12,4 °C 71 % 1010,5 hPa 0,0 mm 1,3 km/h (1 Bft) NW 320 ° 0 min 0,000 mm 0,0 UV-I 14 W/m² 7,3 °C 12,4 °C 3,2 km/h (1 Bft)
01.11.2018 16:10 12,4 °C 72 % 1010,5 hPa 0,0 mm 1,0 km/h (0 Bft) NW 320 ° 0 min 0,000 mm 0,0 UV-I 14 W/m² 7,5 °C 12,4 °C 3,2 km/h (1 Bft)
01.11.2018 16:11 12,4 °C 72 % 1010,5 hPa 0,0 mm 1,5 km/h (1 Bft) NW 320 ° 0 min 0,000 mm 0,0 UV-I 14 W/m² 7,5 °C 12,4 °C 1,6 km/h (1 Bft)
01.11.2018 16:12 12,4 °C 72 % 1010,5 hPa 0,0 mm 0,2 km/h (0 Bft) NW 320 ° 0 min 0,000 mm 0,0 UV-I 14 W/m² 7,5 °C 12,4 °C 1,6 km/h (1 Bft)
01.11.2018 16:13 12,4 °C 73 % 1010,5 hPa 0,0 mm 0,0 km/h (0 Bft) NW 320 ° 0 min 0,000 mm 0,0 UV-I 14 W/m² 7,7 °C 12,4 °C 0,0 km/h (0 Bft)
01.11.2018 16:14 12,4 °C 72 % 1010,6 hPa 0,0 mm 0,0 km/h (0 Bft) NW 320 ° 0 min 0,000 mm 0,0 UV-I 14 W/m² 7,5 °C 12,4 °C 0,0 km/h (0 Bft)
01.11.2018 16:15 12,4 °C 72 % 1010,6 hPa 0,0 mm 0,7 km/h (0 Bft) NW 320 ° 0 min 0,000 mm 0,0 UV-I 14 W/m² 7,5 °C 12,4 °C 3,2 km/h (1 Bft)
01.11.2018 16:16 12,3 °C 73 % 1010,6 hPa 0,0 mm 0,8 km/h (0 Bft) NW 320 ° 0 min 0,000 mm 0,0 UV-I 12 W/m² 7,6 °C 12,3 °C 1,6 km/h (1 Bft)
01.11.2018 16:17 12,2 °C 73 % 1010,6 hPa 0,0 mm 1,4 km/h (1 Bft) NW 320 ° 0 min 0,000 mm 0,0 UV-I 12 W/m² 7,5 °C 12,2 °C 3,2 km/h (1 Bft)
01.11.2018 16:18 12,1 °C 73 % 1010,6 hPa 0,0 mm 2,2 km/h (1 Bft) NW 320 ° 0 min 0,000 mm 0,0 UV-I 12 W/m² 7,4 °C 12,1 °C 3,2 km/h (1 Bft)
01.11.2018 16:19 12,1 °C 73 % 1010,6 hPa 0,0 mm 3,5 km/h (1 Bft) NW 320 ° 0 min 0,000 mm 0,0 UV-I 12 W/m² 7,4 °C 12,1 °C 4,8 km/h (1 Bft)
01.11.2018 16:20 11,9 °C 74 % 1010,6 hPa 0,0 mm 3,6 km/h (1 Bft) S 189 ° 0 min 0,000 mm 0,0 UV-I 12 W/m² 7,4 °C 11,9 °C 4,8 km/h (1 Bft)
01.11.2018 16:21 11,9 °C 73 % 1010,6 hPa 0,0 mm 1,6 km/h (1 Bft) S 189 ° 0 min 0,000 mm 0,0 UV-I 12 W/m² 7,2 °C 11,9 °C 3,2 km/h (1 Bft)
01.11.2018 16:22 11,8 °C 74 % 1010,7 hPa 0,0 mm 1,8 km/h (1 Bft) S 189 ° 0 min 0,000 mm 0,0 UV-I 12 W/m² 7,3 °C 11,8 °C 3,2 km/h (1 Bft)
01.11.2018 16:23 11,7 °C 74 % 1010,7 hPa 0,0 mm 2,5 km/h (1 Bft) S 189 ° 0 min 0,000 mm 0,0 UV-I 12 W/m² 7,2 °C 11,7 °C 3,2 km/h (1 Bft)
01.11.2018 16:24 11,7 °C 74 % 1010,7 hPa 0,0 mm 3,1 km/h (1 Bft) S 189 ° 0 min 0,000 mm 0,0 UV-I 12 W/m² 7,2 °C 11,7 °C 4,8 km/h (1 Bft)
01.11.2018 16:25 11,6 °C 74 % 1010,7 hPa 0,0 mm 1,9 km/h (1 Bft) S 189 ° 0 min 0,000 mm 0,0 UV-I 12 W/m² 7,1 °C 11,6 °C 3,2 km/h (1 Bft)
01.11.2018 16:26 11,6 °C 74 % 1010,7 hPa 0,0 mm 2,7 km/h (1 Bft) S 189 ° 0 min 0,000 mm 0,0 UV-I 12 W/m² 7,1 °C 11,6 °C 4,8 km/h (1 Bft)
01.11.2018 16:27 11,6 °C 74 % 1010,7 hPa 0,0 mm 0,3 km/h (0 Bft) S 189 ° 0 min 0,000 mm 0,0 UV-I 11 W/m² 7,1 °C 11,6 °C 1,6 km/h (1 Bft)
01.11.2018 16:28 11,4 °C 75 % 1010,7 hPa 0,0 mm 0,0 km/h (0 Bft) S 189 ° 0 min 0,000 mm 0,0 UV-I 11 W/m² 7,1 °C 11,4 °C 0,0 km/h (0 Bft)
01.11.2018 16:29 11,4 °C 75 % 1010,7 hPa 0,0 mm 0,0 km/h (0 Bft) S 189 ° 0 min 0,000 mm 0,0 UV-I 11 W/m² 7,1 °C 11,4 °C 0,0 km/h (0 Bft)
01.11.2018 16:30 11,4 °C 75 % 1010,8 hPa 0,0 mm 0,0 km/h (0 Bft) S 189 ° 0 min 0,000 mm 0,0 UV-I 11 W/m² 7,1 °C 11,4 °C 0,0 km/h (0 Bft)
01.11.2018 16:31 11,5 °C 76 % 1010,8 hPa 0,0 mm 0,0 km/h (0 Bft) S 189 ° 0 min 0,000 mm 0,0 UV-I 11 W/m² 7,4 °C 11,5 °C 0,0 km/h (0 Bft)
01.11.2018 16:32 11,5 °C 76 % 1010,8 hPa 0,0 mm 0,3 km/h (0 Bft) S 189 ° 0 min 0,000 mm 0,0 UV-I 11 W/m² 7,4 °C 11,5 °C 1,6 km/h (1 Bft)
01.11.2018 16:33 11,5 °C 75 % 1010,7 hPa 0,0 mm 1,0 km/h (0 Bft) S 189 ° 0 min 0,000 mm 0,0 UV-I 11 W/m² 7,2 °C 11,5 °C 3,2 km/h (1 Bft)
01.11.2018 16:34 11,5 °C 76 % 1010,7 hPa 0,0 mm 1,7 km/h (1 Bft) S 189 ° 0 min 0,000 mm 0,0 UV-I 11 W/m² 7,4 °C 11,5 °C 3,2 km/h (1 Bft)
01.11.2018 16:35 11,5 °C 76 % 1010,7 hPa 0,0 mm 2,1 km/h (1 Bft) S 189 ° 0 min 0,000 mm 0,0 UV-I 11 W/m² 7,4 °C 11,5 °C 3,2 km/h (1 Bft)
01.11.2018 16:36 11,5 °C 76 % 1010,7 hPa 0,0 mm 1,5 km/h (1 Bft) S 189 ° 0 min 0,000 mm 0,0 UV-I 9 W/m² 7,4 °C 11,5 °C 3,2 km/h (1 Bft)
01.11.2018 16:37 11,6 °C 75 % 1010,7 hPa 0,0 mm 0,2 km/h (0 Bft) S 189 ° 0 min 0,000 mm 0,0 UV-I 9 W/m² 7,3 °C 11,6 °C 1,6 km/h (1 Bft)
01.11.2018 16:38 11,6 °C 75 % 1010,7 hPa 0,0 mm 0,0 km/h (0 Bft) S 189 ° 0 min 0,000 mm 0,0 UV-I 9 W/m² 7,3 °C 11,6 °C 0,0 km/h (0 Bft)
01.11.2018 16:39 11,6 °C 75 % 1010,7 hPa 0,0 mm 0,1 km/h (0 Bft) S 189 ° 0 min 0,000 mm 0,0 UV-I 9 W/m² 7,3 °C 11,6 °C 1,6 km/h (1 Bft)
01.11.2018 16:40 11,5 °C 74 % 1010,7 hPa 0,0 mm 1,7 km/h (1 Bft) S 189 ° 0 min 0,000 mm 0,0 UV-I 9 W/m² 7,0 °C 11,5 °C 3,2 km/h (1 Bft)
01.11.2018 16:41 11,3 °C 74 % 1010,8 hPa 0,0 mm 0,8 km/h (0 Bft) S 189 ° 0 min 0,000 mm 0,0 UV-I 9 W/m² 6,8 °C 11,3 °C 3,2 km/h (1 Bft)
01.11.2018 16:42 11,1 °C 74 % 1010,7 hPa 0,0 mm 0,0 km/h (0 Bft) S 189 ° 0 min 0,000 mm 0,0 UV-I 9 W/m² 6,6 °C 11,1 °C 0,0 km/h (0 Bft)
01.11.2018 16:43 10,8 °C 76 % 1010,8 hPa 0,0 mm 0,9 km/h (0 Bft) S 190 ° 0 min 0,000 mm 0,0 UV-I 7 W/m² 6,7 °C 10,8 °C 3,2 km/h (1 Bft)
01.11.2018 16:44 10,6 °C 76 % 1010,8 hPa 0,0 mm 0,0 km/h (0 Bft) S 190 ° 0 min 0,000 mm 0,0 UV-I 7 W/m² 6,5 °C 10,6 °C 0,0 km/h (0 Bft)
01.11.2018 16:45 10,3 °C 77 % 1010,8 hPa 0,0 mm 0,0 km/h (0 Bft) S 190 ° 0 min 0,000 mm 0,0 UV-I 7 W/m² 6,4 °C 10,3 °C 0,0 km/h (0 Bft)
01.11.2018 16:46 10,3 °C 79 % 1010,8 hPa 0,0 mm 0,0 km/h (0 Bft) S 190 ° 0 min 0,000 mm 0,0 UV-I 7 W/m² 6,8 °C 10,3 °C 0,0 km/h (0 Bft)
01.11.2018 16:47 10,2 °C 79 % 1010,8 hPa 0,0 mm 0,0 km/h (0 Bft) S 190 ° 0 min 0,000 mm 0,0 UV-I 7 W/m² 6,7 °C 10,2 °C 0,0 km/h (0 Bft)
01.11.2018 16:48 10,3 °C 79 % 1010,8 hPa 0,0 mm 0,0 km/h (0 Bft) S 190 ° 0 min 0,000 mm 0,0 UV-I 5 W/m² 6,8 °C 10,3 °C 0,0 km/h (0 Bft)
01.11.2018 16:49 10,3 °C 78 % 1010,8 hPa 0,0 mm 1,8 km/h (1 Bft) S 190 ° 0 min 0,000 mm 0,0 UV-I 5 W/m² 6,6 °C 10,3 °C 3,2 km/h (1 Bft)
01.11.2018 16:50 10,3 °C 77 % 1010,8 hPa 0,0 mm 2,7 km/h (1 Bft) S 190 ° 0 min 0,000 mm 0,0 UV-I 5 W/m² 6,4 °C 10,3 °C 4,8 km/h (1 Bft)
01.11.2018 16:51 10,3 °C 78 % 1010,8 hPa 0,0 mm 3,6 km/h (1 Bft) S 190 ° 0 min 0,000 mm 0,0 UV-I 5 W/m² 6,6 °C 10,3 °C 4,8 km/h (1 Bft)
01.11.2018 16:52 10,4 °C 78 % 1010,8 hPa 0,0 mm 2,7 km/h (1 Bft) S 190 ° 0 min 0,000 mm 0,0 UV-I 5 W/m² 6,7 °C 10,4 °C 4,8 km/h (1 Bft)
01.11.2018 16:53 10,6 °C 77 % 1010,9 hPa 0,0 mm 0,7 km/h (0 Bft) S 190 ° 0 min 0,000 mm 0,0 UV-I 5 W/m² 6,7 °C 10,6 °C 3,2 km/h (1 Bft)
01.11.2018 16:54 10,7 °C 77 % 1010,9 hPa 0,0 mm 0,1 km/h (0 Bft) S 190 ° 0 min 0,000 mm 0,0 UV-I 5 W/m² 6,8 °C 10,7 °C 1,6 km/h (1 Bft)
01.11.2018 16:55 10,7 °C 77 % 1010,9 hPa 0,0 mm 1,0 km/h (0 Bft) S 190 ° 0 min 0,000 mm 0,0 UV-I 0 W/m² 6,8 °C 10,7 °C 1,6 km/h (1 Bft)
01.11.2018 16:56 10,8 °C 76 % 1010,9 hPa 0,0 mm 1,5 km/h (1 Bft) S 190 ° 0 min 0,000 mm 0,0 UV-I 0 W/m² 6,7 °C 10,8 °C 3,2 km/h (1 Bft)
01.11.2018 16:57 10,7 °C 75 % 1011,0 hPa 0,0 mm 2,3 km/h (1 Bft) S 190 ° 0 min 0,000 mm 0,0 UV-I 0 W/m² 6,5 °C 10,7 °C 3,2 km/h (1 Bft)
01.11.2018 16:58 10,6 °C 76 % 1010,9 hPa 0,0 mm 3,7 km/h (1 Bft) S 190 ° 0 min 0,000 mm 0,0 UV-I 0 W/m² 6,5 °C 10,6 °C 4,8 km/h (1 Bft)
01.11.2018 16:59 10,5 °C 76 % 1011,0 hPa 0,0 mm 3,3 km/h (1 Bft) S 190 ° 0 min 0,000 mm 0,0 UV-I 0 W/m² 6,5 °C 10,5 °C 4,8 km/h (1 Bft)
01.11.2018 17:00 10,6 °C 76 % 1011,0 hPa 0,0 mm 0,2 km/h (0 Bft) S 190 ° 0 min 0,000 mm 0,0 UV-I 0 W/m² 6,5 °C 10,6 °C 1,6 km/h (1 Bft)
01.11.2018 17:01 10,7 °C 75 % 1011,0 hPa 0,0 mm 0,0 km/h (0 Bft) S 190 ° 0 min 0,000 mm 0,0 UV-I 0 W/m² 6,5 °C 10,7 °C 0,0 km/h (0 Bft)
01.11.2018 17:02 10,6 °C 75 % 1011,1 hPa 0,0 mm 0,0 km/h (0 Bft) S 190 ° 0 min 0,000 mm 0,0 UV-I 0 W/m² 6,4 °C 10,6 °C 0,0 km/h (0 Bft)
01.11.2018 17:03 10,3 °C 75 % 1011,1 hPa 0,0 mm 0,0 km/h (0 Bft) S 190 ° 0 min 0,000 mm 0,0 UV-I 0 W/m² 6,1 °C 10,3 °C 0,0 km/h (0 Bft)
01.11.2018 17:04 10,1 °C 75 % 1011,1 hPa 0,0 mm 0,0 km/h (0 Bft) S 190 ° 0 min 0,000 mm 0,0 UV-I 0 W/m² 5,9 °C 10,1 °C 0,0 km/h (0 Bft)
01.11.2018 17:05 9,8 °C 76 % 1011,1 hPa 0,0 mm 0,8 km/h (0 Bft) S 190 ° 0 min 0,000 mm 0,0 UV-I 0 W/m² 5,8 °C 9,8 °C 3,2 km/h (1 Bft)
01.11.2018 17:06 9,6 °C 78 % 1011,2 hPa 0,0 mm 2,3 km/h (1 Bft) S 190 ° 0 min 0,000 mm 0,0 UV-I 0 W/m² 6,0 °C 9,6 °C 3,2 km/h (1 Bft)
01.11.2018 17:07 9,4 °C 79 % 1011,3 hPa 0,0 mm 1,9 km/h (1 Bft) S 190 ° 0 min 0,000 mm 0,0 UV-I 0 W/m² 5,9 °C 9,4 °C 3,2 km/h (1 Bft)
01.11.2018 17:08 9,2 °C 80 % 1011,3 hPa 0,0 mm 3,0 km/h (1 Bft) S 189 ° 0 min 0,000 mm 0,0 UV-I 0 W/m² 5,9 °C 9,2 °C 4,8 km/h (1 Bft)
01.11.2018 17:09 9,1 °C 81 % 1011,3 hPa 0,0 mm 2,3 km/h (1 Bft) S 189 ° 0 min 0,000 mm 0,0 UV-I 0 W/m² 6,0 °C 9,1 °C 3,2 km/h (1 Bft)
01.11.2018 17:10 8,9 °C 81 % 1011,3 hPa 0,0 mm 1,5 km/h (1 Bft) S 189 ° 0 min 0,000 mm 0,0 UV-I 0 W/m² 5,8 °C 8,9 °C 3,2 km/h (1 Bft)
01.11.2018 17:11 8,8 °C 82 % 1011,3 hPa 0,0 mm 0,1 km/h (0 Bft) S 189 ° 0 min 0,000 mm 0,0 UV-I 0 W/m² 5,9 °C 8,8 °C 1,6 km/h (1 Bft)
01.11.2018 17:12 8,8 °C 82 % 1011,4 hPa 0,0 mm 0,1 km/h (0 Bft) S 189 ° 0 min 0,000 mm 0,0 UV-I 0 W/m² 5,9 °C 8,8 °C 1,6 km/h (1 Bft)
01.11.2018 17:13 8,8 °C 82 % 1011,4 hPa 0,0 mm 0,3 km/h (0 Bft) S 189 ° 0 min 0,000 mm 0,0 UV-I 0 W/m² 5,9 °C 8,8 °C 1,6 km/h (1 Bft)
01.11.2018 17:14 8,8 °C 82 % 1011,4 hPa 0,0 mm 0,5 km/h (0 Bft) S 189 ° 0 min 0,000 mm 0,0 UV-I 0 W/m² 5,9 °C 8,8 °C 1,6 km/h (1 Bft)
01.11.2018 17:15 9,0 °C 82 % 1011,3 hPa 0,0 mm 0,0 km/h (0 Bft) S 189 ° 0 min 0,000 mm 0,0 UV-I 0 W/m² 6,1 °C 9,0 °C 0,0 km/h (0 Bft)
01.11.2018 17:16 9,2 °C 81 % 1011,4 hPa 0,0 mm 0,8 km/h (0 Bft) S 189 ° 0 min 0,000 mm 0,0 UV-I 0 W/m² 6,1 °C 9,2 °C 3,2 km/h (1 Bft)
01.11.2018 17:17 9,4 °C 81 % 1011,4 hPa 0,0 mm 0,0 km/h (0 Bft) S 189 ° 0 min 0,000 mm 0,0 UV-I 0 W/m² 6,3 °C 9,4 °C 0,0 km/h (0 Bft)
01.11.2018 17:18 9,7 °C 78 % 1011,4 hPa 0,0 mm 0,0 km/h (0 Bft) S 189 ° 0 min 0,000 mm 0,0 UV-I 0 W/m² 6,1 °C 9,7 °C 0,0 km/h (0 Bft)
01.11.2018 17:19 9,7 °C 78 % 1011,5 hPa 0,0 mm 0,0 km/h (0 Bft) S 189 ° 0 min 0,000 mm 0,0 UV-I 0 W/m² 6,1 °C 9,7 °C 0,0 km/h (0 Bft)
01.11.2018 17:20 9,5 °C 78 % 1011,5 hPa 0,0 mm 0,0 km/h (0 Bft) S 189 ° 0 min 0,000 mm 0,0 UV-I 0 W/m² 5,9 °C 9,5 °C 0,0 km/h (0 Bft)
01.11.2018 17:21 9,3 °C 79 % 1011,6 hPa 0,0 mm 0,0 km/h (0 Bft) S 189 ° 0 min 0,000 mm 0,0 UV-I 0 W/m² 5,8 °C 9,3 °C 0,0 km/h (0 Bft)
01.11.2018 17:22 9,1 °C 79 % 1011,6 hPa 0,0 mm 0,0 km/h (0 Bft) S 189 ° 0 min 0,000 mm 0,0 UV-I 0 W/m² 5,7 °C 9,1 °C 0,0 km/h (0 Bft)
01.11.2018 17:23 8,9 °C 79 % 1011,6 hPa 0,0 mm 0,0 km/h (0 Bft) S 189 ° 0 min 0,000 mm 0,0 UV-I 0 W/m² 5,5 °C 8,9 °C 0,0 km/h (0 Bft)
01.11.2018 17:24 8,9 °C 81 % 1011,6 hPa 0,0 mm 0,0 km/h (0 Bft) S 189 ° 0 min 0,000 mm 0,0 UV-I 0 W/m² 5,8 °C 8,9 °C 0,0 km/h (0 Bft)
01.11.2018 17:25 8,9 °C 81 % 1011,6 hPa 0,0 mm 0,1 km/h (0 Bft) S 189 ° 0 min 0,000 mm 0,0 UV-I 0 W/m² 5,8 °C 8,9 °C 1,6 km/h (1 Bft)
01.11.2018 17:26 8,9 °C 80 % 1011,6 hPa 0,0 mm 3,2 km/h (1 Bft) S 189 ° 0 min 0,000 mm 0,0 UV-I 0 W/m² 5,6 °C 8,9 °C 4,8 km/h (1 Bft)
01.11.2018 17:27 8,8 °C 82 % 1011,7 hPa 0,0 mm 2,8 km/h (1 Bft) S 189 ° 0 min 0,000 mm 0,0 UV-I 0 W/m² 5,9 °C 8,8 °C 4,8 km/h (1 Bft)
01.11.2018 17:28 8,6 °C 81 % 1011,8 hPa 0,0 mm 2,0 km/h (1 Bft) S 189 ° 0 min 0,000 mm 0,0 UV-I 0 W/m² 5,5 °C 8,6 °C 3,2 km/h (1 Bft)
01.11.2018 17:29 8,6 °C 81 % 1011,8 hPa 0,0 mm 0,9 km/h (0 Bft) S 189 ° 0 min 0,000 mm 0,0 UV-I 0 W/m² 5,5 °C 8,6 °C 1,6 km/h (1 Bft)
01.11.2018 17:30 8,7 °C 82 % 1011,8 hPa 0,0 mm 0,2 km/h (0 Bft) S 189 ° 0 min 0,000 mm 0,0 UV-I 0 W/m² 5,8 °C 8,7 °C 1,6 km/h (1 Bft)
01.11.2018 17:31 8,9 °C 82 % 1011,9 hPa 0,0 mm 0,0 km/h (0 Bft) S 189 ° 0 min 0,000 mm 0,0 UV-I 0 W/m² 6,0 °C 8,9 °C 0,0 km/h (0 Bft)
01.11.2018 17:32 9,1 °C 81 % 1011,9 hPa 0,0 mm 0,1 km/h (0 Bft) S 189 ° 0 min 0,000 mm 0,0 UV-I 0 W/m² 6,0 °C 9,1 °C 1,6 km/h (1 Bft)
01.11.2018 17:33 9,2 °C 81 % 1011,9 hPa 0,0 mm 0,1 km/h (0 Bft) S 189 ° 0 min 0,000 mm 0,0 UV-I 0 W/m² 6,1 °C 9,2 °C 1,6 km/h (1 Bft)
01.11.2018 17:34 9,3 °C 80 % 1011,9 hPa 0,0 mm 0,0 km/h (0 Bft) S 189 ° 0 min 0,000 mm 0,0 UV-I 0 W/m² 6,0 °C 9,3 °C 0,0 km/h (0 Bft)
01.11.2018 17:35 9,4 °C 80 % 1011,9 hPa 0,0 mm 0,0 km/h (0 Bft) S 189 ° 0 min 0,000 mm 0,0 UV-I 0 W/m² 6,1 °C 9,4 °C 0,0 km/h (0 Bft)
01.11.2018 17:36 9,3 °C 78 % 1011,9 hPa 0,0 mm 0,0 km/h (0 Bft) S 189 ° 0 min 0,000 mm 0,0 UV-I 0 W/m² 5,7 °C 9,3 °C 0,0 km/h (0 Bft)
01.11.2018 17:37 9,2 °C 78 % 1011,9 hPa 0,0 mm 0,0 km/h (0 Bft) S 189 ° 0 min 0,000 mm 0,0 UV-I 0 W/m² 5,6 °C 9,2 °C 0,0 km/h (0 Bft)
01.11.2018 17:38 9,0 °C 79 % 1012,0 hPa 0,0 mm 0,0 km/h (0 Bft) S 189 ° 0 min 0,000 mm 0,0 UV-I 0 W/m² 5,6 °C 9,0 °C 0,0 km/h (0 Bft)
01.11.2018 17:39 8,9 °C 80 % 1012,0 hPa 0,0 mm 0,0 km/h (0 Bft) S 189 ° 0 min 0,000 mm 0,0 UV-I 0 W/m² 5,6 °C 8,9 °C 0,0 km/h (0 Bft)
01.11.2018 17:40 8,9 °C 80 % 1012,1 hPa 0,0 mm 0,0 km/h (0 Bft) S 189 ° 0 min 0,000 mm 0,0 UV-I 0 W/m² 5,6 °C 8,9 °C 0,0 km/h (0 Bft)
01.11.2018 17:41 8,9 °C 80 % 1012,0 hPa 0,0 mm 0,0 km/h (0 Bft) S 189 ° 0 min 0,000 mm 0,0 UV-I 0 W/m² 5,6 °C 8,9 °C 0,0 km/h (0 Bft)
01.11.2018 17:42 8,8 °C 80 % 1012,2 hPa 0,0 mm 0,0 km/h (0 Bft) S 189 ° 0 min 0,000 mm 0,0 UV-I 0 W/m² 5,5 °C 8,8 °C 0,0 km/h (0 Bft)
01.11.2018 17:43 8,7 °C 80 % 1012,1 hPa 0,0 mm 0,0 km/h (0 Bft) S 189 ° 0 min 0,000 mm 0,0 UV-I 0 W/m² 5,4 °C 8,7 °C 0,0 km/h (0 Bft)
01.11.2018 17:44 8,7 °C 81 % 1012,1 hPa 0,0 mm 0,0 km/h (0 Bft) S 189 ° 0 min 0,000 mm 0,0 UV-I 0 W/m² 5,6 °C 8,7 °C 0,0 km/h (0 Bft)
01.11.2018 17:45 8,6 °C 81 % 1012,2 hPa 0,0 mm 0,0 km/h (0 Bft) S 189 ° 0 min 0,000 mm 0,0 UV-I 0 W/m² 5,5 °C 8,6 °C 0,0 km/h (0 Bft)
01.11.2018 17:46 8,7 °C 81 % 1012,1 hPa 0,0 mm 0,0 km/h (0 Bft) S 189 ° 0 min 0,000 mm 0,0 UV-I 0 W/m² 5,6 °C 8,7 °C 0,0 km/h (0 Bft)
01.11.2018 17:47 8,6 °C 81 % 1012,1 hPa 0,0 mm 1,1 km/h (1 Bft) S 189 ° 0 min 0,000 mm 0,0 UV-I 0 W/m² 5,5 °C 8,6 °C 3,2 km/h (1 Bft)
01.11.2018 17:48 8,6 °C 81 % 1012,2 hPa 0,0 mm 0,8 km/h (0 Bft) S 189 ° 0 min 0,000 mm 0,0 UV-I 0 W/m² 5,5 °C 8,6 °C 1,6 km/h (1 Bft)
01.11.2018 17:49 8,7 °C 81 % 1012,2 hPa 0,0 mm 1,3 km/h (1 Bft) S 189 ° 0 min 0,000 mm 0,0 UV-I 0 W/m² 5,6 °C 8,7 °C 1,6 km/h (1 Bft)
01.11.2018 17:50 8,6 °C 81 % 1012,2 hPa 0,0 mm 0,0 km/h (0 Bft) S 189 ° 0 min 0,000 mm 0,0 UV-I 0 W/m² 5,5 °C 8,6 °C 0,0 km/h (0 Bft)
01.11.2018 17:51 8,7 °C 81 % 1012,1 hPa 0,0 mm 0,0 km/h (0 Bft) S 189 ° 0 min 0,000 mm 0,0 UV-I 0 W/m² 5,6 °C 8,7 °C 0,0 km/h (0 Bft)
01.11.2018 17:52 8,7 °C 81 % 1012,1 hPa 0,0 mm 0,0 km/h (0 Bft) S 189 ° 0 min 0,000 mm 0,0 UV-I 0 W/m² 5,6 °C 8,7 °C 0,0 km/h (0 Bft)
01.11.2018 17:53 8,7 °C 81 % 1012,2 hPa 0,0 mm 0,0 km/h (0 Bft) S 189 ° 0 min 0,000 mm 0,0 UV-I 0 W/m² 5,6 °C 8,7 °C 0,0 km/h (0 Bft)
01.11.2018 17:54 8,7 °C 81 % 1012,2 hPa 0,0 mm 0,7 km/h (0 Bft) S 189 ° 0 min 0,000 mm 0,0 UV-I 0 W/m² 5,6 °C 8,7 °C 3,2 km/h (1 Bft)
01.11.2018 17:55 8,7 °C 81 % 1012,2 hPa 0,0 mm 3,4 km/h (1 Bft) S 189 ° 0 min 0,000 mm 0,0 UV-I 0 W/m² 5,6 °C 8,7 °C 4,8 km/h (1 Bft)
01.11.2018 17:56 8,7 °C 81 % 1012,2 hPa 0,0 mm 4,4 km/h (1 Bft) S 189 ° 0 min 0,000 mm 0,0 UV-I 0 W/m² 5,6 °C 8,7 °C 6,4 km/h (2 Bft)
01.11.2018 17:57 8,7 °C 81 % 1012,2 hPa 0,0 mm 3,6 km/h (1 Bft) S 189 ° 0 min 0,000 mm 0,0 UV-I 0 W/m² 5,6 °C 8,7 °C 4,8 km/h (1 Bft)
01.11.2018 17:58 8,8 °C 81 % 1012,2 hPa 0,0 mm 3,8 km/h (1 Bft) S 189 ° 0 min 0,000 mm 0,0 UV-I 0 W/m² 5,7 °C 8,8 °C 4,8 km/h (1 Bft)
01.11.2018 17:59 8,7 °C 80 % 1012,2 hPa 0,0 mm 3,3 km/h (1 Bft) S 189 ° 0 min 0,000 mm 0,0 UV-I 0 W/m² 5,4 °C 8,7 °C 4,8 km/h (1 Bft)
01.11.2018 18:00 8,7 °C 81 % 1012,2 hPa 0,0 mm 2,7 km/h (1 Bft) S 189 ° 0 min 0,000 mm 0,0 UV-I 0 W/m² 5,6 °C 8,7 °C 4,8 km/h (1 Bft)
01.11.2018 18:01 8,7 °C 81 % 1012,3 hPa 0,0 mm 0,9 km/h (0 Bft) S 189 ° 0 min 0,000 mm 0,0 UV-I 0 W/m² 5,6 °C 8,7 °C 3,2 km/h (1 Bft)
01.11.2018 18:02 8,7 °C 81 % 1012,2 hPa 0,0 mm 0,9 km/h (0 Bft) S 189 ° 0 min 0,000 mm 0,0 UV-I 0 W/m² 5,6 °C 8,7 °C 3,2 km/h (1 Bft)
01.11.2018 18:03 8,6 °C 80 % 1012,2 hPa 0,0 mm 3,6 km/h (1 Bft) S 189 ° 0 min 0,000 mm 0,0 UV-I 0 W/m² 5,3 °C 8,6 °C 4,8 km/h (1 Bft)
01.11.2018 18:04 8,6 °C 81 % 1012,3 hPa 0,0 mm 3,6 km/h (1 Bft) S 189 ° 0 min 0,000 mm 0,0 UV-I 0 W/m² 5,5 °C 8,6 °C 4,8 km/h (1 Bft)
01.11.2018 18:05 8,4 °C 81 % 1012,3 hPa 0,0 mm 4,1 km/h (1 Bft) S 189 ° 0 min 0,000 mm 0,0 UV-I 0 W/m² 5,3 °C 8,4 °C 4,8 km/h (1 Bft)
01.11.2018 18:06 8,3 °C 81 % 1012,3 hPa 0,0 mm 2,2 km/h (1 Bft) S 189 ° 0 min 0,000 mm 0,0 UV-I 0 W/m² 5,2 °C 8,3 °C 4,8 km/h (1 Bft)
01.11.2018 18:07 8,2 °C 81 % 1012,4 hPa 0,0 mm 1,6 km/h (1 Bft) S 189 ° 0 min 0,000 mm 0,0 UV-I 0 W/m² 5,1 °C 8,2 °C 3,2 km/h (1 Bft)
01.11.2018 18:08 8,1 °C 81 % 1012,3 hPa 0,0 mm 1,6 km/h (1 Bft) S 189 ° 0 min 0,000 mm 0,0 UV-I 0 W/m² 5,0 °C 8,1 °C 3,2 km/h (1 Bft)
01.11.2018 18:09 8,1 °C 82 % 1012,3 hPa 0,0 mm 2,0 km/h (1 Bft) S 189 ° 0 min 0,000 mm 0,0 UV-I 0 W/m² 5,2 °C 8,1 °C 3,2 km/h (1 Bft)
01.11.2018 18:10 8,1 °C 83 % 1012,3 hPa 0,0 mm 1,5 km/h (1 Bft) S 189 ° 0 min 0,000 mm 0,0 UV-I 0 W/m² 5,4 °C 8,1 °C 3,2 km/h (1 Bft)
01.11.2018 18:11 8,0 °C 83 % 1012,3 hPa 0,0 mm 3,2 km/h (1 Bft) S 189 ° 0 min 0,000 mm 0,0 UV-I 0 W/m² 5,3 °C 8,0 °C 4,8 km/h (1 Bft)
01.11.2018 18:12 7,9 °C 83 % 1012,3 hPa 0,0 mm 0,3 km/h (0 Bft) S 189 ° 0 min 0,000 mm 0,0 UV-I 0 W/m² 5,2 °C 7,9 °C 1,6 km/h (1 Bft)
01.11.2018 18:13 7,9 °C 83 % 1012,3 hPa 0,0 mm 1,3 km/h (1 Bft) S 189 ° 0 min 0,000 mm 0,0 UV-I 0 W/m² 5,2 °C 7,9 °C 3,2 km/h (1 Bft)
01.11.2018 18:14 7,8 °C 83 % 1012,4 hPa 0,0 mm 4,0 km/h (1 Bft) S 189 ° 0 min 0,000 mm 0,0 UV-I 0 W/m² 5,1 °C 7,8 °C 4,8 km/h (1 Bft)
01.11.2018 18:15 7,8 °C 83 % 1012,4 hPa 0,0 mm 1,8 km/h (1 Bft) S 189 ° 0 min 0,000 mm 0,0 UV-I 0 W/m² 5,1 °C 7,8 °C 3,2 km/h (1 Bft)
01.11.2018 18:16 7,7 °C 83 % 1012,5 hPa 0,0 mm 4,4 km/h (1 Bft) S 189 ° 0 min 0,000 mm 0,0 UV-I 0 W/m² 5,0 °C 7,7 °C 6,4 km/h (2 Bft)
01.11.2018 18:17 7,7 °C 84 % 1012,3 hPa 0,0 mm 3,3 km/h (1 Bft) S 189 ° 0 min 0,000 mm 0,0 UV-I 0 W/m² 5,2 °C 7,7 °C 4,8 km/h (1 Bft)
01.11.2018 18:18 7,7 °C 84 % 1012,4 hPa 0,0 mm 1,7 km/h (1 Bft) S 189 ° 0 min 0,000 mm 0,0 UV-I 0 W/m² 5,2 °C 7,7 °C 3,2 km/h (1 Bft)
01.11.2018 18:19 7,7 °C 84 % 1012,5 hPa 0,0 mm 0,4 km/h (0 Bft) S 189 ° 0 min 0,000 mm 0,0 UV-I 0 W/m² 5,2 °C 7,7 °C 1,6 km/h (1 Bft)
01.11.2018 18:20 7,6 °C 84 % 1012,5 hPa 0,0 mm 0,0 km/h (0 Bft) S 189 ° 0 min 0,000 mm 0,0 UV-I 0 W/m² 5,1 °C 7,6 °C 0,0 km/h (0 Bft)
01.11.2018 18:21 7,6 °C 85 % 1012,6 hPa 0,0 mm 0,7 km/h (0 Bft) S 189 ° 0 min 0,000 mm 0,0 UV-I 0 W/m² 5,2 °C 7,6 °C 3,2 km/h (1 Bft)
01.11.2018 18:22 7,6 °C 85 % 1012,6 hPa 0,0 mm 0,1 km/h (0 Bft) S 189 ° 0 min 0,000 mm 0,0 UV-I 0 W/m² 5,2 °C 7,6 °C 1,6 km/h (1 Bft)
01.11.2018 18:23 7,6 °C 85 % 1012,6 hPa 0,0 mm 0,0 km/h (0 Bft) S 189 ° 0 min 0,000 mm 0,0 UV-I 0 W/m² 5,2 °C 7,6 °C 0,0 km/h (0 Bft)
01.11.2018 18:24 7,6 °C 84 % 1012,6 hPa 0,0 mm 0,0 km/h (0 Bft) S 189 ° 0 min 0,000 mm 0,0 UV-I 0 W/m² 5,1 °C 7,6 °C 0,0 km/h (0 Bft)
01.11.2018 18:25 7,5 °C 85 % 1012,6 hPa 0,0 mm 0,0 km/h (0 Bft) S 189 ° 0 min 0,000 mm 0,0 UV-I 0 W/m² 5,1 °C 7,5 °C 0,0 km/h (0 Bft)
01.11.2018 18:26 7,4 °C 83 % 1012,6 hPa 0,0 mm 0,0 km/h (0 Bft) S 189 ° 0 min 0,000 mm 0,0 UV-I 0 W/m² 4,7 °C 7,4 °C 0,0 km/h (0 Bft)
01.11.2018 18:27 7,1 °C 83 % 1012,6 hPa 0,0 mm 0,0 km/h (0 Bft) S 189 ° 0 min 0,000 mm 0,0 UV-I 0 W/m² 4,4 °C 7,1 °C 0,0 km/h (0 Bft)
01.11.2018 18:28 6,9 °C 84 % 1012,6 hPa 0,0 mm 0,0 km/h (0 Bft) S 189 ° 0 min 0,000 mm 0,0 UV-I 0 W/m² 4,4 °C 6,9 °C 0,0 km/h (0 Bft)
01.11.2018 18:29 6,8 °C 85 % 1012,6 hPa 0,0 mm 0,0 km/h (0 Bft) S 189 ° 0 min 0,000 mm 0,0 UV-I 0 W/m² 4,5 °C 6,8 °C 0,0 km/h (0 Bft)
01.11.2018 18:30 6,6 °C 85 % 1012,7 hPa 0,0 mm 0,0 km/h (0 Bft) S 189 ° 0 min 0,000 mm 0,0 UV-I 0 W/m² 4,3 °C 6,6 °C 0,0 km/h (0 Bft)
01.11.2018 18:31 6,4 °C 85 % 1012,8 hPa 0,0 mm 0,0 km/h (0 Bft) S 189 ° 0 min 0,000 mm 0,0 UV-I 0 W/m² 4,1 °C 6,4 °C 0,0 km/h (0 Bft)
01.11.2018 18:32 6,3 °C 85 % 1012,8 hPa 0,0 mm 0,0 km/h (0 Bft) S 189 ° 0 min 0,000 mm 0,0 UV-I 0 W/m² 4,0 °C 6,3 °C 0,0 km/h (0 Bft)
01.11.2018 18:33 6,2 °C 86 % 1012,8 hPa 0,0 mm 0,0 km/h (0 Bft) S 189 ° 0 min 0,000 mm 0,0 UV-I 0 W/m² 4,0 °C 6,2 °C 0,0 km/h (0 Bft)
01.11.2018 18:34 6,3 °C 87 % 1012,8 hPa 0,0 mm 0,0 km/h (0 Bft) S 189 ° 0 min 0,000 mm 0,0 UV-I 0 W/m² 4,3 °C 6,3 °C 0,0 km/h (0 Bft)
01.11.2018 18:35 6,3 °C 88 % 1012,8 hPa 0,0 mm 1,1 km/h (1 Bft) S 189 ° 0 min 0,000 mm 0,0 UV-I 0 W/m² 4,5 °C 6,3 °C 3,2 km/h (1 Bft)
01.11.2018 18:36 6,4 °C 88 % 1012,8 hPa 0,0 mm 3,7 km/h (1 Bft) S 189 ° 0 min 0,000 mm 0,0 UV-I 0 W/m² 4,6 °C 6,4 °C 4,8 km/h (1 Bft)
01.11.2018 18:37 6,6 °C 88 % 1012,9 hPa 0,0 mm 3,1 km/h (1 Bft) S 189 ° 0 min 0,000 mm 0,0 UV-I 0 W/m² 4,8 °C 6,6 °C 4,8 km/h (1 Bft)
01.11.2018 18:38 6,7 °C 88 % 1012,9 hPa 0,0 mm 3,2 km/h (1 Bft) S 189 ° 0 min 0,000 mm 0,0 UV-I 0 W/m² 4,9 °C 6,7 °C 4,8 km/h (1 Bft)
01.11.2018 18:39 6,8 °C 88 % 1012,9 hPa 0,0 mm 2,3 km/h (1 Bft) S 189 ° 0 min 0,000 mm 0,0 UV-I 0 W/m² 5,0 °C 6,8 °C 3,2 km/h (1 Bft)
01.11.2018 18:40 6,8 °C 88 % 1012,9 hPa 0,0 mm 0,7 km/h (0 Bft) S 189 ° 0 min 0,000 mm 0,0 UV-I 0 W/m² 5,0 °C 6,8 °C 1,6 km/h (1 Bft)
01.11.2018 18:41 6,8 °C 88 % 1012,9 hPa 0,0 mm 0,2 km/h (0 Bft) S 189 ° 0 min 0,000 mm 0,0 UV-I 0 W/m² 5,0 °C 6,8 °C 1,6 km/h (1 Bft)
01.11.2018 18:42 6,9 °C 88 % 1012,9 hPa 0,0 mm 0,0 km/h (0 Bft) S 189 ° 0 min 0,000 mm 0,0 UV-I 0 W/m² 5,1 °C 6,9 °C 0,0 km/h (0 Bft)
01.11.2018 18:43 6,9 °C 88 % 1012,9 hPa 0,0 mm 0,0 km/h (0 Bft) S 189 ° 0 min 0,000 mm 0,0 UV-I 0 W/m² 5,1 °C 6,9 °C 0,0 km/h (0 Bft)
01.11.2018 18:44 6,9 °C 87 % 1012,9 hPa 0,0 mm 0,0 km/h (0 Bft) S 189 ° 0 min 0,000 mm 0,0 UV-I 0 W/m² 4,9 °C 6,9 °C 0,0 km/h (0 Bft)
01.11.2018 18:45 6,9 °C 87 % 1012,9 hPa 0,0 mm 0,1 km/h (0 Bft) S 189 ° 0 min 0,000 mm 0,0 UV-I 0 W/m² 4,9 °C 6,9 °C 1,6 km/h (1 Bft)
01.11.2018 18:46 6,8 °C 87 % 1012,9 hPa 0,0 mm 0,0 km/h (0 Bft) S 189 ° 0 min 0,000 mm 0,0 UV-I 0 W/m² 4,8 °C 6,8 °C 0,0 km/h (0 Bft)
01.11.2018 18:47 6,8 °C 87 % 1012,9 hPa 0,0 mm 0,0 km/h (0 Bft) S 189 ° 0 min 0,000 mm 0,0 UV-I 0 W/m² 4,8 °C 6,8 °C 0,0 km/h (0 Bft)
01.11.2018 18:48 6,8 °C 87 % 1012,9 hPa 0,0 mm 0,0 km/h (0 Bft) S 189 ° 0 min 0,000 mm 0,0 UV-I 0 W/m² 4,8 °C 6,8 °C 0,0 km/h (0 Bft)
01.11.2018 18:49 6,8 °C 87 % 1012,9 hPa 0,0 mm 0,1 km/h (0 Bft) S 189 ° 0 min 0,000 mm 0,0 UV-I 0 W/m² 4,8 °C 6,8 °C 1,6 km/h (1 Bft)
01.11.2018 18:50 6,8 °C 87 % 1012,9 hPa 0,0 mm 0,2 km/h (0 Bft) S 189 ° 0 min 0,000 mm 0,0 UV-I 0 W/m² 4,8 °C 6,8 °C 1,6 km/h (1 Bft)
01.11.2018 18:51 6,7 °C 87 % 1012,9 hPa 0,0 mm 0,0 km/h (0 Bft) S 189 ° 0 min 0,000 mm 0,0 UV-I 0 W/m² 4,7 °C 6,7 °C 0,0 km/h (0 Bft)
01.11.2018 18:52 6,7 °C 87 % 1012,9 hPa 0,0 mm 0,0 km/h (0 Bft) S 189 ° 0 min 0,000 mm 0,0 UV-I 0 W/m² 4,7 °C 6,7 °C 0,0 km/h (0 Bft)
01.11.2018 18:53 6,7 °C 87 % 1012,9 hPa 0,0 mm 1,3 km/h (1 Bft) S 189 ° 0 min 0,000 mm 0,0 UV-I 0 W/m² 4,7 °C 6,7 °C 3,2 km/h (1 Bft)
01.11.2018 18:54 6,7 °C 87 % 1013,0 hPa 0,0 mm 1,4 km/h (1 Bft) S 189 ° 0 min 0,000 mm 0,0 UV-I 0 W/m² 4,7 °C 6,7 °C 3,2 km/h (1 Bft)
01.11.2018 18:55 6,8 °C 87 % 1013,0 hPa 0,0 mm 0,8 km/h (0 Bft) S 189 ° 0 min 0,000 mm 0,0 UV-I 0 W/m² 4,8 °C 6,8 °C 3,2 km/h (1 Bft)
01.11.2018 18:56 6,8 °C 87 % 1013,0 hPa 0,0 mm 0,0 km/h (0 Bft) S 189 ° 0 min 0,000 mm 0,0 UV-I 0 W/m² 4,8 °C 6,8 °C 0,0 km/h (0 Bft)
01.11.2018 18:57 6,7 °C 87 % 1013,0 hPa 0,0 mm 0,0 km/h (0 Bft) S 189 ° 0 min 0,000 mm 0,0 UV-I 0 W/m² 4,7 °C 6,7 °C 0,0 km/h (0 Bft)
01.11.2018 18:58 6,7 °C 87 % 1013,0 hPa 0,0 mm 0,0 km/h (0 Bft) S 189 ° 0 min 0,000 mm 0,0 UV-I 0 W/m² 4,7 °C 6,7 °C 0,0 km/h (0 Bft)
01.11.2018 18:59 6,6 °C 86 % 1013,0 hPa 0,0 mm 0,0 km/h (0 Bft) S 189 ° 0 min 0,000 mm 0,0 UV-I 0 W/m² 4,4 °C 6,6 °C 0,0 km/h (0 Bft)
01.11.2018 19:00 6,4 °C 85 % 1013,1 hPa 0,0 mm 0,0 km/h (0 Bft) S 189 ° 0 min 0,000 mm 0,0 UV-I 0 W/m² 4,1 °C 6,4 °C 0,0 km/h (0 Bft)
01.11.2018 19:01 6,2 °C 85 % 1013,1 hPa 0,0 mm 0,0 km/h (0 Bft) S 189 ° 0 min 0,000 mm 0,0 UV-I 0 W/m² 3,9 °C 6,2 °C 0,0 km/h (0 Bft)
01.11.2018 19:02 6,0 °C 86 % 1013,2 hPa 0,0 mm 0,0 km/h (0 Bft) S 189 ° 0 min 0,000 mm 0,0 UV-I 0 W/m² 3,8 °C 6,0 °C 0,0 km/h (0 Bft)
01.11.2018 19:03 5,7 °C 86 % 1013,2 hPa 0,0 mm 0,0 km/h (0 Bft) S 189 ° 0 min 0,000 mm 0,0 UV-I 0 W/m² 3,5 °C 5,7 °C 0,0 km/h (0 Bft)
01.11.2018 19:04 5,5 °C 86 % 1013,2 hPa 0,0 mm 0,0 km/h (0 Bft) S 189 ° 0 min 0,000 mm 0,0 UV-I 0 W/m² 3,3 °C 5,5 °C 0,0 km/h (0 Bft)
01.11.2018 19:05 5,3 °C 87 % 1013,2 hPa 0,0 mm 0,0 km/h (0 Bft) S 189 ° 0 min 0,000 mm 0,0 UV-I 0 W/m² 3,3 °C 5,3 °C 0,0 km/h (0 Bft)
01.11.2018 19:06 5,2 °C 87 % 1013,2 hPa 0,0 mm 0,0 km/h (0 Bft) S 189 ° 0 min 0,000 mm 0,0 UV-I 0 W/m² 3,2 °C 5,2 °C 0,0 km/h (0 Bft)
01.11.2018 19:07 5,0 °C 87 % 1013,2 hPa 0,0 mm 0,0 km/h (0 Bft) S 189 ° 0 min 0,000 mm 0,0 UV-I 0 W/m² 3,0 °C 5,0 °C 0,0 km/h (0 Bft)
01.11.2018 19:08 4,9 °C 88 % 1013,2 hPa 0,0 mm 0,0 km/h (0 Bft) S 189 ° 0 min 0,000 mm 0,0 UV-I 0 W/m² 3,1 °C 4,9 °C 0,0 km/h (0 Bft)
01.11.2018 19:09 4,8 °C 88 % 1013,2 hPa 0,0 mm 0,0 km/h (0 Bft) S 189 ° 0 min 0,000 mm 0,0 UV-I 0 W/m² 3,0 °C 4,8 °C 0,0 km/h (0 Bft)
01.11.2018 19:10 4,7 °C 89 % 1013,2 hPa 0,0 mm 0,0 km/h (0 Bft) S 189 ° 0 min 0,000 mm 0,0 UV-I 0 W/m² 3,0 °C 4,7 °C 0,0 km/h (0 Bft)
01.11.2018 19:11 4,8 °C 89 % 1013,2 hPa 0,0 mm 0,0 km/h (0 Bft) S 189 ° 0 min 0,000 mm 0,0 UV-I 0 W/m² 3,1 °C 4,8 °C 0,0 km/h (0 Bft)
01.11.2018 19:12 4,8 °C 90 % 1013,2 hPa 0,0 mm 0,0 km/h (0 Bft) S 189 ° 0 min 0,000 mm 0,0 UV-I 0 W/m² 3,3 °C 4,8 °C 0,0 km/h (0 Bft)
01.11.2018 19:13 4,8 °C 90 % 1013,2 hPa 0,0 mm 0,0 km/h (0 Bft) S 189 ° 0 min 0,000 mm 0,0 UV-I 0 W/m² 3,3 °C 4,8 °C 0,0 km/h (0 Bft)
01.11.2018 19:14 4,9 °C 90 % 1013,1 hPa 0,0 mm 0,0 km/h (0 Bft) S 189 ° 0 min 0,000 mm 0,0 UV-I 0 W/m² 3,4 °C 4,9 °C 0,0 km/h (0 Bft)
01.11.2018 19:15 4,9 °C 90 % 1013,1 hPa 0,0 mm 0,0 km/h (0 Bft) S 189 ° 0 min 0,000 mm 0,0 UV-I 0 W/m² 3,4 °C 4,9 °C 0,0 km/h (0 Bft)
01.11.2018 19:16 4,9 °C 90 % 1013,2 hPa 0,0 mm 0,0 km/h (0 Bft) S 189 ° 0 min 0,000 mm 0,0 UV-I 0 W/m² 3,4 °C 4,9 °C 0,0 km/h (0 Bft)
01.11.2018 19:17 4,9 °C 90 % 1013,1 hPa 0,0 mm 0,0 km/h (0 Bft) S 189 ° 0 min 0,000 mm 0,0 UV-I 0 W/m² 3,4 °C 4,9 °C 0,0 km/h (0 Bft)
01.11.2018 19:18 4,9 °C 90 % 1013,1 hPa 0,0 mm 0,0 km/h (0 Bft) S 189 ° 0 min 0,000 mm 0,0 UV-I 0 W/m² 3,4 °C 4,9 °C 0,0 km/h (0 Bft)
01.11.2018 19:19 4,9 °C 91 % 1013,1 hPa 0,0 mm 0,0 km/h (0 Bft) S 189 ° 0 min 0,000 mm 0,0 UV-I 0 W/m² 3,6 °C 4,9 °C 0,0 km/h (0 Bft)
01.11.2018 19:20 4,9 °C 91 % 1013,1 hPa 0,0 mm 0,0 km/h (0 Bft) S 189 ° 0 min 0,000 mm 0,0 UV-I 0 W/m² 3,6 °C 4,9 °C 0,0 km/h (0 Bft)
01.11.2018 19:21 4,9 °C 91 % 1013,1 hPa 0,0 mm 0,0 km/h (0 Bft) S 189 ° 0 min 0,000 mm 0,0 UV-I 0 W/m² 3,6 °C 4,9 °C 0,0 km/h (0 Bft)
01.11.2018 19:22 4,9 °C 90 % 1013,1 hPa 0,0 mm 0,0 km/h (0 Bft) S 189 ° 0 min 0,000 mm 0,0 UV-I 0 W/m² 3,4 °C 4,9 °C 0,0 km/h (0 Bft)
01.11.2018 19:23 4,8 °C 90 % 1013,1 hPa 0,0 mm 0,0 km/h (0 Bft) S 189 ° 0 min 0,000 mm 0,0 UV-I 0 W/m² 3,3 °C 4,8 °C 0,0 km/h (0 Bft)
01.11.2018 19:24 4,8 °C 91 % 1013,1 hPa 0,0 mm 0,0 km/h (0 Bft) S 189 ° 0 min 0,000 mm 0,0 UV-I 0 W/m² 3,5 °C 4,8 °C 0,0 km/h (0 Bft)
01.11.2018 19:25 4,8 °C 91 % 1013,2 hPa 0,0 mm 0,0 km/h (0 Bft) S 189 ° 0 min 0,000 mm 0,0 UV-I 0 W/m² 3,5 °C 4,8 °C 0,0 km/h (0 Bft)
01.11.2018 19:26 4,7 °C 90 % 1013,3 hPa 0,0 mm 0,0 km/h (0 Bft) S 189 ° 0 min 0,000 mm 0,0 UV-I 0 W/m² 3,2 °C 4,7 °C 0,0 km/h (0 Bft)
01.11.2018 19:27 4,7 °C 90 % 1013,4 hPa 0,0 mm 0,0 km/h (0 Bft) S 189 ° 0 min 0,000 mm 0,0 UV-I 0 W/m² 3,2 °C 4,7 °C 0,0 km/h (0 Bft)
01.11.2018 19:28 4,8 °C 91 % 1013,4 hPa 0,0 mm 0,0 km/h (0 Bft) S 189 ° 0 min 0,000 mm 0,0 UV-I 0 W/m² 3,5 °C 4,8 °C 0,0 km/h (0 Bft)
01.11.2018 19:29 4,7 °C 90 % 1013,4 hPa 0,0 mm 0,0 km/h (0 Bft) S 189 ° 0 min 0,000 mm 0,0 UV-I 0 W/m² 3,2 °C 4,7 °C 0,0 km/h (0 Bft)
01.11.2018 19:30 4,6 °C 90 % 1013,3 hPa 0,0 mm 0,0 km/h (0 Bft) S 189 ° 0 min 0,000 mm 0,0 UV-I 0 W/m² 3,1 °C 4,6 °C 0,0 km/h (0 Bft)
01.11.2018 19:31 4,6 °C 90 % 1013,3 hPa 0,0 mm 0,0 km/h (0 Bft) S 189 ° 0 min 0,000 mm 0,0 UV-I 0 W/m² 3,1 °C 4,6 °C 0,0 km/h (0 Bft)
01.11.2018 19:32 4,6 °C 91 % 1013,3 hPa 0,0 mm 0,0 km/h (0 Bft) S 189 ° 0 min 0,000 mm 0,0 UV-I 0 W/m² 3,3 °C 4,6 °C 0,0 km/h (0 Bft)
01.11.2018 19:33 4,6 °C 91 % 1013,3 hPa 0,0 mm 0,0 km/h (0 Bft) S 189 ° 0 min 0,000 mm 0,0 UV-I 0 W/m² 3,3 °C 4,6 °C 0,0 km/h (0 Bft)
01.11.2018 19:34 4,6 °C 91 % 1013,2 hPa 0,0 mm 0,0 km/h (0 Bft) S 189 ° 0 min 0,000 mm 0,0 UV-I 0 W/m² 3,3 °C 4,6 °C 0,0 km/h (0 Bft)
01.11.2018 19:35 4,7 °C 91 % 1013,2 hPa 0,0 mm 0,0 km/h (0 Bft) S 189 ° 0 min 0,000 mm 0,0 UV-I 0 W/m² 3,4 °C 4,7 °C 0,0 km/h (0 Bft)
01.11.2018 19:36 4,7 °C 91 % 1013,2 hPa 0,0 mm 0,0 km/h (0 Bft) S 189 ° 0 min 0,000 mm 0,0 UV-I 0 W/m² 3,4 °C 4,7 °C 0,0 km/h (0 Bft)
01.11.2018 19:37 4,9 °C 91 % 1013,2 hPa 0,0 mm 0,0 km/h (0 Bft) S 189 ° 0 min 0,000 mm 0,0 UV-I 0 W/m² 3,6 °C 4,9 °C 0,0 km/h (0 Bft)
01.11.2018 19:38 5,0 °C 92 % 1013,2 hPa 0,0 mm 0,5 km/h (0 Bft) S 189 ° 0 min 0,000 mm 0,0 UV-I 0 W/m² 3,8 °C 5,0 °C 3,2 km/h (1 Bft)
01.11.2018 19:39 4,9 °C 91 % 1013,1 hPa 0,0 mm 4,4 km/h (1 Bft) S-SO 148 ° 0 min 0,000 mm 0,0 UV-I 0 W/m² 3,6 °C 4,9 °C 6,4 km/h (2 Bft)
01.11.2018 19:40 5,0 °C 91 % 1013,1 hPa 0,0 mm 3,4 km/h (1 Bft) S-SO 148 ° 0 min 0,000 mm 0,0 UV-I 0 W/m² 3,7 °C 5,0 °C 4,8 km/h (1 Bft)
01.11.2018 19:41 5,0 °C 91 % 1013,1 hPa 0,0 mm 0,0 km/h (0 Bft) S-SO 148 ° 0 min 0,000 mm 0,0 UV-I 0 W/m² 3,7 °C 5,0 °C 0,0 km/h (0 Bft)
01.11.2018 19:42 5,0 °C 91 % 1013,2 hPa 0,0 mm 0,0 km/h (0 Bft) S-SO 148 ° 0 min 0,000 mm 0,0 UV-I 0 W/m² 3,7 °C 5,0 °C 0,0 km/h (0 Bft)
01.11.2018 19:43 5,0 °C 91 % 1013,2 hPa 0,0 mm 0,0 km/h (0 Bft) S-SO 148 ° 0 min 0,000 mm 0,0 UV-I 0 W/m² 3,7 °C 5,0 °C 0,0 km/h (0 Bft)
01.11.2018 19:44 5,0 °C 91 % 1013,2 hPa 0,0 mm 2,3 km/h (1 Bft) W 261 ° 0 min 0,000 mm 0,0 UV-I 0 W/m² 3,7 °C 5,0 °C 4,8 km/h (1 Bft)
01.11.2018 19:45 4,9 °C 91 % 1013,2 hPa 0,0 mm 3,2 km/h (1 Bft) W 261 ° 0 min 0,000 mm 0,0 UV-I 0 W/m² 3,6 °C 4,9 °C 4,8 km/h (1 Bft)
01.11.2018 19:46 4,8 °C 90 % 1013,2 hPa 0,0 mm 0,0 km/h (0 Bft) W 261 ° 0 min 0,000 mm 0,0 UV-I 0 W/m² 3,3 °C 4,8 °C 0,0 km/h (0 Bft)
01.11.2018 19:47 4,7 °C 90 % 1013,2 hPa 0,0 mm 0,0 km/h (0 Bft) W 261 ° 0 min 0,000 mm 0,0 UV-I 0 W/m² 3,2 °C 4,7 °C 0,0 km/h (0 Bft)
01.11.2018 19:48 4,6 °C 90 % 1013,3 hPa 0,0 mm 0,7 km/h (0 Bft) W 261 ° 0 min 0,000 mm 0,0 UV-I 0 W/m² 3,1 °C 4,6 °C 3,2 km/h (1 Bft)
01.11.2018 19:49 4,4 °C 91 % 1013,4 hPa 0,0 mm 4,1 km/h (1 Bft) W 261 ° 0 min 0,000 mm 0,0 UV-I 0 W/m² 3,1 °C 4,4 °C 6,4 km/h (2 Bft)
01.11.2018 19:50 4,4 °C 91 % 1013,5 hPa 0,0 mm 4,1 km/h (1 Bft) W 272 ° 0 min 0,000 mm 0,0 UV-I 0 W/m² 3,1 °C 4,4 °C 6,4 km/h (2 Bft)
01.11.2018 19:51 4,3 °C 91 % 1013,5 hPa 0,0 mm 6,2 km/h (2 Bft) W 259 ° 0 min 0,000 mm 0,0 UV-I 0 W/m² 3,0 °C 2,9 °C 9,7 km/h (2 Bft)
01.11.2018 19:52 4,3 °C 91 % 1013,6 hPa 0,0 mm 4,5 km/h (1 Bft) W 271 ° 0 min 0,000 mm 0,0 UV-I 0 W/m² 3,0 °C 4,3 °C 9,7 km/h (2 Bft)
01.11.2018 19:53 4,2 °C 91 % 1013,6 hPa 0,0 mm 2,5 km/h (1 Bft) W 270 ° 0 min 0,000 mm 0,0 UV-I 0 W/m² 2,9 °C 4,2 °C 4,8 km/h (1 Bft)
01.11.2018 19:54 4,2 °C 91 % 1013,7 hPa 0,0 mm 4,6 km/h (1 Bft) W 265 ° 0 min 0,000 mm 0,0 UV-I 0 W/m² 2,9 °C 3,3 °C 9,7 km/h (2 Bft)
01.11.2018 19:55 4,2 °C 91 % 1013,7 hPa 0,0 mm 5,2 km/h (1 Bft) SW 227 ° 0 min 0,000 mm 0,0 UV-I 0 W/m² 2,9 °C 3,1 °C 8,0 km/h (2 Bft)
01.11.2018 19:56 4,3 °C 91 % 1013,8 hPa 0,0 mm 3,8 km/h (1 Bft) W-SW 252 ° 0 min 0,000 mm 0,0 UV-I 0 W/m² 3,0 °C 4,3 °C 8,0 km/h (2 Bft)
01.11.2018 19:57 4,4 °C 92 % 1013,8 hPa 0,0 mm 2,5 km/h (1 Bft) SW 234 ° 0 min 0,000 mm 0,0 UV-I 0 W/m² 3,2 °C 4,4 °C 4,8 km/h (1 Bft)
01.11.2018 19:58 4,6 °C 92 % 1013,8 hPa 0,0 mm 3,2 km/h (1 Bft) SW 227 ° 0 min 0,000 mm 0,0 UV-I 0 W/m² 3,4 °C 4,6 °C 4,8 km/h (1 Bft)
01.11.2018 19:59 4,7 °C 92 % 1013,9 hPa 0,0 mm 5,2 km/h (1 Bft) S-SW 194 ° 0 min 0,000 mm 0,0 UV-I 0 W/m² 3,5 °C 3,7 °C 8,0 km/h (2 Bft)
01.11.2018 20:00 4,8 °C 92 % 1013,9 hPa 0,0 mm 3,6 km/h (1 Bft) S-SW 194 ° 0 min 0,000 mm 0,0 UV-I 0 W/m² 3,6 °C 4,8 °C 4,8 km/h (1 Bft)
01.11.2018 20:01 4,9 °C 92 % 1013,8 hPa 0,0 mm 1,9 km/h (1 Bft) S-SW 194 ° 0 min 0,000 mm 0,0 UV-I 0 W/m² 3,7 °C 4,9 °C 4,8 km/h (1 Bft)
01.11.2018 20:02 5,0 °C 92 % 1013,8 hPa 0,0 mm 1,0 km/h (0 Bft) S-SW 194 ° 0 min 0,000 mm 0,0 UV-I 0 W/m² 3,8 °C 5,0 °C 3,2 km/h (1 Bft)
01.11.2018 20:03 5,1 °C 92 % 1013,8 hPa 0,0 mm 2,2 km/h (1 Bft) S-SW 194 ° 0 min 0,000 mm 0,0 UV-I 0 W/m² 3,9 °C 5,1 °C 3,2 km/h (1 Bft)
01.11.2018 20:04 5,2 °C 92 % 1013,7 hPa 0,0 mm 2,3 km/h (1 Bft) S-SW 194 ° 0 min 0,000 mm 0,0 UV-I 0 W/m² 4,0 °C 5,2 °C 4,8 km/h (1 Bft)
01.11.2018 20:05 5,3 °C 92 % 1013,8 hPa 0,0 mm 2,2 km/h (1 Bft) S-SW 194 ° 0 min 0,000 mm 0,0 UV-I 0 W/m² 4,1 °C 5,3 °C 3,2 km/h (1 Bft)
01.11.2018 20:06 5,3 °C 92 % 1013,8 hPa 0,0 mm 0,0 km/h (0 Bft) S-SW 194 ° 0 min 0,000 mm 0,0 UV-I 0 W/m² 4,1 °C 5,3 °C 0,0 km/h (0 Bft)
01.11.2018 20:07 5,3 °C 92 % 1013,8 hPa 0,0 mm 1,8 km/h (1 Bft) S-SW 194 ° 0 min 0,000 mm 0,0 UV-I 0 W/m² 4,1 °C 5,3 °C 4,8 km/h (1 Bft)
01.11.2018 20:08 5,2 °C 91 % 1013,9 hPa 0,0 mm 2,6 km/h (1 Bft) S-SW 194 ° 0 min 0,000 mm 0,0 UV-I 0 W/m² 3,9 °C 5,2 °C 4,8 km/h (1 Bft)
01.11.2018 20:09 5,2 °C 91 % 1013,9 hPa 0,0 mm 1,8 km/h (1 Bft) S-SW 194 ° 0 min 0,000 mm 0,0 UV-I 0 W/m² 3,9 °C 5,2 °C 4,8 km/h (1 Bft)
01.11.2018 20:10 5,1 °C 91 % 1014,0 hPa 0,0 mm 2,2 km/h (1 Bft) S-SW 194 ° 0 min 0,000 mm 0,0 UV-I 0 W/m² 3,8 °C 5,1 °C 3,2 km/h (1 Bft)
01.11.2018 20:11 5,0 °C 91 % 1013,9 hPa 0,0 mm 3,3 km/h (1 Bft) S-SW 194 ° 0 min 0,000 mm 0,0 UV-I 0 W/m² 3,7 °C 5,0 °C 4,8 km/h (1 Bft)
01.11.2018 20:12 5,1 °C 91 % 1014,0 hPa 0,0 mm 3,6 km/h (1 Bft) S-SW 194 ° 0 min 0,000 mm 0,0 UV-I 0 W/m² 3,8 °C 5,1 °C 4,8 km/h (1 Bft)
01.11.2018 20:13 5,1 °C 91 % 1014,0 hPa 0,0 mm 2,2 km/h (1 Bft) S-SW 194 ° 0 min 0,000 mm 0,0 UV-I 0 W/m² 3,8 °C 5,1 °C 4,8 km/h (1 Bft)
01.11.2018 20:14 5,1 °C 91 % 1014,0 hPa 0,0 mm 1,9 km/h (1 Bft) S 184 ° 0 min 0,000 mm 0,0 UV-I 0 W/m² 3,8 °C 5,1 °C 3,2 km/h (1 Bft)
01.11.2018 20:15 5,2 °C 91 % 1014,0 hPa 0,0 mm 1,9 km/h (1 Bft) S 184 ° 0 min 0,000 mm 0,0 UV-I 0 W/m² 3,9 °C 5,2 °C 4,8 km/h (1 Bft)
01.11.2018 20:16 5,2 °C 91 % 1013,9 hPa 0,0 mm 1,6 km/h (1 Bft) S 184 ° 0 min 0,000 mm 0,0 UV-I 0 W/m² 3,9 °C 5,2 °C 3,2 km/h (1 Bft)
01.11.2018 20:17 5,2 °C 91 % 1014,0 hPa 0,0 mm 4,5 km/h (1 Bft) S 184 ° 0 min 0,000 mm 0,0 UV-I 0 W/m² 3,9 °C 5,2 °C 6,4 km/h (2 Bft)
01.11.2018 20:18 5,4 °C 91 % 1014,0 hPa 0,0 mm 4,8 km/h (1 Bft) S 190 ° 0 min 0,000 mm 0,0 UV-I 0 W/m² 4,1 °C 4,6 °C 8,0 km/h (2 Bft)
01.11.2018 20:19 5,5 °C 92 % 1014,0 hPa 0,0 mm 4,0 km/h (1 Bft) S 190 ° 0 min 0,000 mm 0,0 UV-I 0 W/m² 4,3 °C 5,5 °C 6,4 km/h (2 Bft)
01.11.2018 20:20 5,6 °C 91 % 1014,0 hPa 0,0 mm 6,0 km/h (2 Bft) S 190 ° 0 min 0,000 mm 0,0 UV-I 0 W/m² 4,2 °C 4,4 °C 6,4 km/h (2 Bft)
01.11.2018 20:21 5,6 °C 91 % 1014,1 hPa 0,0 mm 5,7 km/h (1 Bft) S-SW 198 ° 0 min 0,000 mm 0,0 UV-I 0 W/m² 4,2 °C 4,5 °C 9,7 km/h (2 Bft)
01.11.2018 20:22 5,6 °C 91 % 1014,2 hPa 0,0 mm 5,8 km/h (2 Bft) S-SW 198 ° 0 min 0,000 mm 0,0 UV-I 0 W/m² 4,2 °C 4,5 °C 9,7 km/h (2 Bft)
01.11.2018 20:23 5,7 °C 91 % 1014,2 hPa 0,0 mm 5,4 km/h (1 Bft) S-SW 202 ° 0 min 0,000 mm 0,0 UV-I 0 W/m² 4,3 °C 4,7 °C 8,0 km/h (2 Bft)
01.11.2018 20:24 5,8 °C 91 % 1014,2 hPa 0,0 mm 4,0 km/h (1 Bft) S 187 ° 0 min 0,000 mm 0,0 UV-I 0 W/m² 4,4 °C 5,8 °C 6,4 km/h (2 Bft)
01.11.2018 20:25 5,9 °C 91 % 1014,3 hPa 0,0 mm 4,1 km/h (1 Bft) S-SW 194 ° 0 min 0,000 mm 0,0 UV-I 0 W/m² 4,5 °C 5,9 °C 6,4 km/h (2 Bft)
01.11.2018 20:26 6,1 °C 91 % 1014,3 hPa 0,0 mm 2,1 km/h (1 Bft) S 184 ° 0 min 0,000 mm 0,0 UV-I 0 W/m² 4,7 °C 6,1 °C 4,8 km/h (1 Bft)
01.11.2018 20:27 6,2 °C 91 % 1014,3 hPa 0,0 mm 1,3 km/h (1 Bft) S-SW 198 ° 0 min 0,000 mm 0,0 UV-I 0 W/m² 4,8 °C 6,2 °C 3,2 km/h (1 Bft)
01.11.2018 20:28 6,3 °C 90 % 1014,3 hPa 0,0 mm 0,7 km/h (0 Bft) S-SW 198 ° 0 min 0,000 mm 0,0 UV-I 0 W/m² 4,8 °C 6,3 °C 3,2 km/h (1 Bft)
01.11.2018 20:29 6,5 °C 90 % 1014,4 hPa 0,0 mm 0,8 km/h (0 Bft) S-SW 198 ° 0 min 0,000 mm 0,0 UV-I 0 W/m² 5,0 °C 6,5 °C 3,2 km/h (1 Bft)
01.11.2018 20:30 6,6 °C 89 % 1014,4 hPa 0,0 mm 0,3 km/h (0 Bft) S-SW 198 ° 0 min 0,000 mm 0,0 UV-I 0 W/m² 4,9 °C 6,6 °C 1,6 km/h (1 Bft)
01.11.2018 20:31 6,6 °C 89 % 1014,4 hPa 0,0 mm 0,9 km/h (0 Bft) S-SW 198 ° 0 min 0,000 mm 0,0 UV-I 0 W/m² 4,9 °C 6,6 °C 3,2 km/h (1 Bft)
01.11.2018 20:32 6,5 °C 88 % 1014,4 hPa 0,0 mm 0,0 km/h (0 Bft) S-SW 198 ° 0 min 0,000 mm 0,0 UV-I 0 W/m² 4,7 °C 6,5 °C 0,0 km/h (0 Bft)
01.11.2018 20:33 6,3 °C 86 % 1014,4 hPa 0,0 mm 0,0 km/h (0 Bft) S-SW 198 ° 0 min 0,000 mm 0,0 UV-I 0 W/m² 4,1 °C 6,3 °C 0,0 km/h (0 Bft)
01.11.2018 20:34 5,9 °C 86 % 1014,4 hPa 0,0 mm 0,0 km/h (0 Bft) S-SW 198 ° 0 min 0,000 mm 0,0 UV-I 0 W/m² 3,7 °C 5,9 °C 0,0 km/h (0 Bft)
01.11.2018 20:35 5,6 °C 85 % 1014,4 hPa 0,0 mm 0,0 km/h (0 Bft) S-SW 198 ° 0 min 0,000 mm 0,0 UV-I 0 W/m² 3,3 °C 5,6 °C 0,0 km/h (0 Bft)
01.11.2018 20:36 5,2 °C 85 % 1014,5 hPa 0,0 mm 0,0 km/h (0 Bft) S-SW 198 ° 0 min 0,000 mm 0,0 UV-I 0 W/m² 2,9 °C 5,2 °C 0,0 km/h (0 Bft)
01.11.2018 20:37 5,1 °C 86 % 1014,5 hPa 0,0 mm 0,0 km/h (0 Bft) S-SW 198 ° 0 min 0,000 mm 0,0 UV-I 0 W/m² 3,0 °C 5,1 °C 0,0 km/h (0 Bft)
01.11.2018 20:38 4,9 °C 88 % 1014,5 hPa 0,0 mm 0,0 km/h (0 Bft) S-SW 198 ° 0 min 0,000 mm 0,0 UV-I 0 W/m² 3,1 °C 4,9 °C 0,0 km/h (0 Bft)
01.11.2018 20:39 4,8 °C 89 % 1014,6 hPa 0,0 mm 0,0 km/h (0 Bft) S-SW 198 ° 0 min 0,000 mm 0,0 UV-I 0 W/m² 3,1 °C 4,8 °C 0,0 km/h (0 Bft)
01.11.2018 20:40 4,8 °C 89 % 1014,5 hPa 0,0 mm 0,0 km/h (0 Bft) S-SW 198 ° 0 min 0,000 mm 0,0 UV-I 0 W/m² 3,1 °C 4,8 °C 0,0 km/h (0 Bft)
01.11.2018 20:41 4,8 °C 90 % 1014,6 hPa 0,0 mm 0,0 km/h (0 Bft) S-SW 198 ° 0 min 0,000 mm 0,0 UV-I 0 W/m² 3,3 °C 4,8 °C 0,0 km/h (0 Bft)
01.11.2018 20:42 4,8 °C 90 % 1014,6 hPa 0,0 mm 0,0 km/h (0 Bft) S-SW 198 ° 0 min 0,000 mm 0,0 UV-I 0 W/m² 3,3 °C 4,8 °C 0,0 km/h (0 Bft)
01.11.2018 20:43 4,8 °C 90 % 1014,6 hPa 0,0 mm 0,0 km/h (0 Bft) S-SW 198 ° 0 min 0,000 mm 0,0 UV-I 0 W/m² 3,3 °C 4,8 °C 0,0 km/h (0 Bft)
01.11.2018 20:44 4,8 °C 90 % 1014,7 hPa 0,0 mm 0,0 km/h (0 Bft) S-SW 198 ° 0 min 0,000 mm 0,0 UV-I 0 W/m² 3,3 °C 4,8 °C 0,0 km/h (0 Bft)
01.11.2018 20:45 4,8 °C 90 % 1014,7 hPa 0,0 mm 0,0 km/h (0 Bft) S-SW 198 ° 0 min 0,000 mm 0,0 UV-I 0 W/m² 3,3 °C 4,8 °C 0,0 km/h (0 Bft)
01.11.2018 20:46 4,8 °C 90 % 1014,7 hPa 0,0 mm 0,0 km/h (0 Bft) S-SW 198 ° 0 min 0,000 mm 0,0 UV-I 0 W/m² 3,3 °C 4,8 °C 0,0 km/h (0 Bft)
01.11.2018 20:47 4,9 °C 91 % 1014,7 hPa 0,0 mm 0,0 km/h (0 Bft) S-SW 198 ° 0 min 0,000 mm 0,0 UV-I 0 W/m² 3,6 °C 4,9 °C 0,0 km/h (0 Bft)
01.11.2018 20:48 5,0 °C 91 % 1014,8 hPa 0,0 mm 0,5 km/h (0 Bft) S-SW 198 ° 0 min 0,000 mm 0,0 UV-I 0 W/m² 3,7 °C 5,0 °C 4,8 km/h (1 Bft)
01.11.2018 20:49 5,3 °C 91 % 1014,9 hPa 0,0 mm 5,9 km/h (2 Bft) S 184 ° 0 min 0,000 mm 0,0 UV-I 0 W/m² 4,0 °C 4,1 °C 8,0 km/h (2 Bft)
01.11.2018 20:50 5,6 °C 91 % 1014,9 hPa 0,0 mm 3,6 km/h (1 Bft) S 184 ° 0 min 0,000 mm 0,0 UV-I 0 W/m² 4,2 °C 5,6 °C 6,4 km/h (2 Bft)
01.11.2018 20:51 5,8 °C 91 % 1014,9 hPa 0,0 mm 5,8 km/h (2 Bft) S 191 ° 0 min 0,000 mm 0,0 UV-I 0 W/m² 4,4 °C 4,7 °C 9,7 km/h (2 Bft)
01.11.2018 20:52 6,0 °C 91 % 1014,9 hPa 0,0 mm 3,8 km/h (1 Bft) S-SW 198 ° 0 min 0,000 mm 0,0 UV-I 0 W/m² 4,6 °C 6,0 °C 8,0 km/h (2 Bft)
01.11.2018 20:53 6,3 °C 90 % 1014,9 hPa 0,0 mm 4,8 km/h (1 Bft) S 174 ° 0 min 0,000 mm 0,0 UV-I 0 W/m² 4,8 °C 5,6 °C 11,3 km/h (2 Bft)
01.11.2018 20:54 6,6 °C 90 % 1014,9 hPa 0,0 mm 4,3 km/h (1 Bft) S-SW 212 ° 0 min 0,000 mm 0,0 UV-I 0 W/m² 5,1 °C 6,6 °C 8,0 km/h (2 Bft)
01.11.2018 20:55 6,7 °C 88 % 1014,9 hPa 0,0 mm 6,8 km/h (2 Bft) S-SW 198 ° 0 min 0,000 mm 0,0 UV-I 0 W/m² 4,9 °C 5,4 °C 9,7 km/h (2 Bft)
01.11.2018 20:56 6,9 °C 88 % 1014,9 hPa 0,0 mm 6,0 km/h (2 Bft) S-SW 196 ° 0 min 0,000 mm 0,0 UV-I 0 W/m² 5,1 °C 5,9 °C 9,7 km/h (2 Bft)
01.11.2018 20:57 7,1 °C 87 % 1014,9 hPa 0,0 mm 8,3 km/h (2 Bft) S 189 ° 0 min 0,000 mm 0,0 UV-I 0 W/m² 5,1 °C 5,5 °C 12,9 km/h (3 Bft)
01.11.2018 20:58 7,3 °C 86 % 1014,9 hPa 0,0 mm 1,5 km/h (1 Bft) S-SW 209 ° 0 min 0,000 mm 0,0 UV-I 0 W/m² 5,1 °C 7,3 °C 4,8 km/h (1 Bft)
01.11.2018 20:59 7,2 °C 84 % 1014,9 hPa 0,0 mm 0,2 km/h (0 Bft) S-SW 208 ° 0 min 0,000 mm 0,0 UV-I 0 W/m² 4,7 °C 7,2 °C 1,6 km/h (1 Bft)
01.11.2018 21:00 6,9 °C 81 % 1015,0 hPa 0,0 mm 4,0 km/h (1 Bft) S-SW 207 ° 0 min 0,000 mm 0,0 UV-I 0 W/m² 3,9 °C 6,9 °C 12,9 km/h (3 Bft)
01.11.2018 21:01 6,8 °C 84 % 1015,0 hPa 0,0 mm 3,6 km/h (1 Bft) S-SW 212 ° 0 min 0,000 mm 0,0 UV-I 0 W/m² 4,3 °C 6,8 °C 6,4 km/h (2 Bft)
01.11.2018 21:02 6,9 °C 84 % 1015,1 hPa 0,0 mm 3,6 km/h (1 Bft) S-SW 209 ° 0 min 0,000 mm 0,0 UV-I 0 W/m² 4,4 °C 6,9 °C 6,4 km/h (2 Bft)
01.11.2018 21:03 7,0 °C 84 % 1015,1 hPa 0,0 mm 6,2 km/h (2 Bft) S-SW 198 ° 0 min 0,000 mm 0,0 UV-I 0 W/m² 4,5 °C 6,0 °C 6,4 km/h (2 Bft)
01.11.2018 21:04 7,2 °C 84 % 1015,1 hPa 0,0 mm 5,4 km/h (1 Bft) S-SO 165 ° 0 min 0,000 mm 0,0 UV-I 0 W/m² 4,7 °C 6,4 °C 11,3 km/h (2 Bft)
01.11.2018 21:05 7,4 °C 83 % 1015,1 hPa 0,0 mm 5,6 km/h (1 Bft) SW 224 ° 0 min 0,000 mm 0,0 UV-I 0 W/m² 4,7 °C 6,6 °C 9,7 km/h (2 Bft)
01.11.2018 21:06 7,6 °C 83 % 1015,1 hPa 0,0 mm 3,6 km/h (1 Bft) SW 224 ° 0 min 0,000 mm 0,0 UV-I 0 W/m² 4,9 °C 7,6 °C 6,4 km/h (2 Bft)
01.11.2018 21:07 7,6 °C 82 % 1015,1 hPa 0,0 mm 2,6 km/h (1 Bft) S-SW 208 ° 0 min 0,000 mm 0,0 UV-I 0 W/m² 4,7 °C 7,6 °C 6,4 km/h (2 Bft)
01.11.2018 21:08 7,7 °C 81 % 1015,1 hPa 0,0 mm 2,7 km/h (1 Bft) W-SW 246 ° 0 min 0,000 mm 0,0 UV-I 0 W/m² 4,7 °C 7,7 °C 4,8 km/h (1 Bft)
01.11.2018 21:09 7,8 °C 81 % 1015,1 hPa 0,0 mm 3,8 km/h (1 Bft) SW 225 ° 0 min 0,000 mm 0,0 UV-I 0 W/m² 4,7 °C 7,8 °C 6,4 km/h (2 Bft)
01.11.2018 21:10 7,9 °C 81 % 1015,1 hPa 0,0 mm 4,3 km/h (1 Bft) S-SW 203 ° 0 min 0,000 mm 0,0 UV-I 0 W/m² 4,8 °C 7,9 °C 8,0 km/h (2 Bft)
01.11.2018 21:11 8,0 °C 80 % 1015,1 hPa 0,0 mm 3,2 km/h (1 Bft) W-SW 244 ° 0 min 0,000 mm 0,0 UV-I 0 W/m² 4,8 °C 8,0 °C 6,4 km/h (2 Bft)
01.11.2018 21:12 8,1 °C 80 % 1015,2 hPa 0,0 mm 2,2 km/h (1 Bft) W-SW 244 ° 0 min 0,000 mm 0,0 UV-I 0 W/m² 4,9 °C 8,1 °C 3,2 km/h (1 Bft)
01.11.2018 21:13 8,1 °C 79 % 1015,2 hPa 0,0 mm 4,0 km/h (1 Bft) W-SW 242 ° 0 min 0,000 mm 0,0 UV-I 0 W/m² 4,7 °C 8,1 °C 6,4 km/h (2 Bft)
01.11.2018 21:14 8,1 °C 79 % 1015,3 hPa 0,0 mm 0,9 km/h (0 Bft) W-SW 242 ° 0 min 0,000 mm 0,0 UV-I 0 W/m² 4,7 °C 8,1 °C 3,2 km/h (1 Bft)
01.11.2018 21:15 8,1 °C 79 % 1015,3 hPa 0,0 mm 3,9 km/h (1 Bft) S-SW 212 ° 0 min 0,000 mm 0,0 UV-I 0 W/m² 4,7 °C 8,1 °C 6,4 km/h (2 Bft)
01.11.2018 21:16 8,1 °C 79 % 1015,2 hPa 0,0 mm 4,1 km/h (1 Bft) S-SW 202 ° 0 min 0,000 mm 0,0 UV-I 0 W/m² 4,7 °C 8,1 °C 6,4 km/h (2 Bft)
01.11.2018 21:17 8,0 °C 79 % 1015,3 hPa 0,0 mm 3,5 km/h (1 Bft) S-SW 202 ° 0 min 0,000 mm 0,0 UV-I 0 W/m² 4,6 °C 8,0 °C 6,4 km/h (2 Bft)
01.11.2018 21:18 7,9 °C 79 % 1015,3 hPa 0,0 mm 4,4 km/h (1 Bft) S 187 ° 0 min 0,000 mm 0,0 UV-I 0 W/m² 4,5 °C 7,9 °C 9,7 km/h (2 Bft)
01.11.2018 21:19 7,9 °C 79 % 1015,3 hPa 0,0 mm 6,7 km/h (2 Bft) S 175 ° 0 min 0,000 mm 0,0 UV-I 0 W/m² 4,5 °C 6,9 °C 9,7 km/h (2 Bft)
01.11.2018 21:20 7,9 °C 80 % 1015,3 hPa 0,0 mm 6,8 km/h (2 Bft) S-SW 213 ° 0 min 0,000 mm 0,0 UV-I 0 W/m² 4,7 °C 6,8 °C 9,7 km/h (2 Bft)
01.11.2018 21:21 7,9 °C 79 % 1015,3 hPa 0,0 mm 4,8 km/h (1 Bft) S 186 ° 0 min 0,000 mm 0,0 UV-I 0 W/m² 4,5 °C 7,4 °C 8,0 km/h (2 Bft)
01.11.2018 21:22 7,9 °C 80 % 1015,4 hPa 0,0 mm 3,2 km/h (1 Bft) S 185 ° 0 min 0,000 mm 0,0 UV-I 0 W/m² 4,7 °C 7,9 °C 8,0 km/h (2 Bft)
01.11.2018 21:23 7,9 °C 79 % 1015,4 hPa 0,0 mm 4,0 km/h (1 Bft) S 181 ° 0 min 0,000 mm 0,0 UV-I 0 W/m² 4,5 °C 7,9 °C 6,4 km/h (2 Bft)
01.11.2018 21:24 7,9 °C 79 % 1015,5 hPa 0,0 mm 5,3 km/h (1 Bft) W-SW 252 ° 0 min 0,000 mm 0,0 UV-I 0 W/m² 4,5 °C 7,3 °C 8,0 km/h (2 Bft)
01.11.2018 21:25 7,9 °C 79 % 1015,5 hPa 0,0 mm 2,7 km/h (1 Bft) W 259 ° 0 min 0,000 mm 0,0 UV-I 0 W/m² 4,5 °C 7,9 °C 4,8 km/h (1 Bft)
01.11.2018 21:26 7,9 °C 79 % 1015,5 hPa 0,0 mm 0,6 km/h (0 Bft) W 259 ° 0 min 0,000 mm 0,0 UV-I 0 W/m² 4,5 °C 7,9 °C 3,2 km/h (1 Bft)
01.11.2018 21:27 7,9 °C 79 % 1015,6 hPa 0,0 mm 1,6 km/h (1 Bft) W 259 ° 0 min 0,000 mm 0,0 UV-I 0 W/m² 4,5 °C 7,9 °C 3,2 km/h (1 Bft)
01.11.2018 21:28 7,8 °C 79 % 1015,6 hPa 0,0 mm 1,3 km/h (1 Bft) W 259 ° 0 min 0,000 mm 0,0 UV-I 0 W/m² 4,4 °C 7,8 °C 4,8 km/h (1 Bft)
01.11.2018 21:29 7,8 °C 79 % 1015,7 hPa 0,0 mm 0,0 km/h (0 Bft) W 259 ° 0 min 0,000 mm 0,0 UV-I 0 W/m² 4,4 °C 7,8 °C 0,0 km/h (0 Bft)
01.11.2018 21:30 7,7 °C 80 % 1015,6 hPa 0,0 mm 0,1 km/h (0 Bft) W 259 ° 0 min 0,000 mm 0,0 UV-I 0 W/m² 4,5 °C 7,7 °C 1,6 km/h (1 Bft)
01.11.2018 21:31 7,6 °C 80 % 1015,7 hPa 0,0 mm 0,0 km/h (0 Bft) W 259 ° 0 min 0,000 mm 0,0 UV-I 0 W/m² 4,4 °C 7,6 °C 0,0 km/h (0 Bft)
01.11.2018 21:32 7,4 °C 80 % 1015,7 hPa 0,0 mm 0,0 km/h (0 Bft) W 259 ° 0 min 0,000 mm 0,0 UV-I 0 W/m² 4,2 °C 7,4 °C 0,0 km/h (0 Bft)
01.11.2018 21:33 7,2 °C 80 % 1015,7 hPa 0,0 mm 0,0 km/h (0 Bft) W 259 ° 0 min 0,000 mm 0,0 UV-I 0 W/m² 4,0 °C 7,2 °C 0,0 km/h (0 Bft)
01.11.2018 21:34 7,1 °C 81 % 1015,7 hPa 0,0 mm 0,0 km/h (0 Bft) W 259 ° 0 min 0,000 mm 0,0 UV-I 0 W/m² 4,1 °C 7,1 °C 0,0 km/h (0 Bft)
01.11.2018 21:35 6,9 °C 81 % 1015,8 hPa 0,0 mm 1,3 km/h (1 Bft) W 259 ° 0 min 0,000 mm 0,0 UV-I 0 W/m² 3,9 °C 6,9 °C 3,2 km/h (1 Bft)
01.11.2018 21:36 6,9 °C 82 % 1015,8 hPa 0,0 mm 0,4 km/h (0 Bft) W 259 ° 0 min 0,000 mm 0,0 UV-I 0 W/m² 4,0 °C 6,9 °C 1,6 km/h (1 Bft)
01.11.2018 21:37 6,9 °C 83 % 1015,8 hPa 0,0 mm 1,3 km/h (1 Bft) W 259 ° 0 min 0,000 mm 0,0 UV-I 0 W/m² 4,2 °C 6,9 °C 4,8 km/h (1 Bft)
01.11.2018 21:38 6,9 °C 83 % 1015,8 hPa 0,0 mm 3,0 km/h (1 Bft) W 259 ° 0 min 0,000 mm 0,0 UV-I 0 W/m² 4,2 °C 6,9 °C 4,8 km/h (1 Bft)
01.11.2018 21:39 6,9 °C 82 % 1015,8 hPa 0,0 mm 2,0 km/h (1 Bft) W 259 ° 0 min 0,000 mm 0,0 UV-I 0 W/m² 4,0 °C 6,9 °C 3,2 km/h (1 Bft)
01.11.2018 21:40 7,0 °C 82 % 1015,8 hPa 0,0 mm 1,1 km/h (1 Bft) W 259 ° 0 min 0,000 mm 0,0 UV-I 0 W/m² 4,1 °C 7,0 °C 3,2 km/h (1 Bft)
01.11.2018 21:41 7,1 °C 82 % 1015,8 hPa 0,0 mm 0,0 km/h (0 Bft) W 259 ° 0 min 0,000 mm 0,0 UV-I 0 W/m² 4,2 °C 7,1 °C 0,0 km/h (0 Bft)
01.11.2018 21:42 7,0 °C 82 % 1015,8 hPa 0,0 mm 0,4 km/h (0 Bft) W 259 ° 0 min 0,000 mm 0,0 UV-I 0 W/m² 4,1 °C 7,0 °C 1,6 km/h (1 Bft)
01.11.2018 21:43 6,8 °C 81 % 1015,8 hPa 0,0 mm 0,0 km/h (0 Bft) W 259 ° 0 min 0,000 mm 0,0 UV-I 0 W/m² 3,8 °C 6,8 °C 0,0 km/h (0 Bft)
01.11.2018 21:44 6,7 °C 81 % 1015,8 hPa 0,0 mm 0,0 km/h (0 Bft) W 259 ° 0 min 0,000 mm 0,0 UV-I 0 W/m² 3,7 °C 6,7 °C 0,0 km/h (0 Bft)
01.11.2018 21:45 6,4 °C 81 % 1016,0 hPa 0,0 mm 0,0 km/h (0 Bft) W 259 ° 0 min 0,000 mm 0,0 UV-I 0 W/m² 3,4 °C 6,4 °C 0,0 km/h (0 Bft)
01.11.2018 21:46 6,2 °C 82 % 1015,9 hPa 0,0 mm 0,0 km/h (0 Bft) W 259 ° 0 min 0,000 mm 0,0 UV-I 0 W/m² 3,4 °C 6,2 °C 0,0 km/h (0 Bft)
01.11.2018 21:47 5,9 °C 83 % 1015,9 hPa 0,0 mm 0,0 km/h (0 Bft) W 259 ° 0 min 0,000 mm 0,0 UV-I 0 W/m² 3,2 °C 5,9 °C 0,0 km/h (0 Bft)
01.11.2018 21:48 5,8 °C 84 % 1016,0 hPa 0,0 mm 0,0 km/h (0 Bft) W 259 ° 0 min 0,000 mm 0,0 UV-I 0 W/m² 3,3 °C 5,8 °C 0,0 km/h (0 Bft)
01.11.2018 21:49 5,6 °C 84 % 1016,0 hPa 0,0 mm 0,0 km/h (0 Bft) W 259 ° 0 min 0,000 mm 0,0 UV-I 0 W/m² 3,1 °C 5,6 °C 0,0 km/h (0 Bft)
01.11.2018 21:50 5,6 °C 85 % 1016,0 hPa 0,0 mm 0,1 km/h (0 Bft) W 259 ° 0 min 0,000 mm 0,0 UV-I 0 W/m² 3,3 °C 5,6 °C 1,6 km/h (1 Bft)
01.11.2018 21:51 5,6 °C 86 % 1016,1 hPa 0,0 mm 0,0 km/h (0 Bft) W 259 ° 0 min 0,000 mm 0,0 UV-I 0 W/m² 3,4 °C 5,6 °C 0,0 km/h (0 Bft)
01.11.2018 21:52 5,5 °C 86 % 1016,1 hPa 0,0 mm 0,0 km/h (0 Bft) W 259 ° 0 min 0,000 mm 0,0 UV-I 0 W/m² 3,3 °C 5,5 °C 0,0 km/h (0 Bft)
01.11.2018 21:53 5,5 °C 86 % 1016,2 hPa 0,0 mm 0,0 km/h (0 Bft) W 259 ° 0 min 0,000 mm 0,0 UV-I 0 W/m² 3,3 °C 5,5 °C 0,0 km/h (0 Bft)
01.11.2018 21:54 5,5 °C 87 % 1016,2 hPa 0,0 mm 0,0 km/h (0 Bft) W 259 ° 0 min 0,000 mm 0,0 UV-I 0 W/m² 3,5 °C 5,5 °C 0,0 km/h (0 Bft)
01.11.2018 21:55 5,6 °C 87 % 1016,2 hPa 0,0 mm 0,0 km/h (0 Bft) W 259 ° 0 min 0,000 mm 0,0 UV-I 0 W/m² 3,6 °C 5,6 °C 0,0 km/h (0 Bft)
01.11.2018 21:56 5,6 °C 87 % 1016,1 hPa 0,0 mm 0,0 km/h (0 Bft) W 259 ° 0 min 0,000 mm 0,0 UV-I 0 W/m² 3,6 °C 5,6 °C 0,0 km/h (0 Bft)
01.11.2018 21:57 5,6 °C 87 % 1016,2 hPa 0,0 mm 0,0 km/h (0 Bft) W 259 ° 0 min 0,000 mm 0,0 UV-I 0 W/m² 3,6 °C 5,6 °C 0,0 km/h (0 Bft)
01.11.2018 21:58 5,6 °C 86 % 1016,2 hPa 0,0 mm 0,0 km/h (0 Bft) W 259 ° 0 min 0,000 mm 0,0 UV-I 0 W/m² 3,4 °C 5,6 °C 0,0 km/h (0 Bft)
01.11.2018 21:59 5,6 °C 87 % 1016,3 hPa 0,0 mm 0,0 km/h (0 Bft) W 259 ° 0 min 0,000 mm 0,0 UV-I 0 W/m² 3,6 °C 5,6 °C 0,0 km/h (0 Bft)
01.11.2018 22:00 5,6 °C 87 % 1016,3 hPa 0,0 mm 0,0 km/h (0 Bft) W 259 ° 0 min 0,000 mm 0,0 UV-I 0 W/m² 3,6 °C 5,6 °C 0,0 km/h (0 Bft)
01.11.2018 22:01 5,5 °C 87 % 1016,3 hPa 0,0 mm 2,5 km/h (1 Bft) W 259 ° 0 min 0,026 mm 0,0 UV-I 0 W/m² 3,5 °C 5,5 °C 4,8 km/h (1 Bft)
01.11.2018 22:02 5,6 °C 88 % 1016,3 hPa 0,0 mm 4,2 km/h (1 Bft) S-SO 155 ° 0 min 0,000 mm 0,0 UV-I 0 W/m² 3,8 °C 5,6 °C 8,0 km/h (2 Bft)
01.11.2018 22:03 5,7 °C 88 % 1016,3 hPa 0,0 mm 4,8 km/h (1 Bft) S-SO 154 ° 0 min 0,000 mm 0,0 UV-I 0 W/m² 3,9 °C 5,0 °C 6,4 km/h (2 Bft)
01.11.2018 22:04 5,9 °C 88 % 1016,4 hPa 0,0 mm 2,1 km/h (1 Bft) S-SO 154 ° 0 min 0,000 mm 0,0 UV-I 0 W/m² 4,1 °C 5,9 °C 3,2 km/h (1 Bft)
01.11.2018 22:05 6,0 °C 88 % 1016,4 hPa 0,0 mm 2,7 km/h (1 Bft) S-SO 154 ° 0 min 0,000 mm 0,0 UV-I 0 W/m² 4,2 °C 6,0 °C 3,2 km/h (1 Bft)
01.11.2018 22:06 6,1 °C 87 % 1016,4 hPa 0,0 mm 0,7 km/h (0 Bft) S-SO 154 ° 0 min 0,000 mm 0,0 UV-I 0 W/m² 4,1 °C 6,1 °C 3,2 km/h (1 Bft)
01.11.2018 22:07 6,1 °C 87 % 1016,4 hPa 0,0 mm 0,0 km/h (0 Bft) S-SO 154 ° 0 min 0,000 mm 0,0 UV-I 0 W/m² 4,1 °C 6,1 °C 0,0 km/h (0 Bft)
01.11.2018 22:08 6,0 °C 87 % 1016,4 hPa 0,0 mm 0,0 km/h (0 Bft) S-SO 154 ° 0 min 0,000 mm 0,0 UV-I 0 W/m² 4,0 °C 6,0 °C 0,0 km/h (0 Bft)
01.11.2018 22:09 6,0 °C 87 % 1016,4 hPa 0,0 mm 0,0 km/h (0 Bft) S-SO 154 ° 0 min 0,000 mm 0,0 UV-I 0 W/m² 4,0 °C 6,0 °C 0,0 km/h (0 Bft)
01.11.2018 22:10 5,9 °C 87 % 1016,4 hPa 0,0 mm 0,0 km/h (0 Bft) S-SO 154 ° 0 min 0,000 mm 0,0 UV-I 0 W/m² 3,9 °C 5,9 °C 0,0 km/h (0 Bft)
01.11.2018 22:11 5,9 °C 87 % 1016,5 hPa 0,0 mm 0,0 km/h (0 Bft) S-SO 154 ° 0 min 0,000 mm 0,0 UV-I 0 W/m² 3,9 °C 5,9 °C 0,0 km/h (0 Bft)
01.11.2018 22:12 5,8 °C 87 % 1016,4 hPa 0,0 mm 0,0 km/h (0 Bft) S-SO 154 ° 0 min 0,000 mm 0,0 UV-I 0 W/m² 3,8 °C 5,8 °C 0,0 km/h (0 Bft)
01.11.2018 22:13 5,8 °C 86 % 1016,5 hPa 0,0 mm 0,0 km/h (0 Bft) S-SO 154 ° 0 min 0,000 mm 0,0 UV-I 0 W/m² 3,6 °C 5,8 °C 0,0 km/h (0 Bft)
01.11.2018 22:14 5,8 °C 87 % 1016,5 hPa 0,0 mm 0,0 km/h (0 Bft) S-SO 154 ° 0 min 0,000 mm 0,0 UV-I 0 W/m² 3,8 °C 5,8 °C 0,0 km/h (0 Bft)
01.11.2018 22:15 5,8 °C 87 % 1016,4 hPa 0,0 mm 0,0 km/h (0 Bft) S-SO 154 ° 0 min 0,000 mm 0,0 UV-I 0 W/m² 3,8 °C 5,8 °C 0,0 km/h (0 Bft)
01.11.2018 22:16 5,8 °C 87 % 1016,4 hPa 0,0 mm 0,0 km/h (0 Bft) S-SO 154 ° 0 min 0,000 mm 0,0 UV-I 0 W/m² 3,8 °C 5,8 °C 0,0 km/h (0 Bft)
01.11.2018 22:17 5,8 °C 86 % 1016,4 hPa 0,0 mm 0,0 km/h (0 Bft) S-SO 154 ° 0 min 0,000 mm 0,0 UV-I 0 W/m² 3,6 °C 5,8 °C 0,0 km/h (0 Bft)
01.11.2018 22:18 5,7 °C 86 % 1016,4 hPa 0,0 mm 0,0 km/h (0 Bft) S-SO 154 ° 0 min 0,000 mm 0,0 UV-I 0 W/m² 3,5 °C 5,7 °C 0,0 km/h (0 Bft)
01.11.2018 22:19 5,7 °C 87 % 1016,4 hPa 0,0 mm 0,0 km/h (0 Bft) S-SO 154 ° 0 min 0,000 mm 0,0 UV-I 0 W/m² 3,7 °C 5,7 °C 0,0 km/h (0 Bft)
01.11.2018 22:20 5,7 °C 87 % 1016,4 hPa 0,0 mm 0,1 km/h (0 Bft) S-SO 157 ° 0 min 0,000 mm 0,0 UV-I 0 W/m² 3,7 °C 5,7 °C 1,6 km/h (1 Bft)
01.11.2018 22:21 5,8 °C 87 % 1016,4 hPa 0,0 mm 1,2 km/h (1 Bft) S-SO 157 ° 0 min 0,000 mm 0,0 UV-I 0 W/m² 3,8 °C 5,8 °C 3,2 km/h (1 Bft)
01.11.2018 22:22 5,8 °C 87 % 1016,4 hPa 0,0 mm 0,5 km/h (0 Bft) S-SO 157 ° 0 min 0,000 mm 0,0 UV-I 0 W/m² 3,8 °C 5,8 °C 1,6 km/h (1 Bft)
01.11.2018 22:23 5,8 °C 87 % 1016,4 hPa 0,0 mm 0,0 km/h (0 Bft) S-SO 157 ° 0 min 0,000 mm 0,0 UV-I 0 W/m² 3,8 °C 5,8 °C 0,0 km/h (0 Bft)
01.11.2018 22:24 5,8 °C 87 % 1016,4 hPa 0,0 mm 0,0 km/h (0 Bft) S-SO 157 ° 0 min 0,000 mm 0,0 UV-I 0 W/m² 3,8 °C 5,8 °C 0,0 km/h (0 Bft)
01.11.2018 22:25 5,8 °C 87 % 1016,4 hPa 0,0 mm 0,0 km/h (0 Bft) S-SO 157 ° 0 min 0,000 mm 0,0 UV-I 0 W/m² 3,8 °C 5,8 °C 0,0 km/h (0 Bft)
01.11.2018 22:26 5,8 °C 87 % 1016,4 hPa 0,0 mm 0,0 km/h (0 Bft) S-SO 157 ° 0 min 0,000 mm 0,0 UV-I 0 W/m² 3,8 °C 5,8 °C 0,0 km/h (0 Bft)
01.11.2018 22:27 5,8 °C 87 % 1016,4 hPa 0,0 mm 0,5 km/h (0 Bft) S-SO 157 ° 0 min 0,000 mm 0,0 UV-I 0 W/m² 3,8 °C 5,8 °C 3,2 km/h (1 Bft)
01.11.2018 22:28 5,9 °C 87 % 1016,4 hPa 0,0 mm 4,6 km/h (1 Bft) S-SO 156 ° 0 min 0,000 mm 0,0 UV-I 0 W/m² 3,9 °C 5,3 °C 8,0 km/h (2 Bft)
01.11.2018 22:29 5,9 °C 87 % 1016,4 hPa 0,0 mm 6,0 km/h (2 Bft) S-SW 213 ° 0 min 0,000 mm 0,0 UV-I 0 W/m² 3,9 °C 4,8 °C 8,0 km/h (2 Bft)
01.11.2018 22:30 6,1 °C 88 % 1016,4 hPa 0,0 mm 7,0 km/h (2 Bft) S-SW 196 ° 0 min 0,000 mm 0,0 UV-I 0 W/m² 4,3 °C 4,7 °C 9,7 km/h (2 Bft)
01.11.2018 22:31 6,2 °C 88 % 1016,5 hPa 0,0 mm 6,8 km/h (2 Bft) S 190 ° 0 min 0,000 mm 0,0 UV-I 0 W/m² 4,4 °C 4,9 °C 9,7 km/h (2 Bft)
01.11.2018 22:32 6,3 °C 88 % 1016,4 hPa 0,0 mm 4,8 km/h (1 Bft) S-SW 213 ° 0 min 0,000 mm 0,0 UV-I 0 W/m² 4,5 °C 5,6 °C 11,3 km/h (2 Bft)
01.11.2018 22:33 6,4 °C 87 % 1016,4 hPa 0,0 mm 1,4 km/h (1 Bft) S-SW 213 ° 0 min 0,000 mm 0,0 UV-I 0 W/m² 4,4 °C 6,4 °C 3,2 km/h (1 Bft)
01.11.2018 22:34 6,4 °C 87 % 1016,4 hPa 0,0 mm 3,0 km/h (1 Bft) SW 231 ° 0 min 0,000 mm 0,0 UV-I 0 W/m² 4,4 °C 6,4 °C 6,4 km/h (2 Bft)
01.11.2018 22:35 6,6 °C 87 % 1016,5 hPa 0,0 mm 5,6 km/h (1 Bft) S-SW 196 ° 0 min 0,000 mm 0,0 UV-I 0 W/m² 4,6 °C 5,7 °C 9,7 km/h (2 Bft)
01.11.2018 22:36 6,6 °C 87 % 1016,5 hPa 0,0 mm 2,0 km/h (1 Bft) S-SW 196 ° 0 min 0,000 mm 0,0 UV-I 0 W/m² 4,6 °C 6,6 °C 4,8 km/h (1 Bft)
01.11.2018 22:37 6,7 °C 87 % 1016,5 hPa 0,0 mm 1,3 km/h (1 Bft) W-SW 237 ° 0 min 0,000 mm 0,0 UV-I 0 W/m² 4,7 °C 6,7 °C 4,8 km/h (1 Bft)
01.11.2018 22:38 6,7 °C 86 % 1016,4 hPa 0,0 mm 0,1 km/h (0 Bft) W-SW 237 ° 0 min 0,000 mm 0,0 UV-I 0 W/m² 4,5 °C 6,7 °C 1,6 km/h (1 Bft)
01.11.2018 22:39 6,7 °C 85 % 1016,4 hPa 0,0 mm 0,0 km/h (0 Bft) S-SW 209 ° 0 min 0,000 mm 0,0 UV-I 0 W/m² 4,4 °C 6,7 °C 0,0 km/h (0 Bft)
01.11.2018 22:40 6,6 °C 85 % 1016,4 hPa 0,0 mm 0,7 km/h (0 Bft) S-SW 209 ° 0 min 0,000 mm 0,0 UV-I 0 W/m² 4,3 °C 6,6 °C 3,2 km/h (1 Bft)
01.11.2018 22:41 6,4 °C 85 % 1016,4 hPa 0,0 mm 0,7 km/h (0 Bft) SW 227 ° 0 min 0,000 mm 0,0 UV-I 0 W/m² 4,1 °C 6,4 °C 3,2 km/h (1 Bft)
01.11.2018 22:42 6,4 °C 86 % 1016,4 hPa 0,0 mm 0,7 km/h (0 Bft) W-NW 291 ° 0 min 0,000 mm 0,0 UV-I 0 W/m² 4,2 °C 6,4 °C 4,8 km/h (1 Bft)
01.11.2018 22:43 6,2 °C 84 % 1016,4 hPa 0,0 mm 2,3 km/h (1 Bft) W-NW 291 ° 0 min 0,000 mm 0,0 UV-I 0 W/m² 3,7 °C 6,2 °C 4,8 km/h (1 Bft)
01.11.2018 22:44 5,8 °C 83 % 1016,5 hPa 0,0 mm 1,8 km/h (1 Bft) W-NW 291 ° 0 min 0,000 mm 0,0 UV-I 0 W/m² 3,1 °C 5,8 °C 3,2 km/h (1 Bft)
01.11.2018 22:45 5,5 °C 83 % 1016,5 hPa 0,0 mm 1,7 km/h (1 Bft) W-NW 291 ° 0 min 0,000 mm 0,0 UV-I 0 W/m² 2,8 °C 5,5 °C 3,2 km/h (1 Bft)
01.11.2018 22:46 5,2 °C 84 % 1016,4 hPa 0,0 mm 0,5 km/h (0 Bft) W-NW 291 ° 0 min 0,000 mm 0,0 UV-I 0 W/m² 2,7 °C 5,2 °C 1,6 km/h (1 Bft)
01.11.2018 22:47 5,1 °C 86 % 1016,4 hPa 0,0 mm 0,2 km/h (0 Bft) W-NW 291 ° 0 min 0,000 mm 0,0 UV-I 0 W/m² 3,0 °C 5,1 °C 1,6 km/h (1 Bft)
01.11.2018 22:48 5,0 °C 86 % 1016,4 hPa 0,0 mm 0,5 km/h (0 Bft) W-NW 291 ° 0 min 0,000 mm 0,0 UV-I 0 W/m² 2,9 °C 5,0 °C 1,6 km/h (1 Bft)
01.11.2018 22:49 5,0 °C 87 % 1016,4 hPa 0,0 mm 0,1 km/h (0 Bft) W-NW 291 ° 0 min 0,000 mm 0,0 UV-I 0 W/m² 3,0 °C 5,0 °C 1,6 km/h (1 Bft)
01.11.2018 22:50 5,0 °C 88 % 1016,3 hPa 0,0 mm 0,9 km/h (0 Bft) W-NW 291 ° 0 min 0,000 mm 0,0 UV-I 0 W/m² 3,2 °C 5,0 °C 3,2 km/h (1 Bft)
01.11.2018 22:51 5,0 °C 88 % 1016,4 hPa 0,0 mm 0,0 km/h (0 Bft) W-NW 291 ° 0 min 0,000 mm 0,0 UV-I 0 W/m² 3,2 °C 5,0 °C 0,0 km/h (0 Bft)
01.11.2018 22:52 5,0 °C 88 % 1016,4 hPa 0,0 mm 0,7 km/h (0 Bft) W-NW 291 ° 0 min 0,000 mm 0,0 UV-I 0 W/m² 3,2 °C 5,0 °C 3,2 km/h (1 Bft)
01.11.2018 22:53 5,2 °C 89 % 1016,4 hPa 0,0 mm 3,2 km/h (1 Bft) S-SO 165 ° 0 min 0,000 mm 0,0 UV-I 0 W/m² 3,5 °C 5,2 °C 8,0 km/h (2 Bft)
01.11.2018 22:54 5,4 °C 90 % 1016,5 hPa 0,0 mm 3,5 km/h (1 Bft) W-SW 257 ° 0 min 0,000 mm 0,0 UV-I 0 W/m² 3,9 °C 5,4 °C 9,7 km/h (2 Bft)
01.11.2018 22:55 5,6 °C 90 % 1016,5 hPa 0,0 mm 0,2 km/h (0 Bft) W-SW 257 ° 0 min 0,000 mm 0,0 UV-I 0 W/m² 4,1 °C 5,6 °C 1,6 km/h (1 Bft)
01.11.2018 22:56 5,8 °C 90 % 1016,5 hPa 0,0 mm 2,6 km/h (1 Bft) SW 223 ° 0 min 0,000 mm 0,0 UV-I 0 W/m² 4,3 °C 5,8 °C 4,8 km/h (1 Bft)
01.11.2018 22:57 5,9 °C 89 % 1016,5 hPa 0,0 mm 3,4 km/h (1 Bft) SW 220 ° 0 min 0,000 mm 0,0 UV-I 0 W/m² 4,2 °C 5,9 °C 6,4 km/h (2 Bft)
01.11.2018 22:58 6,1 °C 89 % 1016,5 hPa 0,0 mm 4,5 km/h (1 Bft) S-SW 202 ° 0 min 0,000 mm 0,0 UV-I 0 W/m² 4,4 °C 6,1 °C 6,4 km/h (2 Bft)
01.11.2018 22:59 6,2 °C 89 % 1016,5 hPa 0,0 mm 3,6 km/h (1 Bft) S-SW 202 ° 0 min 0,000 mm 0,0 UV-I 0 W/m² 4,5 °C 6,2 °C 4,8 km/h (1 Bft)
01.11.2018 23:00 6,3 °C 88 % 1016,5 hPa 0,0 mm 2,5 km/h (1 Bft) W-SW 238 ° 0 min 0,000 mm 0,0 UV-I 0 W/m² 4,5 °C 6,3 °C 4,8 km/h (1 Bft)
01.11.2018 23:01 6,4 °C 88 % 1016,5 hPa 0,0 mm 1,3 km/h (1 Bft) W-SW 238 ° 0 min 0,000 mm 0,0 UV-I 0 W/m² 4,6 °C 6,4 °C 3,2 km/h (1 Bft)
01.11.2018 23:02 6,5 °C 87 % 1016,6 hPa 0,0 mm 2,6 km/h (1 Bft) W 264 ° 0 min 0,000 mm 0,0 UV-I 0 W/m² 4,5 °C 6,5 °C 6,4 km/h (2 Bft)
01.11.2018 23:03 6,6 °C 87 % 1016,5 hPa 0,0 mm 2,4 km/h (1 Bft) W 263 ° 0 min 0,000 mm 0,0 UV-I 0 W/m² 4,6 °C 6,6 °C 6,4 km/h (2 Bft)
01.11.2018 23:04 6,6 °C 86 % 1016,6 hPa 0,0 mm 3,9 km/h (1 Bft) W-SW 251 ° 0 min 0,000 mm 0,0 UV-I 0 W/m² 4,4 °C 6,6 °C 6,4 km/h (2 Bft)
01.11.2018 23:05 6,6 °C 86 % 1016,6 hPa 0,0 mm 4,6 km/h (1 Bft) SW 233 ° 0 min 0,000 mm 0,0 UV-I 0 W/m² 4,4 °C 6,0 °C 8,0 km/h (2 Bft)
01.11.2018 23:06 6,6 °C 86 % 1016,6 hPa 0,0 mm 4,9 km/h (1 Bft) W 273 ° 0 min 0,000 mm 0,0 UV-I 0 W/m² 4,4 °C 5,9 °C 9,7 km/h (2 Bft)
01.11.2018 23:07 6,6 °C 86 % 1016,6 hPa 0,0 mm 2,4 km/h (1 Bft) SW 236 ° 0 min 0,000 mm 0,0 UV-I 0 W/m² 4,4 °C 6,6 °C 4,8 km/h (1 Bft)
01.11.2018 23:08 6,6 °C 86 % 1016,6 hPa 0,0 mm 6,6 km/h (2 Bft) W 277 ° 0 min 0,000 mm 0,0 UV-I 0 W/m² 4,4 °C 5,4 °C 11,3 km/h (2 Bft)
01.11.2018 23:09 6,6 °C 86 % 1016,6 hPa 0,0 mm 4,0 km/h (1 Bft) W-NW 284 ° 0 min 0,000 mm 0,0 UV-I 0 W/m² 4,4 °C 6,6 °C 6,4 km/h (2 Bft)
01.11.2018 23:10 6,6 °C 86 % 1016,6 hPa 0,0 mm 3,1 km/h (1 Bft) W 261 ° 0 min 0,000 mm 0,0 UV-I 0 W/m² 4,4 °C 6,6 °C 6,4 km/h (2 Bft)
01.11.2018 23:11 6,6 °C 86 % 1016,5 hPa 0,0 mm 4,0 km/h (1 Bft) W-NW 283 ° 0 min 0,000 mm 0,0 UV-I 0 W/m² 4,4 °C 6,6 °C 6,4 km/h (2 Bft)
01.11.2018 23:12 6,6 °C 86 % 1016,5 hPa 0,0 mm 1,2 km/h (1 Bft) W-NW 283 ° 0 min 0,000 mm 0,0 UV-I 0 W/m² 4,4 °C 6,6 °C 4,8 km/h (1 Bft)
01.11.2018 23:13 6,6 °C 86 % 1016,5 hPa 0,0 mm 6,1 km/h (2 Bft) W 262 ° 0 min 0,000 mm 0,0 UV-I 0 W/m² 4,4 °C 5,5 °C 12,9 km/h (3 Bft)
01.11.2018 23:14 6,6 °C 86 % 1016,5 hPa 0,0 mm 5,6 km/h (1 Bft) W 263 ° 0 min 0,000 mm 0,0 UV-I 0 W/m² 4,4 °C 5,7 °C 6,4 km/h (2 Bft)
01.11.2018 23:15 6,6 °C 86 % 1016,5 hPa 0,0 mm 2,3 km/h (1 Bft) W 261 ° 0 min 0,000 mm 0,0 UV-I 0 W/m² 4,4 °C 6,6 °C 6,4 km/h (2 Bft)
01.11.2018 23:16 6,7 °C 86 % 1016,6 hPa 0,0 mm 2,2 km/h (1 Bft) W 261 ° 0 min 0,000 mm 0,0 UV-I 0 W/m² 4,5 °C 6,7 °C 3,2 km/h (1 Bft)
01.11.2018 23:17 6,7 °C 86 % 1016,6 hPa 0,0 mm 2,5 km/h (1 Bft) W 261 ° 0 min 0,000 mm 0,0 UV-I 0 W/m² 4,5 °C 6,7 °C 4,8 km/h (1 Bft)
01.11.2018 23:18 6,7 °C 85 % 1016,6 hPa 0,0 mm 1,0 km/h (0 Bft) W 261 ° 0 min 0,000 mm 0,0 UV-I 0 W/m² 4,4 °C 6,7 °C 3,2 km/h (1 Bft)
01.11.2018 23:19 6,7 °C 85 % 1016,7 hPa 0,0 mm 3,5 km/h (1 Bft) W 261 ° 0 min 0,000 mm 0,0 UV-I 0 W/m² 4,4 °C 6,7 °C 6,4 km/h (2 Bft)
01.11.2018 23:20 6,6 °C 85 % 1016,6 hPa 0,0 mm 2,9 km/h (1 Bft) W-SW 254 ° 0 min 0,000 mm 0,0 UV-I 0 W/m² 4,3 °C 6,6 °C 6,4 km/h (2 Bft)
01.11.2018 23:21 6,7 °C 86 % 1016,6 hPa 0,0 mm 2,3 km/h (1 Bft) W 261 ° 0 min 0,000 mm 0,0 UV-I 0 W/m² 4,5 °C 6,7 °C 9,7 km/h (2 Bft)
01.11.2018 23:22 6,7 °C 85 % 1016,6 hPa 0,0 mm 0,1 km/h (0 Bft) W 261 ° 0 min 0,000 mm 0,0 UV-I 0 W/m² 4,4 °C 6,7 °C 1,6 km/h (1 Bft)
01.11.2018 23:23 6,8 °C 85 % 1016,7 hPa 0,0 mm 2,5 km/h (1 Bft) S-SO 166 ° 0 min 0,000 mm 0,0 UV-I 0 W/m² 4,5 °C 6,8 °C 4,8 km/h (1 Bft)
01.11.2018 23:24 6,8 °C 86 % 1016,6 hPa 0,0 mm 4,2 km/h (1 Bft) S 171 ° 0 min 0,000 mm 0,0 UV-I 0 W/m² 4,6 °C 6,8 °C 6,4 km/h (2 Bft)
01.11.2018 23:25 6,9 °C 85 % 1016,7 hPa 0,0 mm 1,2 km/h (1 Bft) S 186 ° 0 min 0,000 mm 0,0 UV-I 0 W/m² 4,6 °C 6,9 °C 3,2 km/h (1 Bft)
01.11.2018 23:26 7,0 °C 85 % 1016,7 hPa 0,0 mm 3,2 km/h (1 Bft) W-SW 244 ° 0 min 0,000 mm 0,0 UV-I 0 W/m² 4,7 °C 7,0 °C 6,4 km/h (2 Bft)
01.11.2018 23:27 7,0 °C 85 % 1016,7 hPa 0,0 mm 1,0 km/h (0 Bft) W-SW 244 ° 0 min 0,000 mm 0,0 UV-I 0 W/m² 4,7 °C 7,0 °C 3,2 km/h (1 Bft)
01.11.2018 23:28 7,0 °C 84 % 1016,7 hPa 0,0 mm 0,0 km/h (0 Bft) W-SW 244 ° 0 min 0,000 mm 0,0 UV-I 0 W/m² 4,5 °C 7,0 °C 0,0 km/h (0 Bft)
01.11.2018 23:29 6,9 °C 84 % 1016,8 hPa 0,0 mm 0,0 km/h (0 Bft) W-SW 244 ° 0 min 0,000 mm 0,0 UV-I 0 W/m² 4,4 °C 6,9 °C 0,0 km/h (0 Bft)
01.11.2018 23:30 6,8 °C 85 % 1016,9 hPa 0,0 mm 0,0 km/h (0 Bft) W-SW 244 ° 0 min 0,000 mm 0,0 UV-I 0 W/m² 4,5 °C 6,8 °C 0,0 km/h (0 Bft)
01.11.2018 23:31 6,6 °C 84 % 1016,9 hPa 0,0 mm 1,1 km/h (1 Bft) S-SW 213 ° 0 min 0,000 mm 0,0 UV-I 0 W/m² 4,1 °C 6,6 °C 3,2 km/h (1 Bft)
01.11.2018 23:32 6,4 °C 84 % 1016,9 hPa 0,0 mm 0,4 km/h (0 Bft) S-SW 213 ° 0 min 0,000 mm 0,0 UV-I 0 W/m² 3,9 °C 6,4 °C 1,6 km/h (1 Bft)
01.11.2018 23:33 6,3 °C 86 % 1016,9 hPa 0,0 mm 0,0 km/h (0 Bft) S-SW 213 ° 0 min 0,000 mm 0,0 UV-I 0 W/m² 4,1 °C 6,3 °C 0,0 km/h (0 Bft)
01.11.2018 23:34 6,2 °C 86 % 1016,9 hPa 0,0 mm 0,0 km/h (0 Bft) S-SW 213 ° 0 min 0,000 mm 0,0 UV-I 0 W/m² 4,0 °C 6,2 °C 0,0 km/h (0 Bft)
01.11.2018 23:35 6,0 °C 86 % 1016,9 hPa 0,0 mm 0,0 km/h (0 Bft) S-SW 213 ° 0 min 0,000 mm 0,0 UV-I 0 W/m² 3,8 °C 6,0 °C 0,0 km/h (0 Bft)
01.11.2018 23:36 5,9 °C 87 % 1016,9 hPa 0,0 mm 0,0 km/h (0 Bft) S-SW 213 ° 0 min 0,000 mm 0,0 UV-I 0 W/m² 3,9 °C 5,9 °C 0,0 km/h (0 Bft)
01.11.2018 23:37 5,8 °C 86 % 1016,9 hPa 0,0 mm 0,0 km/h (0 Bft) S-SW 213 ° 0 min 0,000 mm 0,0 UV-I 0 W/m² 3,6 °C 5,8 °C 0,0 km/h (0 Bft)
01.11.2018 23:38 5,8 °C 87 % 1016,8 hPa 0,0 mm 0,0 km/h (0 Bft) S-SW 213 ° 0 min 0,000 mm 0,0 UV-I 0 W/m² 3,8 °C 5,8 °C 0,0 km/h (0 Bft)
01.11.2018 23:39 5,7 °C 88 % 1016,9 hPa 0,0 mm 0,0 km/h (0 Bft) S-SW 213 ° 0 min 0,000 mm 0,0 UV-I 0 W/m² 3,9 °C 5,7 °C 0,0 km/h (0 Bft)
01.11.2018 23:40 5,6 °C 88 % 1016,8 hPa 0,0 mm 0,0 km/h (0 Bft) S-SW 213 ° 0 min 0,000 mm 0,0 UV-I 0 W/m² 3,8 °C 5,6 °C 0,0 km/h (0 Bft)
01.11.2018 23:41 5,6 °C 88 % 1016,8 hPa 0,0 mm 0,0 km/h (0 Bft) S-SW 213 ° 0 min 0,000 mm 0,0 UV-I 0 W/m² 3,8 °C 5,6 °C 0,0 km/h (0 Bft)
01.11.2018 23:42 5,7 °C 88 % 1016,9 hPa 0,0 mm 0,0 km/h (0 Bft) S-SW 213 ° 0 min 0,000 mm 0,0 UV-I 0 W/m² 3,9 °C 5,7 °C 0,0 km/h (0 Bft)
01.11.2018 23:43 5,8 °C 88 % 1016,9 hPa 0,0 mm 0,0 km/h (0 Bft) S-SW 213 ° 0 min 0,000 mm 0,0 UV-I 0 W/m² 4,0 °C 5,8 °C 0,0 km/h (0 Bft)
01.11.2018 23:44 5,8 °C 89 % 1016,8 hPa 0,0 mm 0,0 km/h (0 Bft) S-SW 213 ° 0 min 0,000 mm 0,0 UV-I 0 W/m² 4,1 °C 5,8 °C 0,0 km/h (0 Bft)
01.11.2018 23:45 6,0 °C 89 % 1016,8 hPa 0,0 mm 0,0 km/h (0 Bft) S-SW 213 ° 0 min 0,000 mm 0,0 UV-I 0 W/m² 4,3 °C 6,0 °C 0,0 km/h (0 Bft)
01.11.2018 23:46 6,0 °C 88 % 1016,8 hPa 0,0 mm 0,0 km/h (0 Bft) S-SW 213 ° 0 min 0,000 mm 0,0 UV-I 0 W/m² 4,2 °C 6,0 °C 0,0 km/h (0 Bft)
01.11.2018 23:47 5,9 °C 87 % 1016,8 hPa 0,0 mm 0,0 km/h (0 Bft) S-SW 213 ° 0 min 0,000 mm 0,0 UV-I 0 W/m² 3,9 °C 5,9 °C 0,0 km/h (0 Bft)
01.11.2018 23:48 5,8 °C 87 % 1016,7 hPa 0,0 mm 0,0 km/h (0 Bft) S-SW 213 ° 0 min 0,000 mm 0,0 UV-I 0 W/m² 3,8 °C 5,8 °C 0,0 km/h (0 Bft)
01.11.2018 23:49 5,8 °C 87 % 1016,8 hPa 0,0 mm 0,0 km/h (0 Bft) S-SW 213 ° 0 min 0,000 mm 0,0 UV-I 0 W/m² 3,8 °C 5,8 °C 0,0 km/h (0 Bft)
01.11.2018 23:50 5,9 °C 88 % 1016,8 hPa 0,0 mm 0,0 km/h (0 Bft) S-SW 213 ° 0 min 0,000 mm 0,0 UV-I 0 W/m² 4,1 °C 5,9 °C 0,0 km/h (0 Bft)
01.11.2018 23:51 5,9 °C 88 % 1016,8 hPa 0,0 mm 0,1 km/h (0 Bft) S-SW 213 ° 0 min 0,000 mm 0,0 UV-I 0 W/m² 4,1 °C 5,9 °C 1,6 km/h (1 Bft)
01.11.2018 23:52 6,1 °C 88 % 1016,9 hPa 0,0 mm 3,2 km/h (1 Bft) S-SW 213 ° 0 min 0,000 mm 0,0 UV-I 0 W/m² 4,3 °C 6,1 °C 4,8 km/h (1 Bft)
01.11.2018 23:53 6,1 °C 88 % 1016,9 hPa 0,0 mm 1,1 km/h (1 Bft) S-SW 213 ° 0 min 0,000 mm 0,0 UV-I 0 W/m² 4,3 °C 6,1 °C 3,2 km/h (1 Bft)
01.11.2018 23:54 6,2 °C 88 % 1016,9 hPa 0,0 mm 2,2 km/h (1 Bft) S-SW 213 ° 0 min 0,000 mm 0,0 UV-I 0 W/m² 4,4 °C 6,2 °C 3,2 km/h (1 Bft)
01.11.2018 23:55 6,2 °C 88 % 1016,9 hPa 0,0 mm 0,5 km/h (0 Bft) S-SW 213 ° 0 min 0,000 mm 0,0 UV-I 0 W/m² 4,4 °C 6,2 °C 3,2 km/h (1 Bft)
01.11.2018 23:56 6,2 °C 87 % 1017,0 hPa 0,0 mm 2,9 km/h (1 Bft) S-SW 213 ° 0 min 0,000 mm 0,0 UV-I 0 W/m² 4,2 °C 6,2 °C 3,2 km/h (1 Bft)
01.11.2018 23:57 6,1 °C 86 % 1016,8 hPa 0,0 mm 3,1 km/h (1 Bft) S-SW 213 ° 0 min 0,000 mm 0,0 UV-I 0 W/m² 3,9 °C 6,1 °C 3,2 km/h (1 Bft)
01.11.2018 23:58 6,1 °C 86 % 1016,8 hPa 0,0 mm 2,4 km/h (1 Bft) S-SW 213 ° 0 min 0,000 mm 0,0 UV-I 0 W/m² 3,9 °C 6,1 °C 3,2 km/h (1 Bft)
01.11.2018 23:59 5,9 °C 86 % 1016,9 hPa 0,0 mm 1,8 km/h (1 Bft) S-SW 213 ° 0 min 0,000 mm 0,0 UV-I 0 W/m² 3,7 °C 5,9 °C 3,2 km/h (1 Bft)
_ Min-Zeit 19:55 14:04 10:09 - 23:50 - - - - - - 22:46 19:51 23:50
Minimum _ 4,2 °C 53 % 1008,4 hPa - 0,0 km/h (0 Bft) - - - - - - 2,7 °C 2,9 °C 0,0 km/h (0 Bft)
_ Max-Zeit 14:06 20:19 23:56 23:59 14:10 - - 23:59 15:01 13:52 13:50 13:53 14:06 14:08
Maximum _ 16,8 °C 92 % 1017,0 hPa 0,0 mm 11,0 km/h
NW (2 Bft)
- - 0 min 0,203 mm 2,2 UV-I 526 W/m² 9,2 °C 16,8 °C 19,3 km/h
NW (3 Bft)
Durchschnitt _ 9,8 °C 73 % 1011,8 hPa #0,0 mm 1,7 km/h (1 Bft) S - #0 min. #0,940 mm 1,2 UV-I 55 W/m² 5,0 °C 9,7 °C 3,4 km/h (1 Bft)